[[{"header":{"parameterUnit":"m.s-1","parameterCategory":1,"la1":30.6,"la2":29.2853,"lo1":-89.7004,"lo2":-87.6739,"dy":0.0162,"dx":0.0183,"nx":112,"ny":82,"refTime":"2026-02-20T12:00:00:Z","depth":0,"parameterNumber":2,"parameterNumberName":"U-component_of_WINDS"},"data":[0.0,0.0,0.0,0.0,0.0,0.0,0.0,0.0,0.0,0.0,0.0,0.0,0.0,0.0,0.0,0.0,0.0,0.0,0.0,0.0,0.0,0.0,0.0,0.0,0.0,0.0,0.0,0.0,0.0,0.0,0.0,0.0,0.0,0.0,0.0,0.0,0.0,0.0,0.0,0.0,0.0,0.0,0.0,0.0,0.0,0.0,0.0,0.0,0.0,0.0,0.0,0.0,0.0,0.0,0.0,0.0,0.0,0.0,0.0,0.0,0.0,0.0,0.0,0.0,0.0,0.0,0.0,0.0,0.0,0.0,0.0,0.0,0.0,0.0,0.0,0.0,0.0,0.0,0.0,0.0,0.0,0.0,0.0,0.0,0.0,0.0,0.0,0.0,0.0,0.0,0.0,0.0474,-0.0,-0.0801,-0.2786,-0.2257,-0.0502,0.2495,0.0,0.0,0.0,0.0,0.0,0.0,0.0,0.0,0.0,0.0,0.0,0.0,0.0,0.0,0.0,0.0,0.0,0.0,0.0,0.0,0.0,0.0,0.0,0.0,0.0,0.0,0.0,0.0,0.0,0.0,0.0,0.0,0.0,0.0,0.0,0.0,0.0,0.0,0.0,0.0,0.0,0.0,0.0,0.0,0.0,0.0,0.0,0.0,0.0,0.0,0.0,0.0,0.0,0.0,0.0,0.0,0.0,0.0,0.0,0.0,0.0,0.0,0.0,0.0,0.0,0.0,0.0,0.0,0.0,0.0,0.0,0.0,0.0,0.0,0.0,0.0,0.0,0.0,0.0,0.0,0.0,0.0,0.0,0.0,0.0,0.0,0.0,0.0,0.0,0.0,0.0,0.0,0.0,0.0,0.0,0.0,0.0,0.0,0.0,0.0,0.0,0.0,0.0,0.0,0.0881,0.0078,-0.0,-0.0134,-0.0493,-0.1309,-0.0505,0.2495,0.0,0.0,0.0,0.0,0.0,0.0,0.0,0.0,0.0,0.0,0.0,0.0,0.0,0.0,0.0,0.0,0.0,0.0,0.0,0.0,0.0,0.0,0.0,0.0,0.0,0.0,0.0,0.0,0.0,0.0,0.0,0.0,0.0,0.0,0.0,0.0,0.0,0.0,0.0,0.0,0.0,0.0,0.0,0.0,0.0,0.0,0.0,0.0,0.0,0.0,0.0,0.0,0.0,0.0,0.0,0.0,0.0,0.0,0.0,0.0,0.0,0.0,0.0,0.0,0.0,0.0,0.0,0.0,0.0,0.0,0.0,0.0,0.0,0.0,0.0,0.0,0.0,0.0,0.0,0.0,0.0,0.0,0.0,0.0,0.0,0.0,0.0,0.0,0.0,0.0,0.0,0.0,0.0,0.0,0.0,0.0,0.0,0.0,0.0,0.0,0.0,0.0,0.0,0.2394,0.1573,0.0144,-0.0,0.0519,0.1794,0.0827,0.0934,0.2763,0.2649,0.0,0.0,0.0,0.0,0.0,0.0,0.0,0.0,0.0,0.0,0.0,0.0,0.0,0.0,0.0,0.0,0.0,0.0,0.0,0.0,0.0,0.0,0.0,0.0,0.0,0.0,0.0,0.0,0.0,0.0,0.0,0.0,0.0,0.0,0.0,0.0,0.0,0.0,0.0,0.0,0.0,0.0,0.0,0.0,0.0,0.0,0.0,0.0,0.0,0.0,0.0,0.0,0.0,0.0,0.0,0.0,0.0,0.0,0.0,0.0,0.0,0.0,0.0,0.0,0.0,0.0,0.0,0.0,0.0,0.0,0.0,0.0,0.0,0.0,0.0,0.0,0.0,0.0,0.0,0.0,0.0,0.0,0.0,0.0,0.0,0.0,0.0,0.0,0.0,0.0,0.0,0.0,0.0,0.0,0.0,0.0,0.0,0.0,0.0,0.0,0.0,0.0,0.6051,0.4495,0.2118,0.1291,0.1562,0.3165,0.2748,0.2617,0.3077,0.2841,0.0,0.0,0.0,0.0,0.0,0.0,0.0,0.0,0.0,0.0,0.0,0.0,0.0,0.0,0.0,0.0,0.0,0.0,0.0,0.0,0.0,0.0,0.0,0.0,0.0,0.0,0.0,0.0,0.0,0.0,0.0,0.0,0.0,0.0,0.0,0.0,0.0,0.0,0.0,0.0,0.0,0.0,0.0,0.0,0.0,0.0,0.0,0.0,0.0,0.0,0.0,0.0,0.0,0.0,0.0,0.0,0.0,0.0,0.0,0.0,0.0,0.0,0.0,0.0,0.0,0.0,0.0,0.0,0.0,0.0,0.0,0.0,0.0,0.0,0.0,0.0,0.0,0.0,0.0,0.0,0.0,0.0,0.0,0.0,0.0,0.0,0.0,0.0,0.0,0.0,0.0,0.0,0.0,0.0,0.0,0.0,0.0,0.0,0.0,0.0,0.0,0.0,1.0902,0.9194,0.7526,0.5105,0.336,0.271,0.3622,0.3995,0.3505,0.3423,0.0,0.0,0.0,0.0,0.0,0.0,0.0,0.0,0.0,0.0,0.0,0.0,0.0,0.0,0.0,0.0,0.0,0.0,0.0,0.0,0.0,0.0,0.0,0.0,0.0,0.0,0.0,0.0,0.0,0.0,0.0,0.0,0.0,0.0,0.0,0.0,0.0,0.0,0.0,0.0,0.0,0.0,0.0,0.0,0.0,0.0,0.0,0.0,0.0,0.0,0.0,0.0,0.0,0.0,0.0,0.0,0.0,0.0,0.0,0.0,0.0,0.0,0.0,0.0,0.0,0.0,0.0,0.0,0.0,0.0,0.0,0.0,0.0,0.0,0.0,0.0,0.0,0.0,0.0,0.0,0.0,0.0,0.0,0.0,0.0,0.0,0.0,0.0,0.0,0.0,0.0,0.0,0.0,0.0,0.0,0.0,0.0,0.0,0.0,0.0,0.0,0.0,0.945,0.9179,0.0,0.7608,0.5982,0.4991,0.4587,0.4147,0.3542,0.0,0.0,0.0,0.0,0.0,0.0,0.0,0.0,0.0,0.0,0.0,0.0,0.0,0.0,0.0,0.0,0.0,0.0,0.0,0.0,0.0,0.0,0.0,0.0,0.0,0.0,0.0,0.0,0.0,0.0,0.0,0.0,0.0,0.0,0.0,0.0,0.0,0.0,0.0,0.0,0.0,0.0,0.0,0.0,0.0,0.0,0.0,0.0,0.0,0.0,0.0,0.0,0.0,0.0,0.0,0.0,0.0,0.0,0.0,0.0,0.0,0.0,0.0,0.0,0.0,0.0,0.0,0.0,0.0,0.0,0.0,0.0,0.0,0.0,0.0,0.0,0.0,0.0,0.0,0.0,0.0,0.0,0.0,0.0,0.0,0.0,0.0,0.0,0.0,0.0,0.0,0.0,0.0,0.0,0.0,0.0,0.0,0.0,0.0,0.0,0.0,0.0,0.7016,0.7106,0.7674,0.0,0.8374,0.7209,0.6047,0.5231,0.4388,0.3487,0.0,0.0,0.0,0.0,0.0,0.0,0.0,0.0,0.0,0.0,0.0,0.0,0.0,0.0,0.0,0.0,0.0,0.0,0.0,0.0,0.0,0.0,0.0,0.0,0.0,0.0,0.0,0.0,0.0,0.0,0.0,0.0,0.0,0.0,0.0,0.0,0.0,0.0,0.0,0.0,0.0,0.0,0.0,0.0,0.0,0.0,0.0,0.0,0.0,0.0,0.0,0.0,0.0,0.0,0.0,0.0,0.0,0.0,0.0,0.0,0.0,0.0,0.0,0.0,0.0,0.0,0.0,0.0,0.0,0.0,0.0,0.0,0.0,0.0,0.0,0.0,0.0,0.0,0.0,0.0,0.0,0.0,0.0,0.0,0.0,0.0,0.0,0.0,0.0,0.0,0.0,0.0,0.0,0.0,0.0,0.0,0.0,0.0,0.0,0.0,0.0,0.0,0.4667,0.4529,0.5027,0.7237,0.7303,0.6645,0.5309,0.5453,0.4951,0.0,0.0,0.0,0.0,0.0,0.0,0.0,0.0,0.0,0.0,0.0,0.0,0.0,0.0,0.0,0.0,0.0,0.0,0.0,0.0,0.0,0.0,0.0,0.0,0.0,0.0,0.0,0.0,0.0,0.0,0.0,0.0,0.0,0.0,0.0,0.0,0.0,0.0,0.0,0.0,0.0,0.0,0.0,0.0,0.0,0.0,0.0,0.0,0.0,0.0,0.0,0.0,0.0,0.0,0.0,0.0,0.0,0.0,0.0,0.0,0.0,0.0,0.0,0.0,0.0,0.0,0.0,0.0,0.0,0.0,0.0,0.0,0.0,0.0,0.0,0.0,0.0,0.0,0.0,0.0,0.0,0.0,0.0,0.0,0.0,0.0,0.0,0.0,0.0,0.0,0.0,0.0,0.0,0.0,0.0,0.0,0.0,0.0,0.0,0.0,0.0,0.0,0.0,0.037,0.2373,0.4203,0.5656,0.6439,0.6485,0.5625,0.5794,0.5253,0.3614,0.0,0.0,0.0,0.0,0.0,0.0,0.0,0.0,0.0,0.0,0.0,0.0,0.0,0.0,0.0,0.0,0.0,0.0,0.0,0.0,0.0,0.0,0.0,0.0,0.0,0.0,0.0,0.0,0.0,0.0,0.0,0.0,0.0,0.0,0.0,0.0,0.0,0.0,0.0,0.0,0.0,0.0,0.0,0.0,0.0,0.0,0.0,0.0,0.0,0.0,0.0,0.0,0.0,0.0,0.0,0.0,0.0,0.0,0.0,0.0,0.0,0.0,0.0,0.0,0.0,0.0,0.0,0.0,0.0,0.0,0.0,0.0,0.0,0.0,0.0,0.0,0.0,0.0,0.0,0.0,0.0,0.0,0.0,0.0,0.0,0.0,0.0,0.0,0.0,0.0,0.0,0.0,0.0,0.0,0.0,0.0,0.0,0.0,0.0,0.0,0.0,0.0,-0.2208,0.0885,0.3373,0.4464,0.5343,0.5598,0.4962,0.5493,0.5289,0.3955,0.0,0.0,0.0,0.0,0.0,0.0,0.0,0.0,0.0,0.0,0.0,0.0,0.0,0.0,0.0,0.0,0.0,0.0,0.0,0.0,0.0,0.0,0.0,0.0,0.0,0.0,0.0,0.0,0.0,0.0,0.0,0.0,0.0,0.0,0.0,0.0,0.0,0.0,0.0,0.0,0.0,0.0,0.0,0.0,0.0,0.0,0.0,0.0,0.0,0.0,0.0,0.0,0.0,0.0,0.0,0.0,0.0,0.0,0.0,0.0,0.0,0.0,0.0,0.0,0.0,0.0,0.0,0.0,0.0,0.0,0.0,0.0,0.0,0.0,0.0,0.0,0.0,0.0,0.0,0.0,0.0,0.0,0.0,0.0,0.0,0.0,0.0,0.0,0.0,0.0,0.0,0.0,0.0,0.0,0.0,0.0,0.0,0.0,0.0,0.0,0.0,0.0,-0.3499,-0.0085,0.2577,0.3485,0.4132,0.4319,0.3866,0.4896,0.5269,0.4523,0.0,0.0,0.0,0.0,0.0,0.0,0.0,0.0,0.0,0.0,0.0,0.0,0.0,0.0,0.0,0.0,0.0,0.0,0.0,0.0,0.0,0.0,0.0,0.0,0.0,0.0,0.0,0.0,0.0,0.0,0.0,0.0,0.0,0.0,0.0,0.0,0.0,0.0,0.0,0.0,0.0,0.0,0.0,0.0,0.0,0.0,0.0,0.0,0.0,0.0,0.0,0.0,0.0,0.0,0.0,0.0,0.0,0.0,0.0,0.0,-1.825,0.0,0.0,0.0,0.0,0.0,0.0,0.0,0.0,0.0,0.0,0.0,0.0,0.0,0.0,0.0,0.0,0.0,0.0,0.0,0.0,0.0,0.0,0.0,0.0,0.0,0.0,0.0,0.0,0.0,0.0,0.0,0.0,0.0,0.0,0.0,0.0,0.0,0.0,0.0,0.0,0.0,-0.4633,-0.0908,0.1755,0.1965,0.3084,0.4057,0.4671,0.5584,0.6037,0.5813,0.0,0.0,0.0,0.0,0.0,0.0,0.0,0.0,0.0,0.0,0.0,0.0,0.0,0.0,0.0,0.0,0.0,0.0,0.0,0.0,0.0,0.0,0.0,0.0,0.0,0.0,0.0,0.0,0.0,0.0,0.0,0.0,0.0,0.0,0.0,0.0,0.0,0.0,0.0,0.0,0.0,0.0,0.0,0.0,0.0,0.0,0.0,0.0,0.0,0.0,0.0,0.0,0.0,0.0,0.0,0.0,0.0,0.0,0.0,0.0,0.0,-1.8339,0.0,0.0,0.0,0.0,0.0,0.0,0.0,0.0,0.0,0.0,0.0,0.0,0.0,0.0,0.0,0.0,0.0,0.0,0.0,0.0,0.0,0.0,0.0,0.0,0.0,0.0,0.0,0.0,0.0,0.0,0.0,0.0,0.0,0.0,0.0,0.0,0.0,0.0,0.0,0.0,-0.3774,-0.0711,0.1608,0.2158,0.339,0.4495,0.5265,0.6344,0.6974,0.6965,0.7487,0.0,0.0,0.0,0.0,0.0,0.0,0.0,0.0,0.0,0.0,0.0,0.0,0.0,0.0,0.0,0.0,0.0,0.0,0.0,0.0,0.0,0.0,0.0,0.0,0.0,0.0,0.0,0.0,0.0,0.0,0.0,0.0,0.0,0.0,0.0,0.0,0.0,0.0,0.0,0.0,0.0,0.0,0.0,0.0,0.0,0.0,0.0,0.0,0.0,0.0,0.0,0.0,0.0,-1.6349,-1.6263,-1.62,-1.5484,-1.546,-1.6038,-1.6565,-1.7415,-1.8393,-1.8371,0.0,0.0,0.0,0.0,0.0,0.0,0.0,0.0,0.0,0.0,0.0,0.0,0.0,0.0,0.0,0.0,0.0,0.0,0.0,0.0,0.0,0.0,0.0,0.0,-0.8564,-0.8405,-1.0741,0.0,0.0,0.0,0.0,0.0,0.0,0.0,0.0,0.0,0.0,0.0,-0.2258,-0.0021,0.1889,0.2924,0.411,0.5159,0.5926,0.7061,0.7839,0.8086,0.8199,0.8033,0.0,0.0,0.0,0.0,0.0,0.0,0.0,0.0,0.0,0.0,0.0,0.0,0.0,0.0,0.0,0.0,0.0,0.0,0.0,0.0,0.0,0.0,0.0,0.0,0.0,0.0,0.0,0.0,0.0,0.0,0.0,0.0,-1.609,-1.7842,0.0,0.0,0.0,0.0,0.0,0.0,0.0,0.0,0.0,0.0,0.0,0.0,0.0,-1.6825,-1.646,-1.5882,-1.5501,-1.5321,-1.4613,-1.4154,-1.3923,-1.3821,-1.3715,-1.3663,-1.3921,0.0,-1.7089,-1.6525,0.0,0.0,0.0,0.0,0.0,0.0,0.0,0.0,0.0,0.0,0.0,0.0,0.0,0.0,0.0,0.0,0.0,0.0,0.0,0.0,0.0,0.0,-0.7586,-0.7486,-0.7338,-0.7237,0.0,-0.8584,-0.9657,-0.9702,-0.912,0.0,0.0,0.0,0.0,0.0,0.0,0.0,-0.1353,0.0822,0.2495,0.3097,0.4244,0.5577,0.7046,0.7612,0.8277,0.9225,0.9032,0.8517,0.7714,0.7185,0.0,0.0,0.0,0.0,0.0,0.0,0.0,0.0,0.0,0.0,0.0,0.0,0.0,0.0,0.0,0.0,0.0,0.0,0.0,0.0,0.0,0.0,0.0,0.0,0.0,0.0,0.0,0.0,0.0,-1.5446,-1.5808,-1.719,-1.6925,-1.7045,0.0,0.0,0.0,0.0,0.0,0.0,0.0,0.0,0.0,-1.5141,-1.5223,-1.4948,-1.426,-1.3956,-1.3786,-1.3683,-1.3328,-1.3109,-1.2989,-1.2989,-1.2953,-1.2862,-1.2953,-1.3616,-1.4707,-1.5343,-1.6146,-1.7001,0.0,0.0,0.0,0.0,-1.6884,-1.5893,-1.4873,-1.3509,-1.2093,-1.1486,0.0,0.0,0.0,0.0,0.0,0.0,0.0,0.0,0.0,0.0,-0.6879,-0.6274,-0.595,-0.5679,-0.5469,-0.5856,-0.6616,0.0,-0.7761,-0.7522,-0.7417,0.0,0.0,0.0,0.0,0.0,-0.0304,0.1343,0.2703,0.351,0.4911,0.6246,0.7419,0.8234,0.8941,0.9518,0.9216,0.8801,0.8328,0.7722,0.7173,0.0,0.0,0.0,0.0,0.0,0.0,0.0,0.0,0.0,0.0,0.0,0.0,0.0,0.0,0.0,0.0,0.0,0.0,0.0,0.0,0.0,0.0,0.0,0.0,0.0,0.0,0.0,0.0,-1.5407,-1.5236,-1.6298,-1.6047,-1.6104,0.0,0.0,0.0,0.0,0.0,0.0,-1.5073,-1.4828,-1.4396,-1.3727,-1.3637,-1.3219,-1.2478,-1.2463,-1.2463,-1.2463,-1.2463,-1.2443,-1.2364,-1.2305,-1.2225,-1.2164,-1.2245,-1.2353,-1.2606,-1.4131,-1.5174,-1.5811,-1.5923,-1.5953,-1.5971,-1.6137,-1.5645,-1.4737,-1.3566,-1.2124,-1.0699,-1.0256,-0.9874,-0.9736,-1.0602,0.0,0.0,0.0,0.0,-0.891,-0.736,-0.6641,-0.6118,-0.5229,-0.4755,-0.442,-0.4133,-0.4004,-0.441,0.0,-0.6014,-0.5724,-0.5449,0.0,0.0,0.0,0.0,-0.0052,0.0904,0.211,0.3244,0.4219,0.572,0.6969,0.7734,0.877,0.9466,0.9715,0.9409,0.916,0.8991,0.8551,0.8061,0.7483,0.0,0.0,0.0,0.0,0.0,0.0,0.0,0.0,0.0,0.0,0.0,0.0,0.0,0.0,0.0,0.0,0.0,0.0,0.0,0.0,0.0,0.0,0.0,0.0,0.0,0.0,0.0,0.0,0.0,-1.5247,-1.4803,0.0,0.0,0.0,0.0,-1.4859,-1.3828,-1.3371,-1.3677,-1.2776,-1.2392,-1.2678,-1.236,-1.2189,-1.2137,-1.2137,-1.2137,-1.2137,-1.2137,-1.1979,-1.1743,-1.1483,-1.1236,-1.1001,-1.1244,-1.1373,-1.1461,-1.2568,-1.3261,-1.3661,-1.3676,-1.3676,-1.3733,-1.4315,-1.434,-1.3828,-1.2248,-1.1397,-1.0663,-0.8606,-0.84,-0.8999,-0.9311,-0.9791,0.0,0.0,-0.8032,-0.7453,-0.5915,-0.5294,-0.4891,-0.4156,-0.396,-0.3807,-0.3278,-0.3651,-0.4111,0.0,-0.3316,-0.2777,-0.3191,0.0,-0.1033,-0.1024,0.013,0.1361,0.2371,0.3495,0.4519,0.5336,0.6581,0.7624,0.8304,0.9119,0.973,1.0052,0.9934,0.9737,0.9469,0.9799,0.9347,0.7991,0.8304,0.0,0.0,0.0,0.0,0.0,0.0,0.0,0.0,0.0,0.0,0.0,0.0,0.0,0.0,0.0,0.0,0.0,0.0,0.0,0.0,0.0,0.0,0.0,0.0,0.0,0.0,0.0,0.0,-1.4195,-1.3557,0.0,-1.3852,-1.3694,-1.3489,-1.3245,-1.2282,-1.1732,-1.1859,-1.1526,-1.1371,-1.1498,-1.1133,-1.124,-1.1823,-1.1597,-1.1756,-1.2345,-1.2062,-1.1686,-1.13,-1.1166,-1.089,-1.053,-1.0623,-1.0658,-1.0668,-1.0828,-1.1578,-1.2616,-1.2829,-1.2777,-1.263,-1.2845,-1.2643,-1.211,-1.1107,-1.0398,-0.9694,-0.8508,-0.7798,-0.7636,-0.8754,-0.8592,-0.7899,-0.7395,-0.6813,-0.6104,-0.4989,-0.4494,-0.4179,-0.3751,-0.3515,-0.3235,-0.2655,-0.2567,-0.2503,-0.2094,-0.2422,-0.2546,-0.1822,-0.0999,-0.0246,0.031,0.1056,0.1892,0.28,0.373,0.4527,0.5114,0.6403,0.7446,0.8039,0.8902,0.9523,0.9765,0.985,0.9839,0.9688,1.0249,1.0268,0.968,0.9852,0.931,0.0,0.0,0.0,0.0,0.0,0.0,0.0,0.0,0.0,0.0,0.0,0.0,0.0,0.0,0.0,0.0,0.0,0.0,0.0,0.0,0.0,0.0,0.0,0.0,0.0,0.0,-1.2793,-1.2871,-1.2381,-1.2085,-1.2178,-1.1883,-1.1612,-1.138,-1.0618,-1.03,-1.0546,-1.0439,-1.0543,-1.0952,-1.0457,-1.0545,-1.1328,-1.1066,-1.1232,-1.1874,-1.1539,-1.1219,-1.0929,-1.0638,-1.0321,-1.0015,-0.9725,-0.9587,-0.9561,-0.9319,-0.9842,-1.0813,-1.1531,-1.1647,-1.146,-1.146,-1.1189,-1.0676,-0.9949,-0.9165,-0.8449,-0.8113,-0.7287,-0.6701,-0.7944,-0.756,-0.6629,-0.6348,-0.5825,-0.5127,-0.4201,-0.3764,-0.3477,-0.3141,-0.2927,-0.2602,-0.1909,-0.1614,-0.1262,-0.0441,-0.1214,-0.1628,-0.0489,0.0129,0.0743,0.1489,0.2053,0.2678,0.354,0.426,0.4915,0.5483,0.6561,0.7461,0.8017,0.9047,0.9685,0.9694,1.0112,1.037,1.0366,1.0973,1.1251,1.1147,1.105,1.0127,0.8355,0.0,0.0,0.0,0.0,0.0,0.0,0.0,0.0,0.0,0.0,0.0,0.0,0.0,0.0,0.0,0.0,0.0,0.0,0.0,0.0,0.0,0.0,0.0,-1.2609,-1.2206,-1.1664,-1.1296,-1.1216,-1.0847,-0.9869,-1.0054,-0.9988,-0.9322,-0.8985,-0.9119,-0.9822,-0.9501,-0.9801,-1.0979,-1.0273,-1.0084,-1.0533,-1.0576,-1.0587,-1.0567,-1.0567,-1.0567,-1.0533,-0.9791,-0.947,-0.9395,-0.8545,-0.8153,-0.8132,-0.806,-0.8018,-0.8163,-0.9579,-1.0125,-1.0125,-1.0125,-0.9967,-0.9604,-0.8741,-0.7768,-0.6942,-0.7261,-0.6789,-0.6227,-0.6763,-0.667,-0.6223,-0.5363,-0.4933,-0.4488,-0.352,-0.3041,-0.2726,-0.2257,-0.2141,-0.1894,-0.104,-0.0863,-0.0507,0.0706,0.0465,0.0244,0.0839,0.1419,0.2005,0.2555,0.3124,0.0,0.4606,0.517,0.5793,0.6557,0.716,0.778,0.8383,0.9629,1.024,0.9948,1.076,1.1336,1.1483,1.1989,1.2242,1.2208,1.1801,1.0603,0.8566,0.0,0.0,0.0,0.0,0.0,0.0,0.0,0.0,0.0,0.0,0.0,0.0,0.0,0.0,0.0,0.0,0.0,0.0,0.0,0.0,0.0,0.0,-1.038,-1.1416,-1.0796,-1.0192,-1.0078,-0.9706,-0.9368,-0.9093,-0.9154,-0.9134,-0.8942,-0.886,-0.8838,-0.8967,-0.8861,-0.891,-0.9203,-0.9109,-0.9228,-0.9642,-0.9787,-0.9985,-1.0236,-0.9879,-0.9585,-0.9294,-0.8977,-0.8664,-0.8298,-0.7676,-0.7319,-0.7124,-0.6434,-0.6074,-0.6185,-0.8252,-0.8884,-0.8668,-0.8668,-0.8486,-0.8133,-0.7591,-0.703,-0.649,-0.631,-0.5551,-0.4829,-0.5154,-0.468,-0.3974,-0.3618,-0.3298,-0.294,-0.2355,-0.1768,-0.1276,-0.1148,-0.0773,-0.0336,0.0144,0.0139,0.0332,0.1353,0.1422,0.1419,0.1782,0.1981,0.2346,0.3132,0.3391,0.0,0.4854,0.5302,0.6027,0.7402,0.782,0.8307,0.9062,0.9685,1.0162,1.0457,1.0357,1.0599,1.1329,1.1503,1.1776,1.2186,1.2006,1.1298,0.0,0.0,0.0,0.0,0.0,0.0,0.0,0.0,0.0,0.0,0.0,0.0,0.0,0.0,0.0,0.0,0.0,0.0,0.0,0.0,0.0,0.0,-0.9961,-0.9098,-0.9319,-0.9161,-0.8959,-0.8824,-0.8356,-0.798,-0.7848,-0.793,-0.8,-0.8,-0.8126,-0.8252,-0.8354,-0.8181,-0.8255,-0.8574,-0.8477,-0.8612,-0.9026,-0.9176,-0.9323,-0.9524,-0.8961,-0.8613,-0.8373,-0.7855,-0.7477,-0.7209,-0.6513,-0.6172,-0.5992,-0.5199,-0.4847,0.0,0.0,0.0,0.0,0.0,-0.6766,-0.6563,-0.6323,-0.5986,-0.5568,-0.513,-0.4466,-0.3825,-0.3773,-0.3234,-0.2576,-0.2301,-0.1957,-0.1537,-0.1069,-0.0632,-0.0285,-0.0083,0.0241,0.0652,0.1273,0.1229,0.1397,0.248,0.2594,0.0,0.3006,0.2994,0.3199,0.4045,0.4268,0.4644,0.5492,0.5716,0.6266,0.7475,0.77,0.8096,0.891,0.9572,0.0,0.0,0.0,1.0637,1.1234,1.1572,0.0,0.0,0.0,0.0,0.0,0.0,0.0,0.0,1.0397,1.0287,0.0,0.0,0.0,0.0,0.0,0.0,0.0,0.0,0.0,0.0,0.0,0.0,0.0,0.0,0.0,0.0,-0.8747,-0.7844,-0.7114,-0.7617,-0.7949,-0.7636,-0.7235,-0.6885,-0.6634,-0.6804,-0.6949,-0.6949,-0.7161,-0.7459,-0.7801,0.0,0.0,0.0,0.0,-0.7945,-0.8292,-0.8382,-0.8382,-0.83,-0.7762,-0.75,-0.7486,-0.6507,-0.6067,-0.6055,-0.5143,-0.4726,-0.467,-0.4112,-0.3899,-0.3955,-0.4687,-0.5035,-0.5061,-0.496,-0.4941,-0.4992,-0.4928,0.0,0.0,-0.379,-0.3377,-0.2972,-0.2475,-0.2071,-0.1672,-0.1221,-0.079,-0.0325,0.0248,0.0429,0.0605,0.1061,0.1211,0.1483,0.2373,0.2359,0.2536,0.3729,0.379,0.383,0.4441,0.4228,0.4218,0.4998,0.5361,0.5757,0.6314,0.6421,0.6694,0.7351,0.0,0.0,0.8462,0.9417,0.984,0.952,1.0431,1.1,1.1049,1.1726,1.2175,1.2299,1.2343,1.2018,1.131,1.2134,1.1978,1.0971,1.1503,1.1088,0.0,0.0,0.0,0.0,0.0,0.0,0.0,0.0,0.0,0.0,0.0,0.0,0.0,0.0,0.0,-0.9494,-0.8371,-0.7605,-0.778,-0.7372,-0.7069,-0.7039,-0.6965,-0.7,-0.7217,-0.7279,-0.7311,-0.7311,-0.6917,-0.6649,-0.6618,-0.6135,-0.5901,-0.5967,-0.6289,-0.6289,-0.5979,-0.6379,-0.6379,-0.5936,0.0,0.0,-0.576,-0.5099,-0.4772,-0.4687,-0.3627,-0.3061,-0.286,-0.2327,-0.1992,-0.1979,-0.3192,-0.396,-0.4274,-0.3414,-0.3424,-0.3745,-0.3278,-0.3062,-0.2867,-0.2074,-0.1746,-0.1551,-0.0727,-0.0463,0.0,0.0166,0.0366,0.063,0.1438,0.1925,0.2311,0.273,0.3029,0.3282,0.3491,0.3347,0.3445,0.4301,0.4412,0.4753,0.5951,0.5088,0.4414,0.5018,0.5512,0.6097,0.6851,0.755,0.8167,0.8671,0.9058,0.927,0.9209,0.9587,0.9923,1.0107,1.0567,1.0605,1.0094,1.0271,1.0402,1.0412,1.1205,1.1538,1.1385,1.2245,1.219,1.1291,1.1361,1.1534,0.0,0.0,0.0,0.0,0.0,0.0,0.0,0.0,0.0,0.0,0.0,-1.024,0.0,0.0,-0.9032,-0.8698,-0.8095,-0.7447,-0.6926,-0.6485,-0.6389,-0.6784,-0.6684,-0.6506,-0.6345,-0.646,-0.6429,-0.6155,-0.5999,-0.5855,-0.5785,-0.5542,-0.5219,-0.4851,-0.5101,-0.4967,-0.4413,-0.4656,-0.4656,-0.4409,-0.4109,-0.3978,-0.3978,-0.3043,-0.2646,-0.2602,-0.1725,-0.1295,-0.116,-0.0832,-0.0641,-0.0598,-0.0941,-0.1599,-0.2189,-0.1408,-0.1271,-0.1514,-0.119,-0.1107,-0.0997,-0.0382,-0.0207,-0.0103,0.0469,0.0963,0.1392,0.163,0.2029,0.2455,0.2885,0.3188,0.3453,0.3861,0.4066,0.4294,0.4715,0.4604,0.4679,0.5423,0.541,0.5616,0.6637,0.6159,0.5839,0.6411,0.6842,0.7259,0.7653,0.8185,0.8684,0.9061,0.9563,0.9738,0.9416,0.9434,0.9549,0.9778,0.9959,0.994,0.9654,0.971,0.9786,0.9856,1.0385,1.0656,1.0655,1.1091,1.1277,1.125,1.11,1.1266,0.0,0.0,0.0,0.0,0.0,0.0,0.0,0.0,-1.023,-0.9877,-0.946,-0.9138,-0.9098,-0.8691,-0.8177,-0.7655,-0.7489,-0.6975,-0.5768,-0.5618,-0.5859,-0.644,-0.6184,-0.5769,-0.5358,-0.5505,-0.5454,-0.5004,-0.4947,-0.4952,-0.4952,-0.473,-0.4374,-0.3887,-0.3887,-0.3665,-0.3181,-0.3181,-0.3181,-0.3181,-0.2747,-0.2483,-0.2304,-0.1241,-0.0665,-0.0531,0.0088,0.0352,0.0353,0.0586,0.0673,0.0754,0.1475,0.1263,0.0555,0.0623,0.0583,0.0548,0.0775,0.0849,0.0921,0.1402,0.1532,0.1591,0.1915,0.2543,0.3124,0.3124,0.3642,0.4214,0.4312,0.434,0.4456,0.4859,0.4979,0.513,0.5807,0.5754,0.5799,0.6499,0.6411,0.6448,0.7216,0.7349,0.7466,0.7835,0.8164,0.8383,0.8449,0.8839,0.9171,0.926,0.9794,1.0023,0.9713,0.9568,0.955,0.9686,0.9555,0.9552,0.9717,0.9613,0.9609,0.9743,0.9955,1.0069,1.0074,1.0251,1.0674,1.1318,1.1142,1.1102,-1.2311,-1.1966,0.0,-1.0664,-1.021,-0.9746,0.0,0.0,-0.8425,-0.8802,-0.849,-0.8132,-0.809,-0.7592,-0.7001,-0.6477,-0.5953,-0.5551,-0.5358,-0.5353,-0.5386,-0.5445,-0.5219,-0.5101,-0.5297,-0.5338,-0.531,-0.5267,-0.4279,-0.3719,-0.3719,-0.2755,-0.2182,-0.2093,-0.2093,-0.2049,-0.2004,-0.2004,-0.2004,-0.2004,-0.1917,-0.1601,-0.1063,-0.04,0.0178,0.0752,0.1324,0.1591,0.1638,0.2188,0.2402,0.255,0.3619,0.395,0.3705,0.22,0.1318,0.0986,0.2082,0.2435,0.2586,0.352,0.3817,0.393,0.4346,0.4575,0.4649,0.4649,0.4777,0.4979,0.5394,0.5554,0.5714,0.6167,0.6297,0.6328,0.6388,0.6386,0.6512,0.6958,0.701,0.732,0.8404,0.8606,0.8435,0.7965,0.8343,0.8741,0.8989,0.9967,1.0436,0.9873,1.051,1.089,1.0668,1.0784,1.0937,1.108,1.0452,1.0201,1.046,0.9752,0.9403,0.9534,1.0306,1.0705,1.0695,1.1537,1.1981,1.2065,1.1995,1.1921,-0.9817,0.0,0.0,0.0,-0.8685,-0.8424,-0.7848,-0.7544,-0.7311,-0.7013,-0.6819,-0.662,-0.6409,-0.6198,-0.5942,0.0,-0.548,-0.5173,-0.4826,-0.4783,-0.4517,-0.3858,-0.367,-0.3784,-0.4196,-0.4243,-0.3982,-0.3325,-0.2799,-0.249,-0.249,-0.2049,-0.1652,-0.1297,-0.1297,-0.0938,-0.0223,-0.0223,-0.0045,0.0312,0.0312,0.0445,0.0711,0.1289,0.1912,0.249,0.3051,0.3272,0.3253,0.3916,0.4169,0.4173,0.4717,0.4914,0.4837,0.4119,0.3685,0.3517,0.4045,0.4226,0.425,0.462,0.4739,0.4758,0.4877,0.5066,0.5323,0.564,0.5917,0.6286,0.6784,0.6959,0.6999,0.7219,0.727,0.7231,0.7221,0.7393,0.7589,0.7772,0.7964,0.8322,0.9035,0.9155,0.9136,0.9083,0.9415,0.9726,0.9836,1.0609,1.1218,1.1444,1.1385,1.1438,1.1641,1.1309,1.1124,1.1192,1.0885,1.0805,1.1001,1.0651,1.0521,1.0671,1.1131,1.1374,1.1374,1.1893,1.2373,1.2834,1.2694,1.2859,-0.7924,0.0,0.0,-0.744,-0.7292,-0.7091,-0.6576,-0.6438,-0.627,-0.5699,-0.5549,-0.5495,-0.5348,-0.5173,0.0,-0.5043,-0.4918,-0.4609,-0.4037,-0.3949,-0.3551,-0.2583,-0.245,-0.2536,-0.2752,-0.2929,-0.2708,-0.1873,-0.1652,-0.1563,-0.1563,-0.125,-0.0848,-0.0403,-0.0223,0.0268,0.1163,0.1163,0.1385,0.1786,0.1786,0.1962,0.2313,0.3067,0.3646,0.41,0.4482,0.4573,0.4545,0.5242,0.5508,0.541,0.5668,0.5776,0.5776,0.5947,0.5733,0.5303,0.548,0.5567,0.554,0.5608,0.5634,0.5641,0.5707,0.5925,0.6265,0.6815,0.7233,0.7581,0.7959,0.8096,0.8156,0.8309,0.8213,0.8115,0.8218,0.8346,0.8449,0.8449,0.8634,0.8926,0.9316,0.9408,0.9502,0.9854,1.0185,1.0396,1.0396,1.0926,1.1586,1.23,1.1955,1.1873,1.234,1.192,1.1662,1.1722,1.1536,1.1489,1.161,1.1376,1.1309,1.1449,1.1807,1.2002,1.2002,1.2397,1.2902,1.3459,1.3323,1.3566,0.0,0.0,-0.6503,-0.6392,-0.604,-0.5663,-0.5247,-0.507,-0.5049,-0.5249,-0.5204,-0.5158,-0.5262,-0.4826,-0.443,-0.443,-0.4008,-0.3442,-0.2851,-0.276,-0.2539,-0.1917,-0.183,-0.1607,0.0,-0.1518,-0.1828,-0.1786,-0.1252,-0.094,-0.094,0.0179,0.0805,0.085,0.1429,0.1739,0.1784,0.1784,0.1784,0.1786,0.1786,0.2357,0.35,0.4687,0.5221,0.526,0.526,0.526,0.5298,0.5916,0.6179,0.6209,0.6725,0.6937,0.7021,0.7621,0.6755,0.5394,0.5959,0.6184,0.6264,0.6761,0.6923,0.7049,0.7634,0.7807,0.7923,0.848,0.8699,0.8754,0.8745,0.8872,0.9062,0.9524,0.9245,0.8982,0.9444,0.9153,0.8789,0.8789,0.8789,0.8926,0.9316,0.9408,0.9502,0.9854,1.0185,1.0396,1.0396,1.0926,1.1431,1.179,1.203,1.23,1.2559,1.2804,1.3054,1.3312,1.2652,1.229,1.2373,1.1557,1.1179,1.1295,1.2075,1.247,1.247,1.3401,1.3856,1.3892,1.3878,1.3896,0.0,0.0,-0.5043,-0.483,-0.4683,-0.4576,-0.45,-0.4474,-0.4438,-0.4423,-0.4468,-0.4444,-0.4319,-0.4123,-0.3894,-0.3474,-0.3176,-0.281,-0.2184,-0.2095,-0.1873,-0.1297,-0.1191,0.0,0.0,0.0,0.0,-0.0627,-0.0045,0.0313,0.0313,0.1072,0.1518,0.1518,0.1697,0.2006,0.2406,0.2406,0.2586,0.2993,0.3334,0.3727,0.4121,0.4952,0.5303,0.5308,0.5744,0.5916,0.5959,0.6513,0.6725,0.6768,0.6937,0.6979,0.7063,0.7663,0.753,0.7098,0.7675,0.7848,0.7889,0.8054,0.8144,0.8177,0.8357,0.8439,0.8561,0.9079,0.9479,0.982,1.018,1.0563,1.0805,1.0651,1.0487,1.031,1.0222,1.0232,1.0255,1.0255,1.0475,1.0692,1.085,1.0529,1.0266,1.0237,1.0508,1.0798,1.0973,1.1378,1.1747,1.2024,1.2164,1.2312,1.2572,1.2668,1.2852,1.3121,1.2888,1.2857,1.3055,1.2786,1.265,1.268,1.3057,1.3236,1.3236,1.3672,1.3913,1.3931,1.457,1.4806,0.0,-0.3577,-0.3501,-0.3315,-0.327,-0.3296,-0.3288,-0.3217,-0.3159,-0.3223,-0.3227,-0.3245,-0.3102,-0.3069,-0.2952,-0.2567,-0.2434,-0.2153,-0.1583,-0.1476,-0.1241,-0.0654,-0.0575,0.0,0.0,0.0,0.0,0.0375,0.0969,0.1281,0.1281,0.1799,0.214,0.214,0.2319,0.2632,0.3034,0.3205,0.3602,0.4228,0.4787,0.5043,0.5043,0.5647,0.6033,0.6246,0.6641,0.6894,0.714,0.7474,0.7599,0.7599,0.7599,0.7599,0.7682,0.8267,0.848,0.848,0.8643,0.8716,0.8716,0.8716,0.8716,0.8716,0.8918,0.8999,0.9079,0.9637,1.0128,1.058,1.0895,1.1394,1.1768,1.1617,1.1434,1.1283,1.1199,1.1207,1.1229,1.1229,1.1424,1.1588,1.1588,1.1274,1.0995,1.0858,1.1226,1.1479,1.1322,1.1579,1.1869,1.2024,1.206,1.2169,1.2435,1.2533,1.2706,1.2979,1.3085,1.3208,1.3396,1.3396,1.3396,1.3396,1.3477,1.3524,1.3524,1.3927,1.4113,1.4146,1.5057,1.5377,-0.2049,-0.2073,-0.1958,-0.1963,-0.1974,-0.1901,-0.1669,-0.1454,-0.1411,-0.1716,-0.1703,-0.1637,0.0,0.0,-0.1816,-0.1766,-0.1758,-0.1544,-0.0953,-0.0831,-0.058,0.0,0.0,0.0,0.0,0.0,0.0,0.1216,0.0,0.204,0.204,0.2509,0.2763,0.2763,0.335,0.367,0.3681,0.42,0.4767,0.5338,0.5955,0.6263,0.6306,0.6855,0.7405,0.8006,0.8006,0.8289,0.8774,0.8774,0.8766,0.8749,0.8749,0.8732,0.8756,0.9319,0.9518,0.9439,0.8984,0.8814,0.8797,0.8797,0.8797,0.8878,0.9399,0.9558,0.9637,1.0196,1.0687,1.1057,1.1084,1.1468,1.1993,1.2437,1.2162,1.1904,1.2344,1.204,1.1676,1.1676,1.1676,1.1663,1.1638,1.1668,1.1643,1.1648,1.2255,1.2397,1.1442,1.1667,1.1895,1.185,1.188,1.2018,1.2257,1.2506,1.278,1.3039,1.3325,1.3481,1.3498,1.3464,1.3464,1.3464,1.3464,1.3464,1.3464,1.4208,1.4545,1.4562,1.5327,1.5666,-0.1553,-0.1518,-0.1483,-0.1476,-0.1469,-0.1484,-0.1578,-0.1567,-0.1564,-0.1747,-0.1867,-0.1927,0.0,0.0,0.0,-0.1361,-0.122,0.0,-0.0303,0.025,0.0,0.0,0.0,0.1727,0.1883,0.2408,0.0,0.0,0.2702,0.2656,0.2656,0.3106,0.3353,0.3353,0.3917,0.4329,0.455,0.5339,0.5793,0.5987,0.6561,0.7115,0.7649,0.8165,0.8761,0.9379,0.9379,0.9468,0.96,0.96,0.9398,0.9156,0.9156,0.8948,0.8756,0.9319,0.9518,0.9563,1.014,1.0127,0.9883,0.9883,0.9883,0.9922,1.004,1.0079,1.0196,1.0687,1.1207,1.17,1.2018,1.2461,1.2873,1.2978,1.2914,1.2849,1.2985,1.2885,1.2785,1.2785,1.2785,1.268,1.2266,1.2411,1.252,1.2436,1.2789,1.2724,1.1732,1.2609,1.3092,1.2606,1.2987,1.3325,1.3398,1.3455,1.3605,1.3888,1.4181,1.4451,1.4655,1.4385,1.4225,1.4225,1.4225,1.4225,1.4225,1.4969,1.5325,1.5341,1.6289,1.673,-0.0744,-0.0737,-0.0713,-0.0717,-0.0739,-0.0772,-0.089,-0.0878,-0.0906,-0.1011,-0.1055,0.0,0.0,0.0,0.0,0.0,0.0,0.0,0.0951,0.1302,0.1606,0.0,0.1929,0.0,0.2709,0.3087,0.3456,0.0,0.3594,0.3494,0.3494,0.3989,0.428,0.428,0.4864,0.5421,0.5872,0.6336,0.6701,0.6942,0.729,0.7808,0.8486,0.8781,0.9428,1.0283,0.0,1.0418,1.0651,1.0651,1.0516,1.0317,1.0317,1.0191,0.9974,1.009,1.0412,1.0861,1.1216,1.1479,1.1556,1.0815,1.043,1.0283,1.0283,1.0428,1.0649,1.0943,1.1542,1.2174,1.2437,1.2838,1.3198,1.3198,1.3198,1.3198,1.3198,1.3198,1.3198,1.3198,1.3198,1.3098,1.2785,1.292,1.3097,1.3219,1.3552,1.353,1.2842,1.3362,1.366,1.3271,1.3585,1.381,1.381,1.392,1.4087,1.4405,1.4703,1.5011,1.53,1.5093,1.4986,1.4986,1.4986,1.4986,1.4986,1.5714,1.6069,1.6106,1.698,1.7405,0.0,0.0,0.0,0.0,0.0,0.0,0.0,0.0,0.0048,0.0101,0.0,0.0,0.0268,0.0,0.1387,0.1291,0.0,0.2399,0.2232,0.2282,0.2372,0.2334,0.2454,0.2788,0.3456,0.3511,0.3788,0.457,0.4452,0.4372,0.4351,0.4897,0.5287,0.5385,0.5995,0.665,0.7249,0.7334,0.7546,0.8001,0.8091,0.8509,0.915,0.9244,0.9935,1.1093,1.1093,1.1318,1.1783,1.1783,1.1743,1.1694,1.1694,1.1655,1.1557,1.1217,1.1684,1.2478,1.2272,1.2696,1.3163,1.1686,1.0945,1.0595,1.0595,1.0843,1.1132,1.1159,1.1836,1.2508,1.2579,1.2908,1.3198,1.3198,1.3198,1.3198,1.3198,1.3198,1.3198,1.3198,1.3198,1.3232,1.3301,1.3301,1.3459,1.4,1.4374,1.4525,1.4357,1.4166,1.4034,1.3944,1.4019,1.4079,1.4079,1.4263,1.4543,1.4829,1.5156,1.5456,1.5761,1.5741,1.5747,1.5747,1.5747,1.5747,1.5747,1.6495,1.6851,1.6868,1.7507,1.7833,0.0,0.0,0.0,0.0,0.0,0.0,0.0,0.0,0.0,0.0,0.0,0.1071,0.1707,0.0,0.0,0.2011,0.0,0.0,0.0,0.0,0.0,0.0,0.0,0.0,0.0,0.0,0.0,0.0,0.0,0.5218,0.5132,0.5694,0.6261,0.675,0.7104,0.7572,0.8191,0.8377,0.8547,0.8657,0.9197,0.9837,1.0482,1.1019,1.1731,1.2551,1.2551,0.0,1.2646,1.2646,1.2441,1.2109,1.2109,1.1885,1.163,1.2056,1.2331,1.2616,1.3452,1.3564,1.3354,1.3048,1.2622,1.2185,1.2185,1.1937,1.1737,1.2138,1.2354,1.2579,1.2978,1.3129,1.3198,1.3198,1.3198,1.3198,1.3198,1.3198,1.3198,1.3198,1.3198,1.3323,1.3702,1.3769,1.4019,1.4783,1.4937,1.5121,1.5447,1.5457,1.5244,1.4677,1.5111,1.5454,1.5454,1.551,1.5566,1.5606,1.6166,1.6522,1.6596,1.6537,1.6512,1.6512,1.6512,1.6512,1.6512,1.7253,1.7608,1.7608,1.7743,1.7927,0.0,0.0,0.0077,0.0402,0.0455,0.0562,0.0959,0.0,0.0,0.0,0.0,0.0,0.2114,0.0,0.0,0.0,0.0,0.0,0.0,0.0,0.0,0.0,0.0,0.0,0.0,0.0,0.0,0.0,0.0,0.6258,0.5789,0.6404,0.7162,0.7967,0.8101,0.8326,0.8604,0.8738,0.8956,0.9309,0.9666,1.0312,1.1316,1.1665,1.2187,1.2881,1.2881,1.2881,1.2881,1.2881,1.2754,1.2568,1.2568,1.2441,1.2309,1.2679,1.3161,1.3729,1.437,1.4766,1.5001,1.5001,1.4123,1.3014,1.3014,1.2991,1.3053,1.3293,1.3325,1.3384,1.3624,1.3446,1.3198,1.3198,1.3198,1.3198,1.3198,1.3198,1.3267,1.3514,1.3547,1.3715,1.4149,1.4214,1.4406,1.5013,1.5104,1.5255,1.5741,1.5799,1.5679,1.5364,1.5619,1.5799,1.5799,1.5799,1.5885,1.6067,1.6367,1.6607,1.6789,1.6943,1.7015,1.7015,1.7187,1.727,1.727,1.7642,1.7811,1.7811,1.7811,1.7861,0.0393,0.0395,0.0482,0.0955,0.1097,0.1272,0.1866,0.2012,0.0,0.0,0.0,0.0,0.2676,0.0,0.0,0.0,0.0,0.0,0.0,0.0,0.0,0.0,0.0,0.0,0.0,0.0,0.0,0.0,0.0,0.0,0.6577,0.7199,0.7903,0.8704,0.8778,0.8857,0.9008,0.9008,0.9361,1.0012,1.0167,1.0762,1.1814,1.1972,1.2344,1.2881,1.2881,1.2881,1.2881,1.2881,1.2968,1.3104,1.3104,1.3152,1.3294,1.3541,1.4171,1.4914,1.5222,1.5837,1.6522,1.6522,1.5332,1.3895,1.3895,1.4085,1.4268,1.4268,1.4259,1.4261,1.4261,1.3822,1.3348,1.3223,1.3198,1.3198,1.3198,1.3198,1.3288,1.3682,1.3735,1.3901,1.4406,1.4501,1.4658,1.5165,1.5255,1.5389,1.5741,1.5799,1.5799,1.5799,1.5799,1.5799,1.5799,1.5799,1.5898,1.6163,1.6328,1.6528,1.6789,1.7175,1.7415,1.7415,1.7658,1.7811,1.7811,1.7811,1.7811,1.7811,1.7811,1.7811,0.1657,0.165,0.1663,0.1712,0.1723,0.1771,0.1976,0.0,0.0,0.0,0.0,0.3511,0.4181,0.0,0.0,0.0,0.0,0.0,0.0,0.0,0.0,0.0,0.0,0.0,0.0,0.0,0.0,0.0,0.0,0.0,0.7758,0.8075,0.8333,0.8417,0.8671,0.9106,0.9718,0.9718,1.0064,1.0712,1.1316,1.1665,1.1814,1.2501,1.2822,1.2881,1.2881,1.2881,0.0,1.2881,1.3238,1.3732,1.3732,1.405,1.4606,1.5173,1.5407,1.5588,1.6188,1.6429,1.6522,1.6522,1.6023,1.5496,1.5496,1.5187,1.4826,1.4826,1.4839,1.484,1.484,1.4425,1.3883,1.3311,1.3198,1.3198,1.3198,1.3198,1.3198,1.3267,1.3267,1.3514,1.4374,1.4501,1.4783,1.561,1.5741,1.5741,1.5799,1.5799,1.5799,1.5799,1.5799,1.5799,1.5799,1.5799,1.5799,1.5856,1.6436,1.6763,1.6789,1.7408,1.7749,1.7749,1.7789,1.7811,1.7811,1.7811,1.7811,1.7811,1.7811,1.7811,0.1962,0.1919,0.199,0.2393,0.2422,0.2523,0.315,0.0,0.0,0.3905,0.407,0.4125,0.446,0.0,0.0,0.0,0.0,0.0,0.0,0.0,0.0,0.0,0.0,0.0,0.0,0.0,0.0,0.0,0.0,0.0,0.735,0.8203,0.8882,0.9213,0.9746,1.0115,1.0415,1.0415,1.0762,1.1416,1.1665,1.203,1.2452,1.2774,1.2881,1.2881,1.2881,1.2881,0.0,1.2881,1.3238,1.3815,1.3815,1.419,1.4789,1.5365,1.5588,1.5676,1.6281,1.6522,1.6522,1.6522,1.6371,1.6183,1.6183,1.6032,1.5856,1.5856,1.5618,1.5367,1.5367,1.4991,1.4437,1.3896,1.3973,1.4124,1.3797,1.3722,1.3887,1.4383,1.4193,1.4246,1.5134,1.5285,1.5389,1.5741,1.5799,1.5799,1.5799,1.5799,1.5799,1.5799,1.5799,1.5799,1.5799,1.6129,1.6353,1.6353,1.682,1.7101,1.7101,1.7354,1.7702,1.8152,1.836,1.8691,1.9106,1.8691,1.8691,1.9089,1.8217,1.8048,0.2599,0.2583,0.2702,0.3136,0.3163,0.3275,0.0,0.0,0.4158,0.4467,0.4519,0.4519,0.4519,0.4519,0.4519,0.0,0.0,0.0,0.0,0.0,0.0,0.0,0.0,0.0,0.0,0.0,0.0,0.0,0.0,0.0,0.7174,0.8258,0.9054,0.9323,1.0153,1.0706,1.0905,1.0905,1.1312,1.2129,1.2129,1.2393,1.2881,1.2881,1.2881,1.2881,1.2881,1.2881,0.0,1.2881,1.3238,1.3815,1.4003,1.4411,1.5062,1.5644,1.5768,1.5678,1.6131,1.617,1.6057,1.622,1.6271,1.6308,1.6471,1.6522,1.6522,1.6522,1.6233,1.5906,1.5731,1.5404,1.5016,1.4462,1.4739,1.4929,1.4235,1.4217,1.4404,1.4809,1.4564,1.4596,1.5448,1.558,1.5639,1.577,1.5799,1.5799,1.5799,1.5799,1.5799,1.5799,1.5799,1.5873,1.6039,1.6293,1.6653,1.7151,1.7387,1.7616,1.7934,1.8049,1.8336,1.8851,1.911,1.9486,2.0002,1.9486,1.9502,1.9968,1.892,1.8771,0.3873,0.39,0.3969,0.3969,0.3966,0.4006,0.0,0.4194,0.4234,0.4433,0.4519,0.4519,0.4519,0.4519,0.4519,0.0,0.0,0.0,0.0,0.0,0.0,0.0,0.0,0.0,0.0,0.0,0.0,0.0,0.0,0.0,0.7493,0.8381,0.8738,0.8342,0.9557,1.0525,1.119,1.1199,1.175,1.2881,1.2881,1.2881,1.2881,1.2881,1.2881,1.2881,1.2881,1.2881,0.0,1.2881,1.3238,1.3862,1.4468,1.505,1.5676,1.6281,1.6128,1.5706,1.5706,1.5341,1.5016,1.553,1.5706,1.5806,1.6358,1.6522,1.6522,1.6522,1.6509,1.6384,1.5831,1.5693,1.5542,1.5029,1.5297,1.5401,1.4345,1.4456,1.4623,1.402,1.3901,1.4149,1.4968,1.5104,1.5255,1.5741,1.5799,1.5799,1.5799,1.5799,1.5799,1.5799,1.5799,1.6024,1.6652,1.6144,1.6546,1.8284,1.807,1.8362,1.9431,1.9798,1.9985,1.9985,1.9985,1.9985,2.0002,1.9985,1.9985,2.0002,1.9985,2.0167,0.4158,0.4086,0.4123,0.4123,0.4046,0.4083,0.4338,0.4317,0.4237,0.4433,0.4519,0.4519,0.4519,0.4519,0.4553,0.4602,0.0,0.0,0.0,0.0,0.0,0.0,0.0,0.0,0.0,0.0,0.0,0.0,0.0,0.0,0.8194,0.9455,1.0076,0.9721,1.074,1.1643,1.2359,1.2368,1.2532,1.2881,1.2881,1.2881,1.2881,1.2881,1.2881,0.0,1.2881,1.2881,1.2929,1.3324,1.3873,1.4468,1.5096,1.5688,1.6238,1.6423,1.6409,1.6258,1.6258,1.6145,1.6019,1.6195,1.6007,1.5731,1.5906,1.622,1.6522,1.6522,1.6522,1.6471,1.6308,1.6258,1.612,1.5567,1.5589,1.5503,1.4803,1.4497,1.444,1.4796,1.455,1.4596,1.5418,1.558,1.5639,1.577,1.5799,1.5799,1.5799,1.6159,1.6413,1.6413,1.6832,1.698,1.6726,1.6936,1.7651,1.9013,1.9198,1.9538,2.0179,2.0056,2.0255,2.0805,2.0822,2.1075,2.1556,2.1075,2.0551,2.0002,2.0568,2.0994,0.0,0.4234,0.4328,0.4328,0.4256,0.4236,0.4474,0.4392,0.4355,0.4498,0.4519,0.4519,0.4519,0.4519,0.4549,0.4589,0.0,0.0,0.0,0.0,0.0,0.0,0.0,0.0,0.0,0.0,0.0,0.0,0.0,0.0,0.8648,0.9939,1.0712,1.0763,1.1529,1.2157,1.2637,1.2637,1.2715,1.2881,1.2881,1.2881,1.2881,1.2881,1.2881,1.2929,1.3152,1.3238,0.0,1.3873,1.4376,1.4732,1.5122,1.5543,1.5911,1.6123,1.607,1.5932,1.6132,1.607,1.5906,1.5906,1.5668,1.5379,1.5379,1.5768,1.6258,1.6459,1.6522,1.6522,1.6522,1.6522,1.6434,1.6082,1.616,1.6158,1.5633,1.5411,1.5451,1.5889,1.5707,1.5627,1.604,1.6338,1.6428,1.6174,1.6338,1.6503,1.6503,1.6831,1.7085,1.7085,1.7443,1.7623,1.7458,1.7593,1.8351,1.9891,1.9956,2.0321,2.1126,2.0975,2.1109,2.16,2.1617,2.1837,2.231,2.1837,2.1363,2.0863,2.1506,2.1876,0.0,0.4362,0.4519,0.4519,0.4519,0.4519,0.4519,0.4519,0.0,0.4519,0.4519,0.4519,0.0,0.0,0.0,0.0,0.0,0.0,0.0,0.0,0.0,0.0,0.0,0.0,0.0,0.0,0.0,0.0,0.0,0.0,0.9051,0.9986,1.0798,1.1471,1.1977,1.2229,1.2229,1.2229,1.248,1.2881,1.2881,1.2881,1.2881,1.2929,1.2968,0.0,1.36,1.3862,1.3909,1.4514,1.4744,1.479,1.4873,1.491,1.4995,1.5538,1.5429,1.5104,1.558,1.5417,1.5016,1.4928,1.4878,1.4853,1.4853,1.5203,1.5756,1.6308,1.6459,1.6471,1.6509,1.6522,1.6552,1.6552,1.6925,1.7182,1.6678,1.6902,1.7194,1.7121,1.7089,1.7034,1.6814,1.7294,1.7488,1.6876,1.7294,1.7697,1.7697,1.7727,1.7757,1.7757,1.7802,1.8071,1.8717,1.8179,1.8661,2.0814,2.0383,2.073,2.2175,2.2282,2.231,2.231,2.231,2.231,2.231,2.231,2.231,2.231,2.2563,2.2669,0.4423,0.0,0.4519,0.4519,0.4519,0.4519,0.0,0.0,0.0,0.0,0.0,0.0,0.0,0.0,0.0,0.0,0.0,0.0,0.0,0.0,0.0,0.0,0.0,0.0,0.0,0.0,0.0,0.0,0.0,0.9959,1.0784,1.1222,1.1795,1.2513,1.2676,1.2725,1.2725,1.2725,1.2783,1.2881,1.2881,1.2881,1.2929,1.3372,1.36,1.3637,1.4236,1.4468,1.4514,1.5141,1.541,1.5443,1.5917,1.6108,1.6108,1.6236,1.6245,1.6145,1.6283,1.6233,1.5994,1.518,1.4626,1.4286,1.4286,1.4664,1.5218,1.5731,1.5894,1.5982,1.6409,1.6795,1.7118,1.7118,1.721,1.726,1.716,1.6872,1.6761,1.7049,1.7089,1.718,1.7409,1.7593,1.7637,1.7488,1.7593,1.7697,1.7697,1.8164,1.8463,1.8463,1.8927,1.9286,1.9435,1.8852,1.9031,2.0403,2.0638,2.1082,2.1748,2.2106,2.231,2.231,2.231,2.231,2.231,2.231,2.231,2.231,2.236,2.25,0.4519,0.4519,0.4519,0.4519,0.4519,0.4519,0.0,0.0,0.0,0.0,0.0,0.0,0.0,0.0,0.0,0.0,0.0,0.0,0.0,0.0,0.0,0.0,0.0,0.0,0.0,0.0,0.0,0.0,0.0,1.0981,1.1556,1.2018,1.2501,1.2881,1.2881,1.2881,1.2881,1.2881,1.2881,1.2881,1.2881,1.3065,1.3324,1.3637,1.3956,1.4236,1.4824,1.5096,1.5141,1.5776,1.5996,1.6027,1.6106,1.6132,1.6132,1.6132,1.6132,1.6183,1.6421,1.6358,1.6045,1.5442,1.4916,1.4412,1.416,1.4286,1.474,1.5774,1.5883,1.5942,1.6961,1.7271,1.7353,1.7626,1.7661,1.7723,1.7989,1.7808,1.7727,1.8203,1.8288,1.8268,1.8157,1.8418,1.8523,1.8223,1.8433,1.8627,1.8627,1.8927,1.9151,1.9151,1.9465,1.969,1.969,1.9361,1.9496,2.0249,2.055,2.0943,2.1582,2.1823,2.2077,2.2282,2.231,2.231,2.231,2.231,2.231,2.231,2.231,2.2668,0.4519,0.4519,0.4519,0.4519,0.4519,0.4519,0.0,0.0,0.0,0.0,0.0,0.0,0.0,0.0,0.0,0.0,0.0,0.0,0.0,0.0,0.0,0.0,0.0,0.0,0.0,0.0,0.0,0.0,0.0,1.1864,1.1972,1.2559,1.2881,1.2881,1.2881,1.2881,1.2881,1.2881,1.2881,1.2881,1.2968,1.3334,1.3826,1.4003,1.4376,1.488,0.0,0.0,1.5776,1.6281,1.6522,1.6471,1.6007,1.5819,1.5819,1.5819,1.5819,1.5881,1.6358,1.6158,1.5693,1.5693,1.5329,1.4828,1.4349,1.4211,1.4524,1.6074,1.6047,1.5949,1.7571,1.7706,1.7544,1.8106,1.8302,1.8458,1.893,1.9006,1.9169,1.9603,1.969,1.951,1.8957,1.9316,1.9495,1.8942,1.9331,1.969,1.969,1.969,1.969,1.969,1.969,1.9711,1.9782,1.9782,1.998,2.0382,2.0416,2.0813,2.1658,2.1718,2.1899,2.2282,2.231,2.231,2.231,2.231,2.231,2.231,2.2468,2.3065,0.4519,0.4519,0.4519,0.4519,0.4519,0.0,0.0,0.0,0.0,0.0,0.0,0.0,0.0,0.0,0.0,0.0,0.0,0.0,0.0,0.0,0.0,0.0,0.0,0.0,0.0,0.0,0.0,0.0,0.0,1.208,1.2715,1.2822,1.2881,1.2881,1.2881,1.2881,1.2881,1.2881,1.2881,1.2929,1.342,1.3732,1.3815,1.4858,1.5365,1.5499,0.0,1.638,1.638,1.6479,1.6522,1.6509,1.6421,1.6396,1.6396,1.6396,1.6396,1.6409,1.6484,1.6158,1.5693,1.5693,1.5329,1.489,1.4815,1.479,1.5031,1.6179,1.5802,1.5386,1.6994,1.7706,1.8106,1.865,1.9132,1.9479,1.9566,1.9566,1.9603,1.969,1.969,1.966,1.9555,1.9615,1.966,1.9555,1.9615,1.969,1.969,1.969,1.969,1.969,1.969,1.9839,2.0193,2.0227,2.0382,2.0862,2.0894,2.1291,2.2152,2.218,2.2237,2.231,2.231,2.231,2.231,2.231,2.231,2.2327,2.3285,2.3831,0.4519,0.4519,0.4519,0.4519,0.0,0.0,0.0,0.0,0.0,0.0,0.0,0.0,0.0,0.0,0.0,0.0,0.0,0.0,0.0,0.0,0.0,0.0,0.0,0.0,0.0,0.0,0.0,0.0,0.0,0.0,1.2881,1.2881,1.2881,1.2881,1.2881,1.2881,1.2881,1.2881,1.2881,1.2881,1.32,1.3647,1.4329,1.4869,1.5466,1.6095,0.0,1.6522,1.6522,1.6522,1.6522,1.6522,1.6522,1.6522,1.6522,1.6522,1.6522,1.6522,1.6522,1.6358,1.6132,1.6132,1.5969,1.5706,1.5404,1.5541,1.5854,1.6375,1.5918,1.576,1.7675,1.8145,1.8302,1.9132,1.953,1.969,1.969,1.969,1.969,1.969,1.969,1.969,1.969,1.969,1.969,1.969,1.969,1.969,1.969,1.969,1.969,1.969,1.969,1.9874,2.028,2.0314,2.0516,2.0959,2.1213,2.1491,2.1899,2.218,2.2496,2.2885,2.2885,2.2885,2.2885,2.2885,2.2885,2.2902,2.3426,2.433,0.4519,0.4519,0.4508,0.0,0.0,0.0,0.0,0.0,0.0,0.0,0.0,0.0,0.0,0.0,0.0,0.0,0.0,0.0,0.0,0.0,0.0,0.0,0.0,0.0,0.0,0.0,0.0,0.0,0.0,0.0,1.2881,1.2881,1.2881,1.2881,1.2881,1.2881,1.2881,1.2881,1.2881,1.2881,1.3065,1.3658,1.4698,1.4835,1.5466,1.6522,1.6522,1.6522,1.6522,1.6522,1.6522,1.6522,1.6522,1.6522,1.6522,1.6522,1.6522,1.6522,1.6522,1.6522,1.6522,1.6522,1.6595,1.6591,1.6214,1.6466,1.6875,1.6875,1.6573,1.6678,1.8446,1.8612,1.8535,1.9479,1.969,1.969,1.969,1.969,1.969,1.969,1.969,1.969,1.969,1.969,1.969,1.969,1.969,1.969,1.969,1.969,1.969,1.969,1.9824,2.014,2.0725,2.0952,2.1256,2.1601,2.1718,2.1764,2.1764,2.2274,2.2835,2.3376,2.3562,2.3562,2.3393,2.3562,2.3562,2.341,2.3867,2.4982,0.4519,0.4519,0.0,0.0,0.0,0.0,0.0,0.0,0.0,0.0,0.0,0.0,0.0,0.0,0.0,0.0,0.0,0.0,0.0,0.0,0.0,0.0,0.0,0.0,0.0,0.0,0.0,0.0,0.0,0.0,1.2881,1.2881,1.2881,1.2881,1.2881,1.2881,1.2881,1.2881,1.2881,1.2929,1.3467,1.405,1.4709,1.5276,1.5908,1.6522,1.6522,1.6522,1.6522,1.6522,1.6522,1.6522,1.6522,1.6522,1.6522,1.6522,1.6522,1.6522,1.6522,1.6522,1.6522,1.6522,1.6837,1.7229,1.7177,1.7558,1.7997,1.7997,1.7958,1.809,1.8727,1.8855,1.9006,1.9566,1.969,1.969,1.969,1.969,1.969,1.969,1.969,1.969,1.969,1.969,1.969,1.969,1.969,1.969,1.969,1.969,1.969,1.969,2.0258,2.1046,2.2077,2.2946,2.3457,2.349,2.2725,2.2237,2.2237,2.2924,2.3342,2.3393,2.4052,2.4069,2.3393,2.41,2.4083,2.3427,2.5205,2.6073,0.4328,0.4395,0.0,0.0,0.0,0.0,0.0,0.0,0.0,0.0,0.0,0.0,0.0,0.0,0.0,0.0,0.0,0.0,0.0,0.0,0.0,0.0,0.0,0.0,0.0,0.0,0.0,0.0,0.0,0.0,1.2881,1.2881,1.2881,1.2881,1.2881,1.2881,1.2881,1.3286,1.3457,1.3457,1.3684,1.4097,1.4698,1.532,1.5908,1.6522,1.6522,1.6522,1.6522,1.6522,1.6522,1.6522,1.6522,1.6522,1.6522,1.6522,1.6522,1.6522,1.6522,1.6522,1.6552,1.6879,1.7105,1.7353,1.7706,1.8185,1.8612,1.8612,1.8855,1.9043,1.893,1.8893,1.9043,1.9566,1.969,1.969,1.969,1.969,1.969,1.969,1.969,1.969,1.969,1.969,1.969,1.969,1.969,1.969,1.969,1.969,1.9854,2.0288,2.1434,2.2368,2.2765,2.3637,2.4191,2.4191,2.386,2.3663,2.3663,2.3934,2.4289,2.4763,2.5033,2.505,2.478,2.505,2.5033,2.4797,2.5496,2.6193,0.4197,0.4355,0.0,0.0,0.0,0.0,0.0,0.0,0.0,0.0,0.0,0.0,0.0,0.0,0.0,0.0,0.0,0.0,0.0,0.0,0.0,0.0,0.0,0.0,0.0,0.0,0.0,0.0,0.0,0.0,0.0,1.2881,1.2881,1.2881,1.2881,1.2968,1.32,1.36,1.392,1.4097,1.4272,1.4595,1.5017,1.541,1.5908,1.6522,1.6522,1.6522,1.6522,1.6522,1.6522,1.6522,1.6522,1.6522,1.6522,1.6522,1.6522,1.6522,1.6522,1.6522,1.6552,1.6909,1.7271,1.7626,1.7987,1.8574,1.9169,1.9169,1.9406,1.9603,1.9244,1.9169,1.9244,1.9603,1.969,1.969,1.969,1.969,1.969,1.969,1.969,1.969,1.969,1.969,1.969,1.969,1.969,1.969,1.969,1.969,2.0092,2.1129,2.2409,2.3338,2.3743,2.4512,2.4976,2.4976,2.5105,2.4997,2.4523,2.4712,2.5067,2.5592,2.5828,2.5845,2.5609,2.5845,2.5828,2.5609,2.5845,2.6429,0.4197,0.4351,0.0,0.0,0.0,0.0,0.0,0.0,0.0,0.0,0.0,0.0,0.0,0.0,0.0,0.0,0.0,0.0,0.0,0.0,0.0,0.0,0.0,0.0,0.0,0.0,0.0,0.0,0.0,0.0,0.0,1.2881,1.2881,1.2881,1.2881,1.319,1.3768,1.3826,1.4097,1.4709,1.532,1.5588,1.5588,1.5588,1.5908,1.6522,1.6522,1.6522,1.6522,1.6522,1.6522,1.6522,1.6522,1.6522,1.6522,1.6522,1.6522,1.6522,1.6522,1.6522,1.6522,1.6522,1.7229,1.8106,1.8106,1.8855,1.969,1.969,1.969,1.969,1.969,1.969,1.969,1.969,1.969,1.969,1.969,1.969,1.969,1.969,1.969,1.969,1.969,1.969,1.969,1.969,1.969,1.969,1.969,1.9741,2.0403,2.2236,2.3018,2.3881,2.5118,2.5689,2.6013,2.6013,2.6436,2.6031,2.4591,2.522,2.5625,2.5625,2.6336,2.6336,2.5625,2.6336,2.6319,2.5642,2.6353,2.6939,0.4197,0.0,0.0,0.0,0.0,0.0,0.0,0.0,0.0,0.0,0.0,0.0,0.0,0.0,0.0,0.0,0.0,0.0,0.0,0.0,0.0,0.0,0.0,0.0,0.0,0.0,0.0,0.0,0.0,0.0,0.0,1.2881,1.2881,1.2881,1.2881,1.319,1.3768,1.4236,1.4744,1.532,1.5964,1.6008,1.5632,1.6051,1.6324,1.6522,1.6522,1.6522,1.6522,1.6522,1.6522,1.6522,1.6522,1.6522,1.6522,1.6522,1.6522,1.6522,1.6522,1.6522,1.6637,1.7394,1.7827,1.8263,1.9006,1.9442,1.969,1.969,1.969,1.969,1.969,1.969,1.969,1.969,1.969,1.969,1.969,1.969,1.969,1.969,1.969,1.969,1.969,1.969,1.969,1.969,1.969,1.9854,2.0348,2.0812,2.1628,2.2941,2.4029,2.4942,2.5709,2.621,2.647,2.647,2.6624,2.6488,2.6065,2.6251,2.637,2.637,2.659,2.659,2.637,2.659,2.659,2.6387,2.6901,2.7178,0.0,0.0,0.0,0.0,0.0,0.0,0.0,0.0,0.0,0.0,0.0,0.0,0.0,0.0,0.0,0.0,0.0,0.0,0.0,0.0,0.0,0.0,0.0,0.0,0.0,0.0,0.0,0.0,0.0,0.0,0.0,1.2881,1.2881,1.2881,1.2881,1.3286,1.4143,1.4514,1.5107,1.5952,1.6337,1.6293,1.5952,1.6324,1.6522,1.6522,1.6522,1.6522,1.6522,1.6522,1.6522,1.6522,1.6522,1.6522,1.6522,1.6522,1.6522,1.6522,1.6522,1.6522,1.6595,1.7229,1.7626,1.7947,1.8817,1.9207,1.9442,1.9639,1.969,1.969,1.969,1.969,1.969,1.969,1.969,1.969,1.969,1.969,1.969,1.969,1.969,1.969,1.969,1.969,1.969,1.969,1.9914,2.0348,2.1021,2.168,2.2525,2.3591,2.4614,2.5486,2.6227,2.6556,2.6691,2.6691,2.6691,2.6691,2.6691,2.6691,2.6691,2.6691,2.6691,2.6691,2.6691,2.6873,2.6939,2.6971,2.7348,2.7619,0.0,0.0,0.0,0.0,0.0,0.0,0.0,0.0,0.0,0.0,0.0,0.0,0.0,0.0,0.0,0.0,0.0,0.0,0.0,0.0,0.0,0.0,0.0,0.0,0.0,0.0,0.0,0.0,0.0,0.0,1.2881,1.2881,1.2881,1.2881,1.2881,1.3478,1.4709,1.4698,1.5287,1.6522,1.6522,1.6522,1.6522,1.6522,1.6522,1.6522,1.6522,1.6522,1.6522,1.6522,1.6522,1.6522,1.6522,1.6522,1.6522,1.6522,1.6522,1.6522,1.6522,1.6522,1.6595,1.6637,1.6993,1.7463,1.8066,1.8535,1.9006,1.9566,1.969,1.969,1.969,1.969,1.969,1.969,1.969,1.969,1.969,1.969,1.969,1.969,1.969,1.969,1.969,1.969,1.9705,1.9765,2.0318,2.0976,2.1695,2.2308,2.3102,2.4185,2.4836,2.5598,2.6607,2.6691,2.6691,2.6691,2.6691,2.6691,2.6691,2.6691,2.6691,2.6691,2.6691,2.6691,2.6691,2.7051,2.7255,2.7303,2.7707,2.8075,0.0,0.0,0.0,0.0,0.0,0.0,0.0,0.0,0.0,0.0,0.0,0.0,0.0,0.0,0.0,0.0,0.0,0.0,0.0,0.0,0.0,0.0,0.0,0.0,0.0,0.0,0.0,0.0,0.0,0.0,1.2881,1.2881,1.2881,1.2881,1.2881,1.3478,1.4709,1.4698,1.5287,1.6522,1.6522,1.6522,1.6522,1.6522,1.6522,1.6522,1.6522,1.6522,1.6522,1.6522,1.6522,1.6522,1.6522,1.6522,1.6522,1.6522,1.6522,1.6522,1.6522,1.6795,1.7188,1.7626,1.7827,1.8106,1.908,1.9132,1.9006,1.9566,1.969,1.969,1.969,1.969,1.969,1.969,1.969,1.969,1.969,1.969,1.969,1.969,1.969,1.969,1.969,1.969,1.9869,2.0423,2.0617,2.1141,2.2308,2.2634,2.3285,2.4818,2.5125,2.5598,2.6607,2.6691,2.6691,2.6691,2.6691,2.6691,2.6691,2.6691,2.6691,2.6691,2.6691,2.6691,2.6691,2.6791,2.7004,2.7303,2.7707,2.8075,0.0,0.0,0.0,0.0,0.0,0.0,0.0,0.0,0.0,0.0,0.0,0.0,0.0,0.0,0.0,0.0,0.0,0.0,0.0,0.0,0.0,0.0,0.0,0.0,0.0,0.0,0.0,0.0,0.0,1.2881,1.2881,1.2881,1.2881,1.2881,1.2881,1.3478,1.4709,1.4698,1.5287,1.6522,1.6522,1.6522,1.6522,1.6522,1.6522,1.6522,1.6522,1.6522,1.6522,1.6522,1.6522,1.6522,1.6522,1.6522,1.6522,1.6522,1.6522,1.6522,1.6522,1.668,1.6951,1.7229,1.7504,1.7867,1.8688,1.893,1.9006,1.9566,1.969,1.969,1.969,1.969,1.969,1.969,1.969,1.969,1.969,1.969,1.969,1.969,1.969,1.969,1.969,1.9959,2.0408,2.1081,2.1455,2.2009,2.2996,2.3353,2.3937,2.5057,2.5411,2.5872,2.6624,2.6691,2.6691,2.6691,2.6691,2.6691,2.6691,2.6691,2.6691,2.6691,2.6691,2.6691,2.6691,2.6906,2.721,2.7607,2.7964,2.836,0.0,0.0,0.0,0.0,0.0,0.0,0.0,0.0,0.0,0.0,0.0,0.0,0.0,0.0,0.0,0.0,0.0,0.0,0.0,0.0,0.0,0.0,0.0,0.0,0.0,0.0,0.0,0.0,0.0,1.2881,1.2881,1.2881,1.2881,1.2881,1.2881,1.3478,1.4709,1.4698,1.5287,1.6522,1.6522,1.6522,1.6522,1.6522,1.6522,1.6522,1.6522,1.6522,1.6522,1.6522,1.6522,1.6522,1.6522,1.6522,1.6522,1.6522,1.6522,1.6522,1.6522,1.6552,1.6637,1.6752,1.7076,1.7544,1.8185,1.8612,1.9006,1.9566,1.9765,1.9869,1.9869,1.9944,2.0004,1.9884,1.9944,2.0004,1.9884,1.9869,1.9899,2.0004,2.0034,2.0034,2.0034,2.0513,2.1111,2.1769,2.2323,2.2933,2.3634,2.4116,2.4632,2.5259,2.5726,2.6191,2.6657,2.6691,2.6691,2.6691,2.6691,2.6691,2.6691,2.6691,2.6691,2.6691,2.6691,2.6691,2.6691,2.7019,2.7439,2.7897,2.8183,2.8565,0.0,0.0,0.0,0.0,0.0,0.0,0.0,0.0,0.0,0.0,0.0,0.0,0.0,0.0,0.0,0.0,0.0,0.0,0.0,0.0,0.0,0.0,0.0,0.0,0.0,0.0,0.0,0.0,1.2881,1.2881,1.2881,1.2881,1.2881,1.2881,1.2881,1.3478,1.4709,1.4698,1.5287,1.6522,1.6522,1.6522,1.6522,1.6522,1.6522,1.6522,1.6522,1.6522,1.6522,1.6522,1.6522,1.6522,1.6522,1.6522,1.6522,1.6522,1.6522,1.6522,1.6522,1.6795,1.7271,1.7747,1.7947,1.8185,1.9169,1.9207,1.9006,1.9566,2.0124,2.0572,2.0572,2.1006,2.1291,2.0707,2.1006,2.1276,2.0692,2.0572,2.0752,2.1321,2.1425,2.1425,2.1425,2.15,2.1784,2.2484,2.2664,2.31,2.4148,2.4348,2.4776,2.5779,2.5977,2.6191,2.6657,2.6691,2.6691,2.6691,2.6691,2.6691,2.6691,2.6691,2.6691,2.6691,2.6691,2.6691,2.6691,2.6758,2.7178,2.7897,2.7954,2.8352,0.0,0.0,0.0,0.0,0.0,0.0,0.0,0.0,0.0,0.0,0.0,0.0,0.0,0.0,0.0,0.0,0.0,0.0,0.0,0.0,0.0,0.0,0.0,0.0,0.0,0.0,0.0,0.0,1.2881,1.2881,1.2881,1.3238,1.342,1.342,1.3742,1.434,1.5186,1.5186,1.5644,1.6522,1.6522,1.6522,1.6522,1.6522,1.6522,1.6522,1.6522,1.6522,1.6522,1.6522,1.6522,1.6522,1.6522,1.6522,1.6522,1.6522,1.6522,1.6552,1.6837,1.6909,1.6993,1.7827,1.8106,1.8263,1.9006,1.9281,1.9479,2.008,2.0483,2.0797,2.1171,2.1485,2.162,2.1335,2.1485,2.1724,2.1799,2.153,2.135,2.1635,2.1695,2.1695,2.1695,2.1994,2.2338,2.2679,2.3243,2.3836,2.4358,2.4934,2.5503,2.5961,2.6227,2.647,2.6691,2.6691,2.6691,2.6691,2.6691,2.6691,2.6691,2.6691,2.6691,2.6691,2.6691,2.6691,2.6691,2.6691,2.7115,2.7897,2.7897,2.8299,0.0,0.0,0.0,0.0,0.0,0.0,0.0,0.0,0.0,0.0,0.0,0.0,0.0,0.0,0.0,0.0,0.0,0.0,0.0,0.0,0.0,0.0,0.0,0.0,0.0,0.0,0.0,0.0,1.2881,1.2881,1.2881,1.3457,1.3815,1.3815,1.4376,1.5005,1.5576,1.5764,1.6051,1.6522,1.6522,1.6522,1.6522,1.6522,1.6522,1.6522,1.6522,1.6522,1.6522,1.6522,1.6522,1.6522,1.6522,1.6522,1.6522,1.6522,1.6522,1.6595,1.7118,1.7034,1.6879,1.7947,1.8302,1.8447,1.9132,1.9634,2.0094,2.0782,2.1081,2.1321,2.1814,2.2054,2.2143,2.1979,2.2069,2.2278,2.2649,2.2413,2.2173,2.2173,2.2173,2.2173,2.2173,2.2592,2.2906,2.2906,2.3769,2.4471,2.4592,2.5411,2.6049,2.6156,2.647,2.6691,2.6691,2.6691,2.6691,2.6691,2.6691,2.6691,2.6691,2.6691,2.6691,2.6691,2.6691,2.6691,2.6691,2.6691,2.7115,2.7897,2.7897,2.8299,0.0,0.0,0.0,0.0,0.0,0.0,0.0,0.0,0.0,0.0,0.0,0.0,0.0,0.0,0.0,0.0,0.0,0.0,0.0,0.0,0.0,0.0,0.0,0.0,0.0,0.0,0.0,0.0,1.2881,1.2881,1.2881,1.3457,1.3815,1.3815,1.4376,1.5005,1.5576,1.6194,1.6466,1.6522,1.6522,1.6522,1.6522,1.6522,1.6522,1.6522,1.6522,1.6522,1.6522,1.6522,1.6522,1.6522,1.6522,1.6522,1.6522,1.6522,1.6522,1.6595,1.7118,1.7271,1.7422,1.8496,1.8855,1.9084,2.0249,2.0624,2.0797,2.1455,2.2099,2.2619,2.2664,2.3056,2.3355,2.2757,2.3071,2.3355,2.2843,2.3116,2.3505,2.3505,2.3505,2.3505,2.3505,2.3535,2.355,2.355,2.4059,2.4592,2.5105,2.5652,2.6191,2.6624,2.6691,2.6691,2.6691,2.6691,2.6691,2.6691,2.6691,2.6691,2.6691,2.6691,2.6691,2.6691,2.6691,2.6691,2.6691,2.6691,2.7115,2.7897,2.7897,2.8299,0.0,0.0,0.0,0.0,0.0,0.0,0.0,0.0,0.0,0.0,0.0,0.0,0.0,0.0,0.0,0.0,0.0,0.0,0.0,0.0,0.0,0.0,0.0,0.0,0.0,0.0,0.0,0.0,0.0,1.3065,1.3467,1.4061,1.456,1.4949,1.5555,1.5964,1.6194,1.638,1.6522,1.6522,1.6522,1.6522,1.6522,1.6522,1.6522,1.6522,1.6522,1.6522,1.6522,1.6522,1.6522,1.6522,1.6522,1.6522,1.6522,1.6522,1.6522,1.6637,1.7504,1.7585,1.7544,1.8968,1.9461,1.9614,1.9946,2.0662,2.1395,2.1635,2.2173,2.2813,2.3161,2.343,2.355,2.3325,2.343,2.3535,2.331,2.3445,2.3595,2.3595,2.3595,2.3595,2.3595,2.3595,2.3595,2.3595,2.4348,2.4973,2.5182,2.5944,2.6505,2.6691,2.6691,2.6691,2.6691,2.6691,2.6691,2.6691,2.6691,2.6691,2.6691,2.6691,2.6691,2.6691,2.6691,2.6691,2.6691,2.6691,2.7115,2.7897,2.7897,2.8299,0.0,0.0,0.0,0.0,0.0,0.0,0.0,0.0,0.0,0.0,0.0,0.0,0.0,0.0,0.0,0.0,0.0,0.0,0.0,0.0,0.0,0.0,0.0,0.0,0.0,0.0,0.0,0.0,0.0,0.0,1.405,1.4652,1.5287,1.5864,1.6281,1.6522,1.6522,1.6522,1.6522,1.6522,1.6522,1.6522,1.6522,1.6522,1.6522,1.6522,1.6522,1.6522,1.6522,1.6522,1.6522,1.6522,1.6522,1.6522,1.6522,1.6522,1.6595,1.6909,1.7787,1.7987,1.8027,1.9281,1.9901,2.0128,2.0042,2.0961,2.2024,2.2024,2.2488,2.3071,2.349,2.3595,2.3595,2.3595,2.3595,2.3595,2.3595,2.3595,2.3595,2.3595,2.3595,2.3595,2.3595,2.3595,2.3595,2.3595,2.4496,2.5221,2.5221,2.6087,2.6691,2.6691,2.6691,2.6691,2.6691,2.6691,2.6691,2.6691,2.6691,2.6691,2.6691,2.6691,2.6691,2.6691,2.6691,2.6691,2.6691,2.6691,2.7115,2.7897,2.7897,2.8425,0.0,0.0,0.0,0.0,0.0,0.0,0.0,0.0,0.0,0.0,0.0,0.0,0.0,0.0,0.0,0.0,0.0,0.0,0.0,0.0,0.0,0.0,0.0,0.0,0.0,0.0,0.0,0.0,1.3815,1.4097,1.4698,1.5276,1.5908,1.6466,1.6522,1.6522,1.6522,1.6522,1.6522,1.6522,1.6522,1.6522,1.6522,1.6522,1.6522,1.6522,1.6522,1.6522,1.6522,1.6522,1.6522,1.6522,1.6522,1.6522,1.6522,1.6522,1.6837,1.7394,1.7907,1.8458,1.9006,1.953,2.0154,2.0722,2.0722,2.1635,2.2724,2.2724,2.3116,2.3595,2.3595,2.3595,2.3595,2.3595,2.3595,2.3595,2.3595,2.3595,2.3595,2.3595,2.3595,2.3595,2.3595,2.3595,2.3595,2.3638,2.4511,2.5221,2.5221,2.6087,2.6691,2.6691,2.6691,2.6691,2.6691,2.6691,2.6691,2.6691,2.6691,2.6691,2.6691,2.6691,2.6691,2.6691,2.6725,2.6725,2.6725,2.6691,2.7115,2.7897,2.7926,2.8748,0.8804,0.0,0.0,0.0,0.0,0.0,0.0,0.0,0.0,0.0,0.0,0.0,0.0,0.0,0.0,0.0,0.0,0.0,0.0,0.0,0.0,0.0,0.0,0.0,0.0,0.0,0.0,0.0,1.4468,1.4687,1.532,1.5908,1.6324,1.6466,1.6522,1.6522,1.6522,1.6522,1.6522,1.6522,1.6522,1.6522,1.6522,1.6522,1.6522,1.6522,1.6522,1.6522,1.6522,1.6522,1.6522,1.6522,1.6522,1.6522,1.6522,1.6522,1.6837,1.7394,1.7907,1.8458,1.9006,1.953,2.0154,2.0722,2.0722,2.1635,2.2724,2.2724,2.3116,2.3595,2.3595,2.3595,2.3595,2.3595,2.3595,2.3595,2.3595,2.3595,2.3595,2.3595,2.3595,2.3595,2.3595,2.3595,2.3709,2.4116,2.4736,2.5335,2.5726,2.6332,2.6691,2.6691,2.6691,2.6691,2.6691,2.6691,2.6691,2.6691,2.6691,2.6691,2.6691,2.6691,2.6691,2.6691,2.7004,2.7147,2.7147,2.6841,2.7115,2.7926,2.8456,2.8901,0.0,0.0,0.0,0.0,0.0,0.0,0.0,0.0,0.0,0.0,0.0,0.0,0.0,0.0,0.0,0.0,0.0,0.0,0.0,0.0,0.0,0.0,0.0,0.0,0.0,1.405,1.4422,1.5005,1.5062,1.5332,1.5952,1.6293,1.6522,1.6522,1.6522,1.6522,1.6522,1.6522,1.6522,1.6522,1.6522,1.6522,1.6522,1.6522,1.6522,1.6522,1.6522,1.6522,1.6522,1.6522,1.6522,1.6522,1.6522,1.6522,1.6522,1.6522,1.6993,1.7666,1.7987,1.8612,1.9281,1.9603,2.0154,2.0722,2.0722,2.1635,2.2724,2.2724,2.3116,2.3595,2.3595,2.3595,2.3595,2.3595,2.3595,2.3595,2.3595,2.3595,2.3595,2.3595,2.3595,2.3595,2.3595,2.3595,2.3794,2.4307,2.4871,2.5373,2.5924,2.6401,2.6691,2.6691,2.6691,2.6691,2.6691,2.6691,2.6691,2.6691,2.6691,2.6691,2.6691,2.6691,2.6691,2.6691,2.7083,2.7378,2.753,2.7317,2.7512,2.8129,2.8725,2.8994,0.0,0.0,0.0,0.0,0.0,0.0,1.3036,1.3437,0.0,0.0,0.0,0.0,0.0,0.0,0.0,0.0,0.0,0.0,0.0,0.0,0.0,0.0,0.0,0.0,1.4003,1.4514,1.5062,1.5632,1.572,1.5908,1.6466,1.6522,1.6522,1.6522,1.6522,1.6522,1.6522,1.6522,1.6522,1.6522,1.6522,1.6522,1.6522,1.6522,1.6522,1.6522,1.6522,1.6522,1.6522,1.6522,1.6522,1.6522,1.6522,1.6522,1.6522,1.6522,1.7188,1.8106,1.8106,1.8817,1.969,1.969,2.0154,2.0722,2.0797,2.1695,2.2724,2.2798,2.3176,2.3595,2.3595,2.3595,2.3595,2.3595,2.3595,2.3595,2.3595,2.3595,2.3595,2.3595,2.3595,2.3595,2.3595,2.3595,2.3794,2.4389,2.4894,2.5411,2.5997,2.6436,2.6691,2.6691,2.6691,2.6691,2.6691,2.6691,2.6691,2.6691,2.6691,2.6691,2.6691,2.6691,2.6725,2.6758,2.721,2.7619,2.8037,2.7982,2.8102,2.842,2.8797,2.8994,0.9465,0.9614,0.9917,0.0,0.0,0.0,0.0,1.2998,0.0,0.0,0.0,0.0,0.0,0.0,0.0,0.0,0.0,0.0,0.0,0.0,0.0,0.0,0.0,0.0,1.5174,1.5365,1.5676,1.6281,1.6337,1.638,1.6466,1.6522,1.6522,1.6522,1.6522,1.6522,1.6522,1.6522,1.6522,1.6522,1.6522,1.6522,1.6522,1.6522,1.6522,1.6522,1.6522,1.6522,1.6522,1.6522,1.6522,1.6522,1.6522,1.6522,1.6522,1.6522,1.7188,1.8106,1.8106,1.8817,1.969,1.969,2.0154,2.0812,2.1335,2.2054,2.2787,2.3281,2.3505,2.3595,2.3595,2.3595,2.3595,2.3595,2.3595,2.3595,2.3595,2.3595,2.3595,2.3595,2.3595,2.3595,2.3595,2.3595,2.3921,2.4894,2.5128,2.5524,2.6436,2.6657,2.6691,2.6691,2.6691,2.6691,2.6691,2.6691,2.6691,2.6691,2.6691,2.6691,2.6691,2.6691,2.6841,2.7178,2.7844,2.8368,2.8791,2.8464,2.8342,2.842,2.8797,2.8994,0.9614,0.9814,1.0115,1.1466,0.0,0.0,0.0,0.0,0.0,0.0,0.0,0.0,0.0,0.0,0.0,0.0,0.0,0.0,0.0,0.0,0.0,0.0,0.0,0.0,1.6407,1.6478,1.6502,1.6491,1.6522,1.6522,1.6522,1.6522,1.6522,1.6522,1.6522,1.6522,1.6522,1.6522,1.6522,1.6522,1.6522,1.6522,1.6522,1.6522,1.6522,1.6522,1.6522,1.6522,1.6522,1.6522,1.6522,1.6522,1.6522,1.6522,1.6522,1.6522,1.6993,1.7747,1.8027,1.8612,1.9369,1.9603,1.9914,2.0393,2.1395,2.2368,2.3206,2.3505,2.3595,2.3595,2.3595,2.3595,2.3595,2.3595,2.3595,2.3595,2.3595,2.3595,2.3595,2.3595,2.3595,2.3595,2.3595,2.3595,2.3948,2.5028,2.5221,2.5561,2.6573,2.6691,2.6691,2.6691,2.6691,2.6691,2.6691,2.6691,2.6691,2.6691,2.6691,2.6691,2.6691,2.6691,2.6987,2.7607,2.8112,2.859,2.8994,2.8797,2.8682,2.8707,2.8905,2.8994,0.0,0.0,0.0,0.0,0.0,1.2187,0.0,0.0,0.0,0.0,0.0,0.0,0.0,0.0,0.0,0.0,0.0,0.0,0.0,0.0,0.0,0.0,0.0,0.0,1.7436,1.7446,1.7187,1.6722,1.6584,1.6609,1.6835,1.6635,1.6572,1.6685,1.6572,1.6522,1.6522,1.6522,1.6522,1.6522,1.6522,1.6522,1.6522,1.6522,1.6522,1.6522,1.6522,1.6522,1.6522,1.6522,1.6522,1.6522,1.6522,1.6522,1.6522,1.6522,1.6837,1.7394,1.7907,1.8458,1.9006,1.953,1.9854,2.0318,2.1665,2.2772,2.3595,2.3595,2.3595,2.3595,2.3595,2.3595,2.3595,2.3595,2.3595,2.3595,2.3595,2.3595,2.3595,2.3595,2.3595,2.3595,2.3595,2.3595,2.3948,2.5028,2.5221,2.5561,2.6573,2.6691,2.6691,2.6691,2.6691,2.6691,2.6691,2.6691,2.6691,2.6691,2.6691,2.6691,2.6691,2.6841,2.7255,2.7964,2.8342,2.8682,2.8994,2.8994,2.8994,2.8994,2.8994,2.8994,0.0,0.0,0.0,0.0,1.2295,0.0,0.0,0.0,0.0,0.0,0.0,0.0,0.0,0.0,0.0,0.0,0.0,0.0,0.0,0.0,0.0,0.0,0.0,0.0,0.0,1.7656,1.735,1.7287,1.681,1.6961,1.7953,1.7061,1.676,1.7262,1.6785,1.6522,1.6522,1.6522,1.6522,1.6522,1.6522,1.6522,1.6522,1.6522,1.6522,1.6522,1.6522,1.6522,1.6522,1.6522,1.6522,1.6522,1.6522,1.6522,1.6522,1.6522,1.6837,1.7394,1.7907,1.8458,1.9006,1.953,2.0483,2.171,2.2996,2.349,2.3595,2.3595,2.3595,2.3595,2.3595,2.3595,2.3595,2.3595,2.3595,2.3595,2.3595,2.3595,2.3595,2.3595,2.3595,2.3595,2.3595,2.3595,2.3948,2.5028,2.5221,2.5561,2.6573,2.6691,2.6691,2.6691,2.6691,2.6691,2.6691,2.6691,2.6691,2.6691,2.6691,2.6691,2.6691,2.7378,2.7936,2.8342,2.8725,2.8952,2.8994,2.8994,2.8994,2.8994,2.8994,2.8994,0.0,0.0,0.0,0.0,0.0,0.0,0.0,0.0,1.2881,0.0,0.0,0.0,0.0,0.0,0.0,0.0,0.0,0.0,0.0,0.0,0.0,0.0,0.0,0.0,0.0,0.0,0.0,1.7852,1.7338,1.7375,1.8166,1.7451,1.7137,1.7375,1.6823,1.6522,1.6522,1.6522,1.6522,1.6522,1.6522,1.6522,1.6522,1.6522,1.6522,1.6522,1.6522,1.6522,1.6522,1.6522,1.6522,1.6522,1.6522,1.6522,1.6522,1.6522,1.6837,1.7394,1.7907,1.8458,1.904,1.999,2.0917,2.1859,2.2787,2.331,2.3595,2.3595,2.3595,2.3595,2.3595,2.3595,2.3595,2.3595,2.3595,2.3595,2.3595,2.3595,2.3595,2.3595,2.3595,2.3595,2.3595,2.3879,2.4307,2.5105,2.5449,2.5908,2.6607,2.6691,2.6691,2.6691,2.6691,2.6691,2.6691,2.6691,2.6691,2.6691,2.6691,2.6808,2.7019,2.7607,2.8047,2.8394,2.8815,2.8994,2.8994,2.8994,2.8994,2.8994,2.8994,2.8994,0.9708,0.0,0.0,0.0,0.0,0.0,0.0,0.0,0.0,0.0,0.0,0.0,0.0,0.0,0.0,0.0,0.0,0.0,0.0,0.0,0.0,0.0,0.0,0.0,0.0,0.0,0.0,1.8204,1.7689,1.7752,1.8593,1.799,1.7601,1.7601,1.7049,1.6685,1.6522,1.6522,1.6522,1.6522,1.6522,1.6522,1.6522,1.6522,1.6522,1.6522,1.6522,1.6522,1.6522,1.6522,1.6595,1.671,1.671,1.6795,1.6909,1.6752,1.6951,1.7394,1.8066,1.8778,1.9549,2.0638,2.1425,2.2084,2.2742,2.3236,2.3595,2.3595,2.3595,2.3595,2.3595,2.3595,2.3595,2.3595,2.3595,2.3595,2.3595,2.3595,2.3595,2.3595,2.3595,2.3595,2.3595,2.3921,2.443,2.5105,2.5524,2.5997,2.6624,2.6691,2.6691,2.6691,2.6691,2.6691,2.6691,2.6691,2.6691,2.6691,2.6691,2.6873,2.7286,2.7695,2.8047,2.8394,2.8815,2.8994,2.8994,2.8994,2.9104,2.9347,2.9347,2.9195,0.0,0.0,0.0,1.1715,0.0,0.0,0.0,0.0,1.3065,0.0,0.0,0.0,0.0,0.0,0.0,0.0,0.0,0.0,0.0,0.0,0.0,0.0,0.0,0.0,0.0,0.0,1.8204,0.0,1.7689,1.8078,1.966,1.8756,1.8179,1.8179,1.7639,1.7087,1.6522,1.6522,1.6522,1.6522,1.6522,1.6522,1.6522,1.6522,1.6522,1.6522,1.6522,1.6522,1.6522,1.6522,1.6795,1.7271,1.7271,1.7585,1.7987,1.7463,1.7312,1.7463,1.8496,1.9631,2.0759,2.144,2.2113,2.2798,2.3385,2.358,2.3595,2.3595,2.3595,2.3595,2.3595,2.3595,2.3595,2.3595,2.3595,2.3595,2.3595,2.3595,2.3595,2.3595,2.3595,2.3595,2.3595,2.3595,2.3991,2.5028,2.5221,2.5598,2.6573,2.6691,2.6691,2.6691,2.6691,2.6691,2.6691,2.6691,2.6691,2.6691,2.6691,2.6873,2.7286,2.7695,2.8047,2.8394,2.8815,2.8994,2.8994,2.8994,2.9402,3.0173,3.0173,2.9751,0.0,0.0,1.1217,1.1352,0.0,0.0,0.0,0.0,0.0,0.0,0.0,0.0,0.0,0.0,0.0,0.0,0.0,0.0,0.0,0.0,0.0,0.0,0.0,0.0,0.0,0.0,0.0,1.8694,1.8242,1.848,1.9736,1.9133,1.8744,1.8744,1.7852,1.7287,1.7087,1.671,1.6522,1.6522,1.6522,1.6522,1.6522,1.6522,1.6522,1.6522,1.6522,1.6522,1.6522,1.6522,1.6837,1.7312,1.7312,1.7626,1.8066,1.7907,1.8066,1.8514,1.968,2.0362,2.0902,2.1994,2.2544,2.2787,2.3415,2.3595,2.3595,2.3595,2.3595,2.3595,2.3595,2.3595,2.3595,2.3595,2.3595,2.3595,2.3595,2.3595,2.3595,2.3595,2.3595,2.3595,2.3595,2.3879,2.4389,2.5105,2.5486,2.5944,2.6624,2.6691,2.6691,2.6691,2.6691,2.6691,2.6691,2.6691,2.6691,2.6691,2.6691,2.6873,2.7286,2.7695,2.8047,2.8394,2.8815,2.8994,2.8994,2.8994,2.9122,2.9439,3.0503,3.0558,0.9122,1.0131,0.0,1.1324,1.1901,0.0,1.2607,0.0,0.0,0.0,0.0,0.0,0.0,0.0,0.0,0.0,0.0,0.0,0.0,0.0,0.0,0.0,0.0,0.0,0.0,0.0,1.784,1.8895,1.8518,1.8681,0.0,1.9484,1.9133,1.8744,1.8041,1.7488,1.7074,1.671,1.6522,1.6522,1.6522,1.6522,1.6522,1.6522,1.6522,1.6522,1.6522,1.6522,1.6522,1.6522,1.6909,1.7585,1.7585,1.8027,1.865,1.8458,1.8884,1.9669,2.0444,2.1021,2.1545,2.2398,2.2873,2.3071,2.3475,2.3595,2.3595,2.3595,2.3595,2.3595,2.3595,2.3595,2.3595,2.3595,2.3595,2.3595,2.3595,2.3595,2.3595,2.3595,2.3595,2.3595,2.3595,2.4032,2.4592,2.5144,2.5652,2.6191,2.6657,2.6691,2.6691,2.6691,2.6691,2.6691,2.6691,2.6691,2.6691,2.6691,2.6691,2.6825,2.7083,2.7589,2.7992,2.821,2.8725,2.8994,2.8994,2.8994,2.914,2.9457,3.021,3.0411]},{"header":{"parameterUnit":"m.s-1","parameterCategory":1,"la1":30.6,"la2":29.2853,"lo1":-89.7004,"lo2":-87.6739,"dy":0.0162,"dx":0.0183,"nx":112,"ny":82,"refTime":"2026-02-20T12:00:00:Z","depth":0,"parameterNumber":3,"parameterNumberName":"V-component_of_WINDS"},"data":[0.0,0.0,0.0,0.0,0.0,0.0,0.0,0.0,0.0,0.0,0.0,0.0,0.0,0.0,0.0,0.0,0.0,0.0,0.0,0.0,0.0,0.0,0.0,0.0,0.0,0.0,0.0,0.0,0.0,0.0,0.0,0.0,0.0,0.0,0.0,0.0,0.0,0.0,0.0,0.0,0.0,0.0,0.0,0.0,0.0,0.0,0.0,0.0,0.0,0.0,0.0,0.0,0.0,0.0,0.0,0.0,0.0,0.0,0.0,0.0,0.0,0.0,0.0,0.0,0.0,0.0,0.0,0.0,0.0,0.0,0.0,0.0,0.0,0.0,0.0,0.0,0.0,0.0,0.0,0.0,0.0,0.0,0.0,0.0,0.0,0.0,0.0,0.0,0.0,0.0,0.0,-1.2765,-1.1211,-1.0183,-1.0132,-1.0182,-1.0946,-1.2687,0.0,0.0,0.0,0.0,0.0,0.0,0.0,0.0,0.0,0.0,0.0,0.0,0.0,0.0,0.0,0.0,0.0,0.0,0.0,0.0,0.0,0.0,0.0,0.0,0.0,0.0,0.0,0.0,0.0,0.0,0.0,0.0,0.0,0.0,0.0,0.0,0.0,0.0,0.0,0.0,0.0,0.0,0.0,0.0,0.0,0.0,0.0,0.0,0.0,0.0,0.0,0.0,0.0,0.0,0.0,0.0,0.0,0.0,0.0,0.0,0.0,0.0,0.0,0.0,0.0,0.0,0.0,0.0,0.0,0.0,0.0,0.0,0.0,0.0,0.0,0.0,0.0,0.0,0.0,0.0,0.0,0.0,0.0,0.0,0.0,0.0,0.0,0.0,0.0,0.0,0.0,0.0,0.0,0.0,0.0,0.0,0.0,0.0,0.0,0.0,0.0,0.0,0.0,0.0,-1.3448,-1.1953,-1.0898,-1.0273,-1.0262,-1.0288,-1.1004,-1.2687,0.0,0.0,0.0,0.0,0.0,0.0,0.0,0.0,0.0,0.0,0.0,0.0,0.0,0.0,0.0,0.0,0.0,0.0,0.0,0.0,0.0,0.0,0.0,0.0,0.0,0.0,0.0,0.0,0.0,0.0,0.0,0.0,0.0,0.0,0.0,0.0,0.0,0.0,0.0,0.0,0.0,0.0,0.0,0.0,0.0,0.0,0.0,0.0,0.0,0.0,0.0,0.0,0.0,0.0,0.0,0.0,0.0,0.0,0.0,0.0,0.0,0.0,0.0,0.0,0.0,0.0,0.0,0.0,0.0,0.0,0.0,0.0,0.0,0.0,0.0,0.0,0.0,0.0,0.0,0.0,0.0,0.0,0.0,0.0,0.0,0.0,0.0,0.0,0.0,0.0,0.0,0.0,0.0,0.0,0.0,0.0,0.0,0.0,0.0,0.0,0.0,0.0,0.0,-1.358,-1.1948,-1.0995,-1.0254,-0.9908,-1.0175,-1.022,-1.0956,-1.2591,-1.2735,0.0,0.0,0.0,0.0,0.0,0.0,0.0,0.0,0.0,0.0,0.0,0.0,0.0,0.0,0.0,0.0,0.0,0.0,0.0,0.0,0.0,0.0,0.0,0.0,0.0,0.0,0.0,0.0,0.0,0.0,0.0,0.0,0.0,0.0,0.0,0.0,0.0,0.0,0.0,0.0,0.0,0.0,0.0,0.0,0.0,0.0,0.0,0.0,0.0,0.0,0.0,0.0,0.0,0.0,0.0,0.0,0.0,0.0,0.0,0.0,0.0,0.0,0.0,0.0,0.0,0.0,0.0,0.0,0.0,0.0,0.0,0.0,0.0,0.0,0.0,0.0,0.0,0.0,0.0,0.0,0.0,0.0,0.0,0.0,0.0,0.0,0.0,0.0,0.0,0.0,0.0,0.0,0.0,0.0,0.0,0.0,0.0,0.0,0.0,0.0,0.0,0.0,-1.0916,-0.9216,-0.9653,-0.9483,-0.9462,-0.9815,-1.0081,-1.0901,-1.2458,-1.2814,0.0,0.0,0.0,0.0,0.0,0.0,0.0,0.0,0.0,0.0,0.0,0.0,0.0,0.0,0.0,0.0,0.0,0.0,0.0,0.0,0.0,0.0,0.0,0.0,0.0,0.0,0.0,0.0,0.0,0.0,0.0,0.0,0.0,0.0,0.0,0.0,0.0,0.0,0.0,0.0,0.0,0.0,0.0,0.0,0.0,0.0,0.0,0.0,0.0,0.0,0.0,0.0,0.0,0.0,0.0,0.0,0.0,0.0,0.0,0.0,0.0,0.0,0.0,0.0,0.0,0.0,0.0,0.0,0.0,0.0,0.0,0.0,0.0,0.0,0.0,0.0,0.0,0.0,0.0,0.0,0.0,0.0,0.0,0.0,0.0,0.0,0.0,0.0,0.0,0.0,0.0,0.0,0.0,0.0,0.0,0.0,0.0,0.0,0.0,0.0,0.0,0.0,-0.5705,-0.4966,-0.7692,-0.8667,-0.9107,-0.9077,-0.9885,-1.0975,-1.2324,-1.3236,0.0,0.0,0.0,0.0,0.0,0.0,0.0,0.0,0.0,0.0,0.0,0.0,0.0,0.0,0.0,0.0,0.0,0.0,0.0,0.0,0.0,0.0,0.0,0.0,0.0,0.0,0.0,0.0,0.0,0.0,0.0,0.0,0.0,0.0,0.0,0.0,0.0,0.0,0.0,0.0,0.0,0.0,0.0,0.0,0.0,0.0,0.0,0.0,0.0,0.0,0.0,0.0,0.0,0.0,0.0,0.0,0.0,0.0,0.0,0.0,0.0,0.0,0.0,0.0,0.0,0.0,0.0,0.0,0.0,0.0,0.0,0.0,0.0,0.0,0.0,0.0,0.0,0.0,0.0,0.0,0.0,0.0,0.0,0.0,0.0,0.0,0.0,0.0,0.0,0.0,0.0,0.0,0.0,0.0,0.0,0.0,0.0,0.0,0.0,0.0,0.0,0.0,0.2687,0.014,0.0,-0.5997,-0.7867,-0.8688,-0.9302,-1.0395,-1.2151,0.0,0.0,0.0,0.0,0.0,0.0,0.0,0.0,0.0,0.0,0.0,0.0,0.0,0.0,0.0,0.0,0.0,0.0,0.0,0.0,0.0,0.0,0.0,0.0,0.0,0.0,0.0,0.0,0.0,0.0,0.0,0.0,0.0,0.0,0.0,0.0,0.0,0.0,0.0,0.0,0.0,0.0,0.0,0.0,0.0,0.0,0.0,0.0,0.0,0.0,0.0,0.0,0.0,0.0,0.0,0.0,0.0,0.0,0.0,0.0,0.0,0.0,0.0,0.0,0.0,0.0,0.0,0.0,0.0,0.0,0.0,0.0,0.0,0.0,0.0,0.0,0.0,0.0,0.0,0.0,0.0,0.0,0.0,0.0,0.0,0.0,0.0,0.0,0.0,0.0,0.0,0.0,0.0,0.0,0.0,0.0,0.0,0.0,0.0,0.0,0.0,0.0,1.1506,0.8544,0.452,0.0,-0.3089,-0.5556,-0.7568,-0.8454,-0.9741,-1.1678,0.0,0.0,0.0,0.0,0.0,0.0,0.0,0.0,0.0,0.0,0.0,0.0,0.0,0.0,0.0,0.0,0.0,0.0,0.0,0.0,0.0,0.0,0.0,0.0,0.0,0.0,0.0,0.0,0.0,0.0,0.0,0.0,0.0,0.0,0.0,0.0,0.0,0.0,0.0,0.0,0.0,0.0,0.0,0.0,0.0,0.0,0.0,0.0,0.0,0.0,0.0,0.0,0.0,0.0,0.0,0.0,0.0,0.0,0.0,0.0,0.0,0.0,0.0,0.0,0.0,0.0,0.0,0.0,0.0,0.0,0.0,0.0,0.0,0.0,0.0,0.0,0.0,0.0,0.0,0.0,0.0,0.0,0.0,0.0,0.0,0.0,0.0,0.0,0.0,0.0,0.0,0.0,0.0,0.0,0.0,0.0,0.0,0.0,0.0,0.0,0.0,0.0,1.1848,1.0935,0.789,0.1358,-0.0159,-0.2111,-0.557,-0.7336,-0.9024,0.0,0.0,0.0,0.0,0.0,0.0,0.0,0.0,0.0,0.0,0.0,0.0,0.0,0.0,0.0,0.0,0.0,0.0,0.0,0.0,0.0,0.0,0.0,0.0,0.0,0.0,0.0,0.0,0.0,0.0,0.0,0.0,0.0,0.0,0.0,0.0,0.0,0.0,0.0,0.0,0.0,0.0,0.0,0.0,0.0,0.0,0.0,0.0,0.0,0.0,0.0,0.0,0.0,0.0,0.0,0.0,0.0,0.0,0.0,0.0,0.0,0.0,0.0,0.0,0.0,0.0,0.0,0.0,0.0,0.0,0.0,0.0,0.0,0.0,0.0,0.0,0.0,0.0,0.0,0.0,0.0,0.0,0.0,0.0,0.0,0.0,0.0,0.0,0.0,0.0,0.0,0.0,0.0,0.0,0.0,0.0,0.0,0.0,0.0,0.0,0.0,0.0,0.0,1.1303,1.0176,0.8293,0.516,0.1266,-0.1829,-0.3566,-0.5499,-0.7788,-1.0571,0.0,0.0,0.0,0.0,0.0,0.0,0.0,0.0,0.0,0.0,0.0,0.0,0.0,0.0,0.0,0.0,0.0,0.0,0.0,0.0,0.0,0.0,0.0,0.0,0.0,0.0,0.0,0.0,0.0,0.0,0.0,0.0,0.0,0.0,0.0,0.0,0.0,0.0,0.0,0.0,0.0,0.0,0.0,0.0,0.0,0.0,0.0,0.0,0.0,0.0,0.0,0.0,0.0,0.0,0.0,0.0,0.0,0.0,0.0,0.0,0.0,0.0,0.0,0.0,0.0,0.0,0.0,0.0,0.0,0.0,0.0,0.0,0.0,0.0,0.0,0.0,0.0,0.0,0.0,0.0,0.0,0.0,0.0,0.0,0.0,0.0,0.0,0.0,0.0,0.0,0.0,0.0,0.0,0.0,0.0,0.0,0.0,0.0,0.0,0.0,0.0,0.0,1.0852,0.9863,0.8454,0.6316,0.2678,-0.0293,-0.2055,-0.4102,-0.6473,-0.9206,0.0,0.0,0.0,0.0,0.0,0.0,0.0,0.0,0.0,0.0,0.0,0.0,0.0,0.0,0.0,0.0,0.0,0.0,0.0,0.0,0.0,0.0,0.0,0.0,0.0,0.0,0.0,0.0,0.0,0.0,0.0,0.0,0.0,0.0,0.0,0.0,0.0,0.0,0.0,0.0,0.0,0.0,0.0,0.0,0.0,0.0,0.0,0.0,0.0,0.0,0.0,0.0,0.0,0.0,0.0,0.0,0.0,0.0,0.0,0.0,0.0,0.0,0.0,0.0,0.0,0.0,0.0,0.0,0.0,0.0,0.0,0.0,0.0,0.0,0.0,0.0,0.0,0.0,0.0,0.0,0.0,0.0,0.0,0.0,0.0,0.0,0.0,0.0,0.0,0.0,0.0,0.0,0.0,0.0,0.0,0.0,0.0,0.0,0.0,0.0,0.0,0.0,1.061,0.9765,0.83,0.5744,0.4043,0.1968,-0.0787,-0.3,-0.5088,-0.71,0.0,0.0,0.0,0.0,0.0,0.0,0.0,0.0,0.0,0.0,0.0,0.0,0.0,0.0,0.0,0.0,0.0,0.0,0.0,0.0,0.0,0.0,0.0,0.0,0.0,0.0,0.0,0.0,0.0,0.0,0.0,0.0,0.0,0.0,0.0,0.0,0.0,0.0,0.0,0.0,0.0,0.0,0.0,0.0,0.0,0.0,0.0,0.0,0.0,0.0,0.0,0.0,0.0,0.0,0.0,0.0,0.0,0.0,0.0,0.0,0.1076,0.0,0.0,0.0,0.0,0.0,0.0,0.0,0.0,0.0,0.0,0.0,0.0,0.0,0.0,0.0,0.0,0.0,0.0,0.0,0.0,0.0,0.0,0.0,0.0,0.0,0.0,0.0,0.0,0.0,0.0,0.0,0.0,0.0,0.0,0.0,0.0,0.0,0.0,0.0,0.0,0.0,1.0849,0.9017,0.7452,0.6853,0.4936,0.2988,0.1208,-0.1418,-0.3828,-0.5788,0.0,0.0,0.0,0.0,0.0,0.0,0.0,0.0,0.0,0.0,0.0,0.0,0.0,0.0,0.0,0.0,0.0,0.0,0.0,0.0,0.0,0.0,0.0,0.0,0.0,0.0,0.0,0.0,0.0,0.0,0.0,0.0,0.0,0.0,0.0,0.0,0.0,0.0,0.0,0.0,0.0,0.0,0.0,0.0,0.0,0.0,0.0,0.0,0.0,0.0,0.0,0.0,0.0,0.0,0.0,0.0,0.0,0.0,0.0,0.0,0.0,0.2252,0.0,0.0,0.0,0.0,0.0,0.0,0.0,0.0,0.0,0.0,0.0,0.0,0.0,0.0,0.0,0.0,0.0,0.0,0.0,0.0,0.0,0.0,0.0,0.0,0.0,0.0,0.0,0.0,0.0,0.0,0.0,0.0,0.0,0.0,0.0,0.0,0.0,0.0,0.0,0.0,1.1445,0.9035,0.7406,0.7651,0.5642,0.3789,0.2526,-0.0541,-0.316,-0.49,-0.6921,0.0,0.0,0.0,0.0,0.0,0.0,0.0,0.0,0.0,0.0,0.0,0.0,0.0,0.0,0.0,0.0,0.0,0.0,0.0,0.0,0.0,0.0,0.0,0.0,0.0,0.0,0.0,0.0,0.0,0.0,0.0,0.0,0.0,0.0,0.0,0.0,0.0,0.0,0.0,0.0,0.0,0.0,0.0,0.0,0.0,0.0,0.0,0.0,0.0,0.0,0.0,0.0,0.0,0.5789,0.5799,0.5856,0.5712,0.6051,0.6602,0.4868,0.4181,0.4204,0.2459,0.0,0.0,0.0,0.0,0.0,0.0,0.0,0.0,0.0,0.0,0.0,0.0,0.0,0.0,0.0,0.0,0.0,0.0,0.0,0.0,0.0,0.0,0.0,0.0,0.9025,0.8553,0.8894,0.0,0.0,0.0,0.0,0.0,0.0,0.0,0.0,0.0,0.0,0.0,1.2036,0.9434,0.7721,0.8143,0.618,0.4485,0.3561,0.037,-0.2415,-0.4345,-0.632,-0.7623,0.0,0.0,0.0,0.0,0.0,0.0,0.0,0.0,0.0,0.0,0.0,0.0,0.0,0.0,0.0,0.0,0.0,0.0,0.0,0.0,0.0,0.0,0.0,0.0,0.0,0.0,0.0,0.0,0.0,0.0,0.0,0.0,0.8555,0.8993,0.0,0.0,0.0,0.0,0.0,0.0,0.0,0.0,0.0,0.0,0.0,0.0,0.0,0.6082,0.7157,0.6417,0.6263,0.6741,0.6506,0.6525,0.6829,0.6816,0.7026,0.7418,0.679,0.0,0.5553,0.412,0.0,0.0,0.0,0.0,0.0,0.0,0.0,0.0,0.0,0.0,0.0,0.0,0.0,0.0,0.0,0.0,0.0,0.0,0.0,0.0,0.0,0.0,1.0252,1.0398,1.0336,1.0288,0.0,1.0006,0.987,1.0634,1.1263,0.0,0.0,0.0,0.0,0.0,0.0,0.0,1.2112,0.9888,0.8224,0.8121,0.6536,0.5246,0.4642,0.2291,-0.0633,-0.4107,-0.5058,-0.6188,-0.7782,-0.7506,0.0,0.0,0.0,0.0,0.0,0.0,0.0,0.0,0.0,0.0,0.0,0.0,0.0,0.0,0.0,0.0,0.0,0.0,0.0,0.0,0.0,0.0,0.0,0.0,0.0,0.0,0.0,0.0,0.0,0.9144,0.964,1.0637,1.0019,0.9497,0.0,0.0,0.0,0.0,0.0,0.0,0.0,0.0,0.0,0.8051,0.7549,0.7575,0.8192,0.7816,0.7721,0.798,0.7851,0.7876,0.7998,0.7998,0.8094,0.8273,0.8094,0.7704,0.7094,0.5698,0.5168,0.5117,0.0,0.0,0.0,0.0,0.4961,0.5126,0.545,0.5665,0.5768,0.5633,0.0,0.0,0.0,0.0,0.0,0.0,0.0,0.0,0.0,0.0,0.987,1.0289,1.0051,0.9937,1.0563,1.051,1.0536,0.0,1.2123,1.2706,1.2655,0.0,0.0,0.0,0.0,0.0,1.1617,0.9712,0.8507,0.8798,0.6981,0.5673,0.544,0.3017,0.0273,-0.2662,-0.4079,-0.5262,-0.6247,-0.6566,-0.73,0.0,0.0,0.0,0.0,0.0,0.0,0.0,0.0,0.0,0.0,0.0,0.0,0.0,0.0,0.0,0.0,0.0,0.0,0.0,0.0,0.0,0.0,0.0,0.0,0.0,0.0,0.0,0.0,1.0198,1.0521,1.1625,1.0926,1.0309,0.0,0.0,0.0,0.0,0.0,0.0,0.8659,0.8691,0.8692,0.8661,0.8729,0.8833,0.8942,0.8931,0.8931,0.8931,0.8931,0.8958,0.9066,0.9147,0.9254,0.9334,0.9227,0.9016,0.8623,0.72,0.6637,0.6589,0.6152,0.5964,0.5971,0.6194,0.648,0.6755,0.6801,0.693,0.7014,0.6692,0.7407,0.8389,0.8509,0.0,0.0,0.0,0.0,1.1405,1.0511,0.9892,0.9603,0.9939,0.9589,0.9425,1.0295,1.0639,1.0984,0.0,1.2538,1.3165,1.3154,0.0,0.0,0.0,0.0,1.1973,1.1174,0.9615,0.8733,0.9152,0.7354,0.6005,0.5671,0.3632,0.1267,-0.1322,-0.3148,-0.4296,-0.4681,-0.5659,-0.6242,-0.6335,0.0,0.0,0.0,0.0,0.0,0.0,0.0,0.0,0.0,0.0,0.0,0.0,0.0,0.0,0.0,0.0,0.0,0.0,0.0,0.0,0.0,0.0,0.0,0.0,0.0,0.0,0.0,0.0,0.0,1.17,1.1155,0.0,0.0,0.0,0.0,0.9788,0.9638,0.9406,0.9096,0.9197,0.9128,0.8795,0.9104,0.9269,0.9271,0.9271,0.9271,0.9271,0.9271,0.9444,0.9766,1.007,1.0432,1.0763,1.0394,1.0195,1.0095,0.8678,0.7656,0.6961,0.6931,0.6931,0.7035,0.7854,0.8405,0.8683,0.8107,0.8205,0.8368,0.7031,0.763,0.9038,0.9985,1.0685,0.0,0.0,1.1471,1.1368,1.0454,1.0279,1.0196,0.9672,0.9501,0.9542,0.9798,1.031,1.0995,0.0,1.2376,1.2528,1.2449,0.0,1.2771,1.2654,1.1913,1.1285,1.1037,0.9868,0.8965,0.8665,0.7504,0.6257,0.5064,0.4472,0.2698,-0.0725,-0.2112,-0.3023,-0.3564,-0.4726,-0.5451,-0.5647,-0.6937,0.0,0.0,0.0,0.0,0.0,0.0,0.0,0.0,0.0,0.0,0.0,0.0,0.0,0.0,0.0,0.0,0.0,0.0,0.0,0.0,0.0,0.0,0.0,0.0,0.0,0.0,0.0,0.0,1.2781,1.1733,0.0,1.1167,1.099,1.0778,1.0582,1.049,1.0379,1.0263,1.0287,1.0284,1.0172,1.0427,1.0713,1.0977,1.1102,1.1303,1.1562,1.1802,1.1737,1.1349,1.1563,1.1476,1.1144,1.1001,1.094,1.0903,1.0549,0.9629,0.847,0.8252,0.8297,0.8519,0.8828,0.9313,0.9719,0.9156,0.9322,0.9779,0.9658,0.9417,0.9599,1.1939,1.2271,1.1822,1.1892,1.1741,1.1243,0.9952,0.9692,0.9726,0.9585,0.9591,0.9668,0.9823,1.0109,1.0426,1.0775,1.1645,1.2377,1.2564,1.2695,1.2537,1.1851,1.1495,1.101,1.027,0.953,0.8982,0.8639,0.7631,0.6617,0.5681,0.4246,0.2641,0.0876,-0.1014,-0.2271,-0.2778,-0.3529,-0.4201,-0.4747,-0.5978,-0.6857,0.0,0.0,0.0,0.0,0.0,0.0,0.0,0.0,0.0,0.0,0.0,0.0,0.0,0.0,0.0,0.0,0.0,0.0,0.0,0.0,0.0,0.0,0.0,0.0,0.0,0.0,1.214,1.2927,1.2061,1.1468,1.1709,1.1677,1.1562,1.138,1.1436,1.1541,1.1661,1.1442,1.1506,1.1899,1.1924,1.2184,1.2692,1.2843,1.3035,1.3304,1.357,1.343,1.2909,1.2847,1.2576,1.2095,1.1903,1.1839,1.186,1.1928,1.1372,1.0396,0.9805,0.9729,0.9918,0.9918,1.0253,1.0676,1.0213,1.0224,1.0574,1.127,1.101,1.0829,1.3091,1.3294,1.2733,1.2526,1.2282,1.1721,1.0268,0.9936,0.9957,0.974,0.9725,0.9797,0.9935,1.0047,1.0097,1.0108,1.087,1.1585,1.1787,1.1855,1.1734,1.1309,1.0942,1.0544,0.9997,0.9348,0.8776,0.8363,0.7547,0.6688,0.5878,0.4486,0.3123,0.1819,0.0309,-0.1113,-0.2417,-0.2812,-0.3279,-0.392,-0.5094,-0.5936,-0.6469,0.0,0.0,0.0,0.0,0.0,0.0,0.0,0.0,0.0,0.0,0.0,0.0,0.0,0.0,0.0,0.0,0.0,0.0,0.0,0.0,0.0,0.0,0.0,1.2664,1.21,1.1869,1.2113,1.2134,1.1994,1.1657,1.2416,1.2669,1.2148,1.2423,1.2784,1.3214,1.2552,1.2716,1.3927,1.351,1.3628,1.4365,1.4357,1.4373,1.4412,1.4412,1.4412,1.4365,1.3983,1.3778,1.3734,1.3221,1.2985,1.2951,1.2836,1.2769,1.2631,1.1569,1.1147,1.1147,1.1147,1.1366,1.1599,1.1289,1.0941,1.0792,1.1677,1.2248,1.2696,1.3345,1.3675,1.3734,1.319,1.3106,1.2852,1.1423,1.1155,1.1035,1.0182,0.9968,0.9978,1.0103,1.0119,1.0104,1.0093,1.0146,1.0173,1.0102,1.0096,1.0315,1.0956,1.0217,0.0,1.0285,0.9327,0.839,0.7884,0.7286,0.6528,0.5523,0.531,0.4268,0.2047,0.1849,0.052,-0.2336,-0.2494,-0.2714,-0.3186,-0.4295,-0.5171,-0.5778,0.0,0.0,0.0,0.0,0.0,0.0,0.0,0.0,0.0,0.0,0.0,0.0,0.0,0.0,0.0,0.0,0.0,0.0,0.0,0.0,0.0,0.0,1.365,1.3545,1.3273,1.3104,1.3193,1.2764,1.2432,1.2345,1.2542,1.2629,1.2478,1.2537,1.298,1.3809,1.3645,1.4054,1.5091,1.5011,1.5282,1.5967,1.597,1.6215,1.6703,1.6939,1.677,1.6262,1.6194,1.5875,1.5363,1.5313,1.4923,1.4366,1.4623,1.4396,1.373,1.2409,1.2062,1.2266,1.2266,1.2463,1.2766,1.2824,1.2426,1.2078,1.3155,1.292,1.2498,1.3878,1.3592,1.2898,1.3387,1.3107,1.2611,1.2256,1.2197,1.214,1.1918,1.1419,1.0991,1.1034,1.0585,1.0151,1.0105,1.0115,1.0096,0.9979,0.9961,0.9962,1.001,0.978,0.0,0.9275,0.8868,0.8488,0.8185,0.7923,0.7382,0.6434,0.5762,0.5094,0.4305,0.2994,0.175,0.0643,0.0176,-0.0978,-0.2954,-0.3814,-0.4622,0.0,0.0,0.0,0.0,0.0,0.0,0.0,0.0,0.0,0.0,0.0,0.0,0.0,0.0,0.0,0.0,0.0,0.0,0.0,0.0,0.0,0.0,1.4978,1.4559,1.4419,1.3775,1.3346,1.3459,1.318,1.3023,1.3126,1.3463,1.3649,1.3649,1.4004,1.4585,1.5466,1.5226,1.5608,1.6828,1.6549,1.6721,1.7431,1.744,1.7628,1.8007,1.8272,1.8159,1.7753,1.754,1.7195,1.6779,1.6642,1.6292,1.5817,1.5766,1.549,0.0,0.0,0.0,0.0,0.0,1.3497,1.3683,1.3796,1.3604,1.3443,1.4095,1.3848,1.3451,1.4457,1.4147,1.3566,1.413,1.3926,1.3487,1.3219,1.3149,1.3063,1.2715,1.2283,1.1935,1.1865,1.1222,1.0612,1.0432,1.0122,0.0,0.9681,0.9643,0.9701,0.9825,0.9474,0.9164,0.9095,0.8677,0.824,0.7877,0.7768,0.7354,0.6444,0.5837,0.0,0.0,0.0,0.2628,0.2082,0.1063,0.0,0.0,0.0,0.0,0.0,0.0,0.0,0.0,-0.7079,-0.7474,0.0,0.0,0.0,0.0,0.0,0.0,0.0,0.0,0.0,0.0,0.0,0.0,0.0,0.0,0.0,0.0,1.6364,1.5905,1.5431,1.4177,1.3361,1.3497,1.3606,1.3809,1.4147,1.4843,1.5249,1.5249,1.5989,1.6754,1.7521,0.0,0.0,0.0,0.0,1.8056,1.8735,1.8717,1.8717,1.8753,1.8855,1.8919,1.8883,1.8374,1.8133,1.8096,1.7645,1.7336,1.7129,1.6648,1.6398,1.6164,1.4865,1.4419,1.4493,1.4404,1.4452,1.4497,1.4415,0.0,0.0,1.4655,1.4775,1.4942,1.4992,1.4975,1.4965,1.5087,1.5077,1.4879,1.4217,1.4036,1.3854,1.3121,1.2873,1.2766,1.265,1.1997,1.1321,1.0986,1.0343,0.9785,0.9523,0.9385,0.9474,0.997,0.9286,0.8907,0.9405,0.8757,0.8049,0.7481,0.0,0.0,0.6064,0.5715,0.5123,0.4115,0.3719,0.3232,0.25,0.1103,0.0558,0.1049,-0.0135,-0.0893,-0.1139,-0.0902,-0.0575,-0.0359,-0.5642,-0.602,0.0,0.0,0.0,0.0,0.0,0.0,0.0,0.0,0.0,0.0,0.0,0.0,0.0,0.0,0.0,1.7669,1.6974,1.6496,1.6974,1.6365,1.5602,1.4841,1.4768,1.5097,1.5835,1.6065,1.6136,1.6136,1.6394,1.6987,1.7939,1.7945,1.8434,1.9518,1.9212,1.9212,1.9556,1.9346,1.9346,1.9569,0.0,0.0,1.9601,1.9541,1.9503,1.9523,1.9569,1.8795,1.7562,1.829,1.8192,1.7368,1.5515,1.5175,1.5678,1.5087,1.5285,1.5752,1.5097,1.4884,1.4922,1.4994,1.5036,1.5077,1.5139,1.5149,0.0,1.5233,1.5249,1.5182,1.4931,1.4876,1.4801,1.4551,1.3952,1.3413,1.338,1.2711,1.2016,1.1737,1.157,1.1265,1.0681,0.988,0.9255,0.9099,0.9357,0.9478,0.9217,0.9241,0.9151,0.8785,0.83,0.7608,0.663,0.6108,0.5585,0.4984,0.4242,0.3574,0.299,0.2561,0.2259,0.2118,0.1525,0.1213,0.1172,0.1206,0.1524,0.1991,-0.1219,-0.2478,0.0,0.0,0.0,0.0,0.0,0.0,0.0,0.0,0.0,0.0,0.0,1.7043,0.0,0.0,1.7822,1.8442,1.8075,1.776,1.7927,1.7697,1.7087,1.5983,1.594,1.6204,1.6748,1.7164,1.7426,1.7504,1.7929,1.8428,1.8921,1.9013,1.9307,1.9825,1.9722,1.9736,1.9907,1.9772,1.9772,1.9888,1.9972,1.9999,1.9999,2.0063,2.01,2.0106,2.022,1.9762,1.8968,1.9064,1.8348,1.7138,1.6575,1.6603,1.691,1.6503,1.6612,1.6885,1.65,1.6349,1.6298,1.5913,1.5799,1.5722,1.5364,1.5204,1.5151,1.5186,1.5158,1.5075,1.5018,1.4997,1.4958,1.4797,1.4418,1.4046,1.389,1.3184,1.2513,1.2252,1.1872,1.1451,1.0937,1.0404,0.9912,0.9505,0.9682,0.9765,0.9535,0.9499,0.9394,0.9141,0.8498,0.7712,0.6778,0.5838,0.5131,0.4769,0.433,0.3916,0.3514,0.3296,0.3062,0.2757,0.2422,0.2192,0.2095,0.2206,0.2552,0.3067,0.1833,0.1184,0.0,0.0,0.0,0.0,0.0,0.0,0.0,0.0,1.7367,1.7727,1.7887,1.8031,1.8248,1.8532,1.8807,1.9067,1.9134,1.9036,1.8721,1.8665,1.8304,1.7339,1.7224,1.7368,1.7662,1.8291,1.8713,1.8839,1.9479,1.9861,1.9861,1.9895,1.9936,1.9997,1.9997,2.0019,2.0082,2.0082,2.0082,2.0082,2.0185,2.0219,2.0221,2.0294,2.0302,2.0286,2.0136,2.0153,2.0231,1.9171,1.8132,1.7269,1.7751,1.8061,1.8175,1.7841,1.7822,1.7941,1.7756,1.7675,1.7573,1.6875,1.6668,1.6525,1.5881,1.5615,1.5529,1.5529,1.5315,1.5066,1.5038,1.4888,1.469,1.4521,1.446,1.4386,1.4105,1.3556,1.3025,1.2756,1.2186,1.1633,1.1219,1.1156,1.0913,1.0211,1.0127,1.0124,1.0069,0.986,0.958,0.9301,0.859,0.776,0.6832,0.5692,0.4919,0.4646,0.4557,0.4378,0.405,0.3787,0.3521,0.326,0.3044,0.2864,0.2699,0.2867,0.3162,0.3596,0.3755,0.3931,1.5687,1.5879,0.0,1.715,1.6993,1.6881,0.0,0.0,1.7664,1.835,1.8001,1.7844,1.8717,1.903,1.9234,1.9499,1.9625,1.9681,1.9654,1.9635,1.9585,1.9468,1.8821,1.8712,1.9428,1.9578,1.9647,1.9658,1.9917,2.0068,2.0068,2.0243,2.0332,2.0342,2.0342,2.0346,2.0351,2.0351,2.0351,2.0351,2.0379,2.0347,2.0285,2.0367,2.0351,2.0259,1.9545,1.9662,2.0246,1.8484,1.8556,1.9699,1.8835,1.8988,1.9515,1.8247,1.8273,1.8822,1.7926,1.7606,1.7565,1.7302,1.7219,1.7193,1.7113,1.7073,1.7053,1.7053,1.6388,1.5673,1.5556,1.4855,1.4143,1.4016,1.3979,1.3965,1.3938,1.3853,1.3729,1.3509,1.3394,1.3137,1.2519,1.2405,1.188,1.0333,1.0583,1.0891,1.0713,1.0735,1.0528,0.9959,0.9136,0.8169,0.7061,0.6512,0.6093,0.5829,0.547,0.5058,0.4548,0.4316,0.4089,0.3828,0.3777,0.3765,0.3735,0.3804,0.3893,0.3949,0.4218,0.4251,1.6749,0.0,0.0,0.0,1.6595,1.6532,1.7222,1.7144,1.7223,1.827,1.8239,1.8313,1.9295,1.9508,1.9587,0.0,1.9762,1.9824,1.9912,1.9922,1.9964,2.0082,1.9799,1.9698,1.9954,1.9964,2.0018,2.0137,2.0237,2.0277,2.0277,2.0346,2.0422,2.0467,2.0467,2.0467,2.0467,2.0467,2.0449,2.0408,2.0408,2.0386,2.0359,2.035,2.032,2.0277,1.9825,1.9552,1.9437,1.9035,1.9001,1.922,1.9275,1.9528,1.9768,1.9172,1.918,1.945,1.9028,1.8868,1.8783,1.8192,1.8,1.7914,1.7436,1.724,1.7142,1.6978,1.6594,1.6164,1.5983,1.563,1.5183,1.4558,1.4424,1.4268,1.3724,1.3476,1.3345,1.3261,1.3124,1.2877,1.2435,1.2372,1.2069,1.1217,1.1171,1.1188,1.1117,1.0796,1.0279,0.9392,0.8776,0.8046,0.7133,0.6661,0.6358,0.6236,0.6065,0.5806,0.5425,0.5339,0.516,0.4891,0.4668,0.4538,0.4538,0.4329,0.4321,0.4482,0.4809,0.5033,1.7488,0.0,0.0,1.642,1.6187,1.6212,1.6911,1.688,1.711,1.8497,1.8584,1.8701,1.9616,1.9824,0.0,1.9858,1.9909,1.9963,2.0067,2.0084,2.0139,2.0305,2.0322,2.0291,2.0224,2.0199,2.023,2.0383,2.0422,2.0429,2.0429,2.0431,2.0451,2.0504,2.0487,2.0467,2.0475,2.0475,2.0441,2.041,2.041,2.0374,2.0298,2.0218,2.0161,2.0153,2.0012,1.9611,1.9115,1.9564,1.9369,1.8868,1.9445,1.9657,1.9657,1.9606,1.967,1.979,1.9762,1.9738,1.9644,1.8933,1.8721,1.8597,1.7963,1.7707,1.7569,1.73,1.6938,1.6635,1.6501,1.6238,1.5836,1.5068,1.4741,1.4416,1.361,1.3163,1.2887,1.2887,1.2741,1.2514,1.2251,1.2205,1.2107,1.1848,1.1512,1.1296,1.1296,1.0784,1.0072,0.9185,0.8766,0.8275,0.7636,0.7162,0.687,0.6768,0.666,0.6467,0.6205,0.6145,0.5981,0.5708,0.5506,0.5407,0.5407,0.5135,0.5082,0.5268,0.5553,0.5829,0.0,0.0,1.5508,1.6438,1.6154,1.6104,1.8001,1.7828,1.7753,1.942,1.9088,1.8757,1.9639,1.9912,1.9984,1.9984,2.0152,2.0296,2.0289,2.0282,2.0311,2.0379,2.0406,2.0425,0.0,2.0432,2.0387,2.041,2.047,2.0506,2.0506,2.0507,2.0492,2.049,2.0438,2.0395,2.0391,2.0391,2.0391,2.041,2.041,2.0293,2.0108,1.9905,1.9832,1.9802,1.9802,1.9802,1.9771,1.9656,1.9596,1.9545,1.9394,1.932,1.9289,1.9102,1.9343,1.9786,1.9643,1.9614,1.9569,1.9361,1.9283,1.9237,1.9013,1.8964,1.8894,1.8608,1.7835,1.7088,1.707,1.634,1.5539,1.5168,1.4582,1.4031,1.3677,1.3071,1.261,1.261,1.261,1.2514,1.2251,1.2205,1.2107,1.1848,1.1512,1.1296,1.1296,1.0784,1.0247,0.9893,0.9569,0.9185,0.8794,0.8434,0.8078,0.7686,0.7305,0.6954,0.6683,0.6505,0.626,0.6006,0.6286,0.6457,0.6457,0.6428,0.6425,0.6441,0.6471,0.648,0.0,0.0,1.5755,1.5556,1.5316,1.545,1.6649,1.6696,1.7009,1.8783,1.9354,1.984,2.0766,2.0966,2.1009,2.1043,2.0636,2.0314,2.0352,2.0361,2.0383,2.0467,2.0982,0.0,0.0,0.0,0.0,2.0537,2.0508,2.0505,2.0505,2.046,2.0432,2.0432,2.0418,2.037,2.0327,2.0327,2.0324,2.0328,2.0195,2.0107,2.003,1.9861,1.979,1.9809,1.9707,1.9656,1.9643,1.9467,1.9394,1.938,1.932,1.9305,1.9274,1.9086,1.9117,1.924,1.8996,1.8947,1.893,1.886,1.8843,1.8807,1.877,1.8734,1.8678,1.841,1.7921,1.7446,1.7283,1.6822,1.6247,1.5644,1.533,1.5002,1.4397,1.3955,1.3671,1.3671,1.3528,1.3382,1.328,1.2886,1.2343,1.1571,1.1219,1.094,1.0736,1.0335,0.9944,0.9607,0.9461,0.9235,0.8844,0.8706,0.8467,0.8119,0.7975,0.7726,0.7386,0.7308,0.723,0.7137,0.6979,0.689,0.689,0.6631,0.6488,0.6496,0.6411,0.6553,0.0,1.5971,1.5628,1.5109,1.5219,1.5673,1.6532,1.6745,1.7252,1.9006,1.9817,2.0487,2.1397,2.1836,2.2049,2.2097,2.1366,2.0925,2.1308,2.1101,2.1038,2.1396,2.1946,0.0,0.0,0.0,0.0,2.1481,2.113,2.0937,2.0937,2.0566,2.0357,2.0357,2.0357,2.0338,2.0302,2.0236,2.0169,2.0107,1.9941,1.9858,1.9858,1.9695,1.958,1.9513,1.9423,1.9335,1.9225,1.9097,1.9048,1.9048,1.9048,1.9048,1.9014,1.8789,1.8715,1.8715,1.8641,1.8585,1.8585,1.8585,1.8585,1.8585,1.8489,1.845,1.841,1.8125,1.781,1.7522,1.7351,1.7052,1.6652,1.6063,1.5738,1.5389,1.4794,1.4344,1.4053,1.4053,1.392,1.381,1.381,1.3436,1.293,1.2273,1.183,1.128,1.0512,1.011,0.9828,0.9607,0.9593,0.9422,0.9035,0.8899,0.8651,0.8308,0.8176,0.7976,0.7695,0.7695,0.7695,0.7695,0.7432,0.7305,0.7305,0.7211,0.7191,0.7169,0.7222,0.7458,1.6396,1.5743,1.5128,1.5166,1.5795,1.6689,1.7734,1.7969,1.8442,2.0122,2.0496,2.0795,0.0,0.0,2.3073,2.3077,2.2333,2.2075,2.2988,2.2387,2.216,0.0,0.0,0.0,0.0,0.0,0.0,2.321,0.0,2.1682,2.1682,2.0806,2.0301,2.0301,2.0292,2.0296,2.0353,2.0193,2.0047,1.9922,1.9787,1.9713,1.9699,1.9494,1.9292,1.9092,1.9092,1.895,1.8709,1.8709,1.8691,1.8656,1.8656,1.862,1.8566,1.829,1.8187,1.8229,1.8522,1.8582,1.8547,1.8547,1.8547,1.8508,1.8249,1.8166,1.8125,1.7839,1.7526,1.7272,1.7231,1.7002,1.6659,1.6355,1.5779,1.5237,1.4908,1.4348,1.3914,1.3914,1.3914,1.3899,1.387,1.3844,1.3814,1.3759,1.3141,1.2129,1.067,1.0187,0.9981,0.9943,0.9968,0.9863,0.9533,0.917,0.8784,0.8467,0.8046,0.7822,0.7793,0.7773,0.7734,0.7734,0.7734,0.7734,0.7734,0.8203,0.844,0.845,0.8804,0.8999,1.5764,1.5414,1.5397,1.6065,1.638,1.6966,1.8507,1.8861,1.9331,2.1021,2.1893,2.2594,0.0,0.0,0.0,2.3965,2.3288,0.0,2.3123,2.2948,0.0,0.0,0.0,2.3942,2.393,2.4452,0.0,0.0,2.2829,2.1634,2.1634,2.0785,2.0311,2.0311,2.015,2.0365,2.0957,2.1415,2.162,2.1588,2.1461,2.1263,2.1015,2.0861,2.0639,2.0344,2.0344,2.0303,2.0241,2.0241,1.9926,1.9414,1.9414,1.908,1.8566,1.829,1.8187,1.8274,1.8675,1.8459,1.8014,1.8014,1.8014,1.7992,1.7927,1.7905,1.7839,1.7526,1.7175,1.6866,1.6617,1.6313,1.6039,1.5955,1.5805,1.5656,1.5544,1.5424,1.5304,1.5304,1.5304,1.5111,1.4618,1.434,1.3905,1.3105,1.2622,1.2128,1.158,1.1303,1.0985,1.0531,1.0897,1.1132,1.1044,1.0944,1.0725,1.0324,0.9883,0.952,0.9202,0.8558,0.8213,0.8213,0.8213,0.8213,0.8213,0.8643,0.8848,0.8857,0.8844,0.8849,1.549,1.5334,1.555,1.643,1.6937,1.7678,1.9413,2.0118,2.0742,2.2047,2.3003,0.0,0.0,0.0,0.0,0.0,0.0,0.0,2.42,2.3851,2.3715,0.0,2.4514,0.0,2.4735,2.5143,2.5391,0.0,2.3694,2.2701,2.2701,2.1786,2.1273,2.1273,2.1067,2.1152,2.1538,2.1915,2.2092,2.2017,2.1946,2.1746,2.1407,2.133,2.1052,2.0625,0.0,2.0558,2.046,2.046,2.02,1.9819,1.9819,1.9577,1.9161,1.868,1.8592,1.8718,1.8667,1.846,1.8227,1.8269,1.8065,1.7811,1.7811,1.7704,1.7549,1.7344,1.6952,1.6528,1.6355,1.6067,1.5799,1.5799,1.5799,1.5799,1.5799,1.5799,1.5799,1.5799,1.5799,1.5679,1.5304,1.5061,1.4673,1.3869,1.3434,1.3009,1.2456,1.1926,1.1462,1.1136,1.1399,1.1588,1.1588,1.1424,1.1155,1.0708,1.0295,0.9841,0.9422,0.8935,0.8652,0.8652,0.8652,0.8652,0.8652,0.9072,0.9277,0.9252,0.9412,0.945,1.5391,1.5488,1.5781,1.6641,1.7539,1.8633,2.0371,2.1367,2.2168,2.3066,0.0,0.0,2.453,0.0,2.6468,2.571,0.0,2.5493,2.5508,2.4837,2.4632,2.5401,2.5488,2.5453,2.5391,2.5383,2.5343,2.5274,2.462,2.4178,2.4063,2.304,2.2452,2.2429,2.2375,2.2271,2.2145,2.224,2.2231,2.2133,2.208,2.188,2.1556,2.1516,2.1185,2.0646,2.0646,2.0524,2.0306,2.0306,2.0238,2.0154,2.0154,2.0086,1.9917,1.9234,1.916,1.9307,1.8718,1.8647,1.8799,1.8884,1.8397,1.7809,1.7809,1.7522,1.7224,1.7183,1.6747,1.6301,1.6246,1.6011,1.5799,1.5799,1.5799,1.5799,1.5799,1.5799,1.5799,1.5799,1.5799,1.577,1.5712,1.5712,1.5551,1.5013,1.4627,1.4088,1.3156,1.2314,1.1776,1.1701,1.1763,1.1814,1.1814,1.1498,1.1109,1.0725,1.0223,0.9799,0.9377,0.918,0.9092,0.9092,0.9092,0.9092,0.9092,0.9476,0.968,0.969,1.0107,1.0244,1.5391,1.5937,1.668,1.7559,1.8437,1.9531,2.1289,2.1797,0.0,0.0,0.0,2.4527,2.5196,0.0,0.0,2.5546,0.0,0.0,0.0,0.0,0.0,0.0,0.0,0.0,0.0,0.0,0.0,0.0,0.0,2.4549,2.3888,2.2836,2.22,2.2077,2.2704,2.2963,2.2812,2.3493,2.3805,2.3786,2.3499,2.3174,2.2868,2.2593,2.2297,2.1959,2.1959,0.0,2.1904,2.1904,2.1549,2.0974,2.0974,2.0585,1.9942,1.9482,1.9355,1.9427,1.9573,1.9281,1.8808,1.8808,1.8366,1.7813,1.7813,1.7368,1.6841,1.6554,1.6394,1.6246,1.5955,1.5856,1.5799,1.5799,1.5799,1.5799,1.5799,1.5799,1.5799,1.5799,1.5799,1.5668,1.5285,1.5225,1.4968,1.4214,1.4052,1.3795,1.3251,1.3028,1.2735,1.2316,1.268,1.291,1.291,1.2842,1.2775,1.2694,1.1908,1.1408,1.13,1.0134,0.9485,0.9485,0.9485,0.9485,0.9485,0.9961,1.0166,1.0166,1.0244,1.004,1.6758,1.7051,1.7578,1.8414,1.894,1.9816,2.1971,0.0,0.0,0.0,0.0,0.0,2.544,0.0,0.0,0.0,0.0,0.0,0.0,0.0,0.0,0.0,0.0,0.0,0.0,0.0,0.0,0.0,0.0,2.3982,2.3657,2.3093,2.289,2.3139,2.3527,2.3676,2.3639,2.4006,2.4113,2.3937,2.3774,2.3437,2.2947,2.2772,2.2563,2.231,2.231,2.231,2.231,2.231,2.209,2.1769,2.1769,2.1549,2.1107,2.029,2.0074,2.0164,1.9688,1.9418,1.9287,1.9287,1.8827,1.833,1.833,1.7963,1.748,1.7324,1.6903,1.6455,1.6308,1.6024,1.5799,1.5799,1.5799,1.5799,1.5799,1.5799,1.5741,1.5477,1.5448,1.5299,1.4845,1.4783,1.4596,1.4,1.3901,1.3735,1.3267,1.3198,1.3098,1.2835,1.3048,1.3198,1.3198,1.3198,1.3094,1.2838,1.2389,1.2066,1.1811,1.0846,1.0325,1.0325,1.0074,0.9971,0.9971,1.0186,1.0283,1.0283,1.0283,1.0157,1.8003,1.8082,1.8392,1.9019,1.9324,2.0077,2.2462,2.2998,0.0,0.0,0.0,0.0,2.5465,0.0,0.0,0.0,0.0,0.0,0.0,0.0,0.0,0.0,0.0,0.0,0.0,0.0,0.0,0.0,0.0,0.0,2.3126,2.3185,2.345,2.3914,2.4116,2.417,2.4094,2.4094,2.3917,2.3588,2.3522,2.3212,2.2695,2.2634,2.25,2.231,2.231,2.231,2.231,2.231,2.2237,2.2135,2.2135,2.2106,2.1907,2.0852,2.0619,2.0717,1.9659,1.947,1.969,1.969,1.9275,1.8778,1.8778,1.8439,1.8099,1.8099,1.7531,1.6921,1.6921,1.6473,1.5978,1.5829,1.5799,1.5799,1.5799,1.5799,1.5697,1.5329,1.5255,1.5104,1.4596,1.4501,1.4342,1.3835,1.3735,1.3615,1.3267,1.3198,1.3198,1.3198,1.3198,1.3198,1.3198,1.3198,1.3047,1.2685,1.2473,1.2174,1.1811,1.1207,1.0829,1.0829,1.0505,1.0283,1.0283,1.0283,1.0283,1.0283,1.0283,1.0283,1.8029,1.8403,1.9009,1.9084,1.969,2.0764,2.2589,0.0,0.0,0.0,0.0,2.5383,2.5321,0.0,0.0,0.0,0.0,0.0,0.0,0.0,0.0,0.0,0.0,0.0,0.0,0.0,0.0,0.0,0.0,0.0,2.1909,2.2646,2.3052,2.3125,2.3823,2.4036,2.3753,2.3753,2.3566,2.3236,2.2947,2.2772,2.2695,2.2436,2.2321,2.231,2.231,2.231,0.0,2.231,2.2032,2.1658,2.1658,2.143,2.1055,2.0505,2.0353,2.0314,1.9814,1.9666,1.969,1.969,1.9266,1.8714,1.8714,1.826,1.7747,1.7747,1.7685,1.7608,1.7608,1.7115,1.6473,1.5933,1.5799,1.5799,1.5799,1.5799,1.5799,1.5741,1.5741,1.5477,1.4627,1.4501,1.4214,1.3391,1.3267,1.3267,1.3198,1.3198,1.3198,1.3198,1.3198,1.3198,1.3198,1.3198,1.3198,1.3129,1.233,1.1847,1.1811,1.0878,1.0351,1.0351,1.0322,1.0283,1.0283,1.0283,1.0283,1.0283,1.0283,1.0283,2.0374,2.0398,2.0666,2.0604,2.0463,2.0923,2.3146,0.0,0.0,2.5009,2.5339,2.533,2.5293,0.0,0.0,0.0,0.0,0.0,0.0,0.0,0.0,0.0,0.0,0.0,0.0,0.0,0.0,0.0,0.0,0.0,2.0333,2.137,2.2405,2.3388,2.353,2.3544,2.3392,2.3392,2.3212,2.2898,2.2772,2.2625,2.2463,2.2349,2.231,2.231,2.231,2.231,0.0,2.231,2.2032,2.1582,2.1582,2.1337,2.0926,2.0483,2.0314,2.0246,1.9839,1.969,1.969,1.969,1.951,1.9286,1.9286,1.9106,1.8897,1.8897,1.8612,1.8313,1.8313,1.7787,1.713,1.6488,1.6652,1.6832,1.6443,1.6353,1.6188,1.5696,1.5287,1.4752,1.3868,1.3702,1.3615,1.3267,1.3198,1.3198,1.3198,1.3198,1.3198,1.3198,1.3198,1.3198,1.3198,1.3534,1.3722,1.3722,1.3082,1.2712,1.2712,1.1432,1.0848,1.1123,1.0815,1.0791,1.1087,1.0791,1.0791,1.1077,1.0518,1.042,2.1956,2.182,2.2003,2.1965,2.1487,2.1589,0.0,0.0,2.3581,2.5014,2.5303,2.5303,2.5303,2.5303,2.5303,0.0,0.0,0.0,0.0,0.0,0.0,0.0,0.0,0.0,0.0,0.0,0.0,0.0,0.0,0.0,1.9711,2.0699,2.1724,2.2648,2.2803,2.2829,2.2735,2.2735,2.2688,2.2573,2.2573,2.2473,2.231,2.231,2.231,2.231,2.231,2.231,0.0,2.231,2.2032,2.1582,2.146,2.1165,2.0731,2.0296,2.0001,1.9798,1.9481,1.9271,1.9136,1.9331,1.939,1.9435,1.963,1.969,1.969,1.969,1.9346,1.8957,1.8747,1.8358,1.7817,1.716,1.7258,1.7326,1.6815,1.6573,1.6281,1.5538,1.5015,1.4406,1.3547,1.3425,1.3357,1.3232,1.3198,1.3198,1.3198,1.3198,1.3198,1.3198,1.3198,1.3261,1.3458,1.3672,1.3912,1.4076,1.3402,1.3035,1.303,1.1833,1.1346,1.1665,1.1313,1.125,1.1606,1.125,1.126,1.1587,1.0979,1.0729,2.1966,2.212,2.2802,2.2802,2.2782,2.3013,0.0,2.4091,2.4322,2.5139,2.5303,2.5303,2.5303,2.5303,2.5303,0.0,0.0,0.0,0.0,0.0,0.0,0.0,0.0,0.0,0.0,0.0,0.0,0.0,0.0,0.0,2.0448,2.1007,2.0967,2.0264,2.1465,2.1942,2.1611,2.1628,2.1867,2.231,2.231,2.231,2.231,2.231,2.231,2.231,2.231,2.231,0.0,2.231,2.2032,2.1552,2.115,2.0715,2.0246,1.9839,1.9306,1.8717,1.8717,1.8283,1.7817,1.8508,1.8717,1.8837,1.9495,1.969,1.969,1.969,1.9675,1.9525,1.8867,1.8702,1.8523,1.7832,1.729,1.6882,1.6721,1.6339,1.5819,1.5233,1.5104,1.4845,1.4019,1.3901,1.3735,1.3267,1.3198,1.3198,1.3198,1.3198,1.3198,1.3198,1.3198,1.3446,1.4035,1.3546,1.3458,1.3966,1.3009,1.2385,1.232,1.1837,1.1596,1.1596,1.1596,1.1596,1.1606,1.1596,1.1596,1.1606,1.1596,1.1236,2.3581,2.3475,2.3687,2.3687,2.3244,2.3158,2.4601,2.4485,2.4341,2.5139,2.5303,2.5303,2.5303,2.5303,2.5495,2.6101,0.0,0.0,0.0,0.0,0.0,0.0,0.0,0.0,0.0,0.0,0.0,0.0,0.0,0.0,2.0282,2.1744,2.2238,2.1455,2.2142,2.2366,2.2068,2.2085,2.215,2.231,2.231,2.231,2.231,2.231,2.231,0.0,2.231,2.231,2.2282,2.1957,2.1568,2.115,2.0682,2.0261,1.9874,1.9747,1.9555,1.9375,1.9375,1.9241,1.9091,1.9301,1.9076,1.8747,1.8957,1.9331,1.969,1.969,1.969,1.963,1.9435,1.9375,1.9211,1.8553,1.8253,1.7992,1.7486,1.6899,1.625,1.5524,1.5001,1.4406,1.3581,1.3425,1.3357,1.3232,1.3198,1.3198,1.3198,1.3559,1.3833,1.3833,1.4124,1.4311,1.4097,1.4274,1.4421,1.4524,1.3948,1.3365,1.2855,1.2051,1.1753,1.2012,1.2021,1.2168,1.2508,1.2168,1.1865,1.1606,1.1875,1.1637,0.0,2.4322,2.4543,2.4543,2.4139,2.4024,2.5053,2.4909,2.4697,2.5187,2.5303,2.5303,2.5303,2.5303,2.5476,2.6024,0.0,0.0,0.0,0.0,0.0,0.0,0.0,0.0,0.0,0.0,0.0,0.0,0.0,0.0,2.0623,2.1935,2.2459,2.1826,2.2029,2.2046,2.1887,2.1887,2.2023,2.231,2.231,2.231,2.231,2.231,2.231,2.2282,2.2106,2.2032,0.0,2.1568,2.1213,2.0943,2.025,1.9805,1.9561,1.9386,1.9151,1.8986,1.9226,1.9151,1.8957,1.8957,1.8672,1.8328,1.8328,1.8792,1.9375,1.9615,1.969,1.969,1.969,1.969,1.9585,1.9166,1.8921,1.8588,1.7905,1.7267,1.657,1.5682,1.5168,1.4572,1.3699,1.3709,1.3785,1.3571,1.3709,1.3848,1.3848,1.4186,1.44,1.44,1.4702,1.4853,1.4714,1.4828,1.486,1.4786,1.43,1.3707,1.3073,1.2417,1.2187,1.2471,1.248,1.2607,1.2881,1.2607,1.2334,1.2106,1.2044,1.1816,0.0,2.4736,2.5303,2.5303,2.5303,2.5303,2.5303,2.5303,0.0,2.5303,2.5303,2.5303,0.0,0.0,0.0,0.0,0.0,0.0,0.0,0.0,0.0,0.0,0.0,0.0,0.0,0.0,0.0,0.0,0.0,0.0,2.1323,2.1785,2.1896,2.1574,2.1386,2.1288,2.1288,2.1288,2.1617,2.231,2.231,2.231,2.231,2.2282,2.2237,0.0,2.1764,2.1552,2.1521,2.1118,2.0959,2.083,1.9827,1.9431,1.9366,1.8933,1.8388,1.7921,1.8568,1.8373,1.7817,1.7712,1.7652,1.7623,1.7623,1.8119,1.8777,1.9435,1.9615,1.963,1.9675,1.969,1.9639,1.9639,1.9214,1.8587,1.7963,1.7427,1.675,1.5689,1.5522,1.5203,1.4297,1.4576,1.4739,1.4223,1.4576,1.4916,1.4916,1.4941,1.4966,1.4966,1.5004,1.523,1.5706,1.5254,1.4911,1.4778,1.4272,1.3656,1.2997,1.2929,1.2881,1.2881,1.2881,1.2881,1.2881,1.2881,1.2881,1.2881,1.2187,1.1864,2.5082,0.0,2.5303,2.5303,2.5303,2.5303,0.0,0.0,0.0,0.0,0.0,0.0,0.0,0.0,0.0,0.0,0.0,0.0,0.0,0.0,0.0,0.0,0.0,0.0,0.0,0.0,0.0,0.0,0.0,2.2632,2.1511,2.2143,2.2418,2.2116,2.2067,2.204,2.204,2.204,2.2141,2.231,2.231,2.231,2.2282,2.1928,2.1764,2.1718,2.1306,2.115,2.1118,2.0649,2.0449,2.04,1.9832,1.9627,1.9627,1.9521,1.9361,1.9241,1.9405,1.9346,1.9061,1.8011,1.7354,1.695,1.695,1.7399,1.8056,1.8747,1.8942,1.9046,1.9555,1.9406,1.9095,1.9095,1.8295,1.7487,1.7311,1.6798,1.6186,1.5623,1.5522,1.5333,1.4803,1.4828,1.4865,1.4739,1.4828,1.4916,1.4916,1.5241,1.5492,1.5492,1.5881,1.6183,1.6308,1.5819,1.548,1.5374,1.4857,1.422,1.3589,1.3152,1.2881,1.2881,1.2881,1.2881,1.2881,1.2881,1.2881,1.2881,1.2715,1.2344,2.5303,2.5303,2.5303,2.5303,2.5303,2.5303,0.0,0.0,0.0,0.0,0.0,0.0,0.0,0.0,0.0,0.0,0.0,0.0,0.0,0.0,0.0,0.0,0.0,0.0,0.0,0.0,0.0,0.0,0.0,2.2893,2.2081,2.2366,2.2436,2.231,2.231,2.231,2.231,2.231,2.231,2.231,2.231,2.218,2.1957,2.1718,2.1491,2.1306,2.0878,2.0682,2.0649,2.0193,2.0019,1.9969,1.9451,1.9226,1.9226,1.9226,1.9226,1.9286,1.957,1.9495,1.9121,1.8403,1.7697,1.71,1.6801,1.695,1.7411,1.8145,1.8515,1.8748,1.892,1.893,1.8855,1.8574,1.8051,1.7493,1.722,1.69,1.653,1.6034,1.5967,1.5811,1.5371,1.5454,1.5542,1.5291,1.5467,1.563,1.563,1.5881,1.607,1.607,1.6333,1.6522,1.6522,1.6245,1.5929,1.5608,1.5276,1.4732,1.3815,1.3505,1.32,1.2929,1.2881,1.2881,1.2881,1.2881,1.2881,1.2881,1.2881,1.2565,2.5303,2.5303,2.5303,2.5303,2.5303,2.5303,0.0,0.0,0.0,0.0,0.0,0.0,0.0,0.0,0.0,0.0,0.0,0.0,0.0,0.0,0.0,0.0,0.0,0.0,0.0,0.0,0.0,0.0,0.0,2.2669,2.2634,2.2426,2.231,2.231,2.231,2.231,2.231,2.231,2.231,2.231,2.2237,2.1974,2.1598,2.146,2.1213,2.0862,0.0,0.0,2.0193,1.9839,1.969,1.963,1.9076,1.8852,1.8852,1.8852,1.8852,1.8927,1.9495,1.9256,1.8702,1.8702,1.8268,1.7593,1.7025,1.6861,1.7005,1.7696,1.8218,1.851,1.8275,1.8496,1.865,1.8106,1.7907,1.7747,1.7271,1.7188,1.7034,1.6595,1.6522,1.6371,1.5906,1.6208,1.6358,1.5894,1.622,1.6522,1.6522,1.6522,1.6522,1.6522,1.6522,1.6466,1.638,1.638,1.6107,1.5499,1.5454,1.4915,1.3732,1.3637,1.342,1.2929,1.2881,1.2881,1.2881,1.2881,1.2881,1.2881,1.2842,1.2654,2.5303,2.5303,2.5303,2.5303,2.5303,0.0,0.0,0.0,0.0,0.0,0.0,0.0,0.0,0.0,0.0,0.0,0.0,0.0,0.0,0.0,0.0,0.0,0.0,0.0,0.0,0.0,0.0,0.0,0.0,2.2599,2.236,2.2321,2.231,2.231,2.231,2.231,2.231,2.231,2.231,2.2282,2.1899,2.1658,2.1582,2.083,2.0483,2.0382,0.0,1.9782,1.9782,1.9726,1.969,1.9675,1.957,1.954,1.954,1.954,1.954,1.9555,1.9645,1.9256,1.8702,1.8702,1.8268,1.7667,1.7578,1.7548,1.7599,1.7811,1.7861,1.8015,1.8627,1.8496,1.8106,1.7544,1.7076,1.671,1.6637,1.6637,1.6595,1.6522,1.6522,1.6497,1.6409,1.6459,1.6497,1.6409,1.6459,1.6522,1.6522,1.6522,1.6522,1.6522,1.6522,1.6281,1.5776,1.5732,1.5499,1.488,1.4835,1.4294,1.3113,1.3065,1.2968,1.2881,1.2881,1.2881,1.2881,1.2881,1.2881,1.2891,1.2577,1.2339,2.5303,2.5303,2.5303,2.5303,0.0,0.0,0.0,0.0,0.0,0.0,0.0,0.0,0.0,0.0,0.0,0.0,0.0,0.0,0.0,0.0,0.0,0.0,0.0,0.0,0.0,0.0,0.0,0.0,0.0,0.0,2.231,2.231,2.231,2.231,2.231,2.231,2.231,2.231,2.231,2.231,2.2077,2.1735,2.1244,2.0846,2.0431,1.9965,0.0,1.969,1.969,1.969,1.969,1.969,1.969,1.969,1.969,1.969,1.969,1.969,1.969,1.9495,1.9226,1.9226,1.9031,1.8717,1.8358,1.8037,1.7841,1.787,1.8071,1.8209,1.8065,1.8066,1.7907,1.7076,1.668,1.6522,1.6522,1.6522,1.6522,1.6522,1.6522,1.6522,1.6522,1.6522,1.6522,1.6522,1.6522,1.6522,1.6522,1.6522,1.6522,1.6522,1.6522,1.6238,1.5632,1.5588,1.532,1.4744,1.4376,1.3956,1.342,1.3065,1.2988,1.3213,1.3213,1.3213,1.3213,1.3213,1.3213,1.3223,1.3052,1.2733,2.5303,2.5303,2.5245,0.0,0.0,0.0,0.0,0.0,0.0,0.0,0.0,0.0,0.0,0.0,0.0,0.0,0.0,0.0,0.0,0.0,0.0,0.0,0.0,0.0,0.0,0.0,0.0,0.0,0.0,0.0,2.231,2.231,2.231,2.231,2.231,2.231,2.231,2.231,2.231,2.231,2.218,2.1751,2.0991,2.0894,2.0431,1.969,1.969,1.969,1.969,1.969,1.969,1.969,1.969,1.969,1.969,1.969,1.969,1.969,1.969,1.969,1.969,1.969,1.9603,1.9426,1.8901,1.8368,1.7939,1.7939,1.8245,1.8361,1.7505,1.7585,1.7666,1.671,1.6522,1.6522,1.6522,1.6522,1.6522,1.6522,1.6522,1.6522,1.6522,1.6522,1.6522,1.6522,1.6522,1.6522,1.6522,1.6522,1.6522,1.6522,1.6635,1.6529,1.6047,1.5717,1.5302,1.4846,1.4037,1.36,1.36,1.3252,1.3184,1.3496,1.3603,1.3603,1.3506,1.3603,1.3603,1.3516,1.3503,1.3214,2.5303,2.5303,0.0,0.0,0.0,0.0,0.0,0.0,0.0,0.0,0.0,0.0,0.0,0.0,0.0,0.0,0.0,0.0,0.0,0.0,0.0,0.0,0.0,0.0,0.0,0.0,0.0,0.0,0.0,0.0,2.231,2.231,2.231,2.231,2.231,2.231,2.231,2.231,2.231,2.2282,2.1869,2.143,2.1007,2.055,2.0089,1.969,1.969,1.969,1.969,1.969,1.969,1.969,1.969,1.969,1.969,1.969,1.969,1.969,1.969,1.969,1.969,1.969,1.9369,1.8968,1.891,1.8503,1.8076,1.8076,1.8115,1.8011,1.7463,1.7353,1.7188,1.6637,1.6522,1.6522,1.6522,1.6522,1.6522,1.6522,1.6522,1.6522,1.6522,1.6522,1.6522,1.6522,1.6522,1.6522,1.6522,1.6522,1.6522,1.6522,1.6999,1.7272,1.7171,1.5992,1.5233,1.5182,1.379,1.2968,1.2968,1.3302,1.3477,1.3506,1.3887,1.3896,1.3506,1.3844,1.3834,1.3525,1.3543,1.3573,2.4543,2.4928,0.0,0.0,0.0,0.0,0.0,0.0,0.0,0.0,0.0,0.0,0.0,0.0,0.0,0.0,0.0,0.0,0.0,0.0,0.0,0.0,0.0,0.0,0.0,0.0,0.0,0.0,0.0,0.0,2.231,2.231,2.231,2.231,2.231,2.231,2.231,2.2003,2.1853,2.1853,2.1688,2.1399,2.0991,2.0516,2.0089,1.969,1.969,1.969,1.969,1.969,1.969,1.969,1.969,1.969,1.969,1.969,1.969,1.969,1.969,1.969,1.9639,1.9332,1.908,1.8855,1.8496,1.8027,1.7585,1.7585,1.7353,1.7146,1.7271,1.7312,1.7146,1.6637,1.6522,1.6522,1.6522,1.6522,1.6522,1.6522,1.6522,1.6522,1.6522,1.6522,1.6522,1.6522,1.6522,1.6522,1.6522,1.6522,1.666,1.7024,1.6821,1.6627,1.6616,1.535,1.4536,1.4536,1.3985,1.3662,1.3662,1.3818,1.4023,1.4297,1.4453,1.4463,1.4307,1.4463,1.4453,1.4316,1.4352,1.4222,2.411,2.4697,0.0,0.0,0.0,0.0,0.0,0.0,0.0,0.0,0.0,0.0,0.0,0.0,0.0,0.0,0.0,0.0,0.0,0.0,0.0,0.0,0.0,0.0,0.0,0.0,0.0,0.0,0.0,0.0,0.0,2.231,2.231,2.231,2.231,2.2237,2.2077,2.1764,2.1538,2.1399,2.1259,2.1039,2.0764,2.0449,2.0089,1.969,1.969,1.969,1.969,1.969,1.969,1.969,1.969,1.969,1.969,1.969,1.969,1.969,1.969,1.969,1.9639,1.9281,1.893,1.8574,1.8224,1.7626,1.7034,1.7034,1.6795,1.6595,1.6951,1.7034,1.6951,1.6595,1.6522,1.6522,1.6522,1.6522,1.6522,1.6522,1.6522,1.6522,1.6522,1.6522,1.6522,1.6522,1.6522,1.6522,1.6522,1.6522,1.671,1.7263,1.6963,1.6723,1.6625,1.5541,1.4859,1.4859,1.4641,1.436,1.4087,1.4268,1.4473,1.4775,1.4912,1.4922,1.4785,1.4922,1.4912,1.4785,1.4922,1.4725,2.411,2.4678,0.0,0.0,0.0,0.0,0.0,0.0,0.0,0.0,0.0,0.0,0.0,0.0,0.0,0.0,0.0,0.0,0.0,0.0,0.0,0.0,0.0,0.0,0.0,0.0,0.0,0.0,0.0,0.0,0.0,2.231,2.231,2.231,2.231,2.2061,2.1612,2.1598,2.1399,2.1007,2.0516,2.0314,2.0314,2.0314,2.0089,1.969,1.969,1.969,1.969,1.969,1.969,1.969,1.969,1.969,1.969,1.969,1.969,1.969,1.969,1.969,1.969,1.969,1.8968,1.8106,1.8106,1.7353,1.6522,1.6522,1.6522,1.6522,1.6522,1.6522,1.6522,1.6522,1.6522,1.6522,1.6522,1.6522,1.6522,1.6522,1.6522,1.6522,1.6522,1.6522,1.6522,1.6522,1.6522,1.6522,1.6522,1.6491,1.667,1.7062,1.7582,1.7833,1.7588,1.6922,1.6492,1.6492,1.5806,1.5029,1.4126,1.4561,1.4795,1.4795,1.5205,1.5205,1.4795,1.5205,1.5195,1.4805,1.5215,1.4932,2.411,0.0,0.0,0.0,0.0,0.0,0.0,0.0,0.0,0.0,0.0,0.0,0.0,0.0,0.0,0.0,0.0,0.0,0.0,0.0,0.0,0.0,0.0,0.0,0.0,0.0,0.0,0.0,0.0,0.0,0.0,2.231,2.231,2.231,2.231,2.2061,2.1612,2.1306,2.0959,2.0516,2.007,2.0035,2.028,2.0,1.9803,1.969,1.969,1.969,1.969,1.969,1.969,1.969,1.969,1.969,1.969,1.969,1.969,1.969,1.969,1.969,1.9566,1.8817,1.838,1.7947,1.7188,1.6752,1.6522,1.6522,1.6522,1.6522,1.6522,1.6522,1.6522,1.6522,1.6522,1.6522,1.6522,1.6522,1.6522,1.6522,1.6522,1.6522,1.6522,1.6522,1.6522,1.6522,1.6522,1.666,1.7074,1.7463,1.7671,1.7683,1.7699,1.7465,1.6856,1.614,1.5748,1.5748,1.5526,1.5293,1.5049,1.5156,1.5225,1.5225,1.5352,1.5352,1.5225,1.5352,1.5352,1.5234,1.4758,1.4451,0.0,0.0,0.0,0.0,0.0,0.0,0.0,0.0,0.0,0.0,0.0,0.0,0.0,0.0,0.0,0.0,0.0,0.0,0.0,0.0,0.0,0.0,0.0,0.0,0.0,0.0,0.0,0.0,0.0,0.0,0.0,2.231,2.231,2.231,2.231,2.2003,2.1368,2.1118,2.0698,2.0054,1.9818,1.9854,2.0054,1.9803,1.969,1.969,1.969,1.969,1.969,1.969,1.969,1.969,1.969,1.969,1.969,1.969,1.969,1.969,1.969,1.969,1.9603,1.8968,1.8574,1.8263,1.7394,1.6993,1.6752,1.6552,1.6522,1.6522,1.6522,1.6522,1.6522,1.6522,1.6522,1.6522,1.6522,1.6522,1.6522,1.6522,1.6522,1.6522,1.6522,1.6522,1.6522,1.6522,1.671,1.7074,1.7639,1.8191,1.824,1.7536,1.7557,1.7191,1.6151,1.5642,1.541,1.541,1.541,1.541,1.541,1.541,1.541,1.541,1.541,1.541,1.541,1.505,1.4932,1.4874,1.4085,1.3545,0.0,0.0,0.0,0.0,0.0,0.0,0.0,0.0,0.0,0.0,0.0,0.0,0.0,0.0,0.0,0.0,0.0,0.0,0.0,0.0,0.0,0.0,0.0,0.0,0.0,0.0,0.0,0.0,0.0,0.0,2.231,2.231,2.231,2.231,2.231,2.1886,2.1007,2.0991,2.0565,1.969,1.969,1.969,1.969,1.969,1.969,1.969,1.969,1.969,1.969,1.969,1.969,1.969,1.969,1.969,1.969,1.969,1.969,1.969,1.969,1.969,1.9603,1.9566,1.9207,1.8727,1.8145,1.7666,1.7188,1.6637,1.6522,1.6522,1.6522,1.6522,1.6522,1.6522,1.6522,1.6522,1.6522,1.6522,1.6522,1.6522,1.6522,1.6522,1.6522,1.6522,1.6534,1.6584,1.7049,1.7601,1.8204,1.8719,1.8458,1.7014,1.731,1.7024,1.5517,1.541,1.541,1.541,1.541,1.541,1.541,1.541,1.541,1.541,1.541,1.541,1.541,1.4688,1.4264,1.4213,1.3364,1.2573,0.0,0.0,0.0,0.0,0.0,0.0,0.0,0.0,0.0,0.0,0.0,0.0,0.0,0.0,0.0,0.0,0.0,0.0,0.0,0.0,0.0,0.0,0.0,0.0,0.0,0.0,0.0,0.0,0.0,0.0,2.231,2.231,2.231,2.231,2.231,2.1886,2.1007,2.0991,2.0565,1.969,1.969,1.969,1.969,1.969,1.969,1.969,1.969,1.969,1.969,1.969,1.969,1.969,1.969,1.969,1.969,1.969,1.969,1.969,1.969,1.9406,1.9006,1.8574,1.838,1.8106,1.7105,1.7076,1.7188,1.6637,1.6522,1.6522,1.6522,1.6522,1.6522,1.6522,1.6522,1.6522,1.6522,1.6522,1.6522,1.6522,1.6522,1.6522,1.6522,1.6522,1.6672,1.7137,1.73,1.7739,1.8719,1.8908,1.8605,1.754,1.7511,1.7024,1.5517,1.541,1.541,1.541,1.541,1.541,1.541,1.541,1.541,1.541,1.541,1.541,1.541,1.5235,1.4815,1.4213,1.3364,1.2573,0.0,0.0,0.0,0.0,0.0,0.0,0.0,0.0,0.0,0.0,0.0,0.0,0.0,0.0,0.0,0.0,0.0,0.0,0.0,0.0,0.0,0.0,0.0,0.0,0.0,0.0,0.0,0.0,0.0,2.231,2.231,2.231,2.231,2.231,2.231,2.1886,2.1007,2.0991,2.0565,1.969,1.969,1.969,1.969,1.969,1.969,1.969,1.969,1.969,1.969,1.969,1.969,1.969,1.969,1.969,1.969,1.969,1.969,1.969,1.969,1.953,1.9244,1.8968,1.8688,1.8341,1.7504,1.7271,1.7188,1.6637,1.6522,1.6522,1.6522,1.6522,1.6522,1.6522,1.6522,1.6522,1.6522,1.6522,1.6522,1.6522,1.6522,1.6522,1.6522,1.6748,1.7124,1.7689,1.8003,1.8468,1.9296,1.908,1.8534,1.7709,1.7302,1.6641,1.5526,1.541,1.541,1.541,1.541,1.541,1.541,1.541,1.541,1.541,1.541,1.541,1.541,1.4991,1.4392,1.3614,1.2818,1.1965,0.0,0.0,0.0,0.0,0.0,0.0,0.0,0.0,0.0,0.0,0.0,0.0,0.0,0.0,0.0,0.0,0.0,0.0,0.0,0.0,0.0,0.0,0.0,0.0,0.0,0.0,0.0,0.0,0.0,2.231,2.231,2.231,2.231,2.231,2.231,2.1886,2.1007,2.0991,2.0565,1.969,1.969,1.969,1.969,1.969,1.969,1.969,1.969,1.969,1.969,1.969,1.969,1.969,1.969,1.969,1.969,1.969,1.969,1.969,1.969,1.9639,1.9566,1.9442,1.9132,1.865,1.8027,1.7585,1.7188,1.6637,1.6584,1.6672,1.6672,1.6735,1.6785,1.6685,1.6735,1.6785,1.6685,1.6672,1.6697,1.6785,1.681,1.681,1.681,1.7212,1.7714,1.8267,1.8731,1.9158,1.9569,1.9097,1.8394,1.7523,1.6866,1.6208,1.5468,1.541,1.541,1.541,1.541,1.541,1.541,1.541,1.541,1.541,1.541,1.541,1.541,1.4746,1.3906,1.3009,1.2328,1.1469,0.0,0.0,0.0,0.0,0.0,0.0,0.0,0.0,0.0,0.0,0.0,0.0,0.0,0.0,0.0,0.0,0.0,0.0,0.0,0.0,0.0,0.0,0.0,0.0,0.0,0.0,0.0,0.0,2.231,2.231,2.231,2.231,2.231,2.231,2.231,2.1886,2.1007,2.0991,2.0565,1.969,1.969,1.969,1.969,1.969,1.969,1.969,1.969,1.969,1.969,1.969,1.969,1.969,1.969,1.969,1.969,1.969,1.969,1.969,1.969,1.9406,1.893,1.8458,1.8263,1.8027,1.7034,1.6993,1.7188,1.6637,1.6886,1.7262,1.7262,1.7626,1.7865,1.7375,1.7626,1.7852,1.7363,1.7262,1.7413,1.789,1.7978,1.7978,1.7978,1.8041,1.8279,1.8783,1.8933,1.8957,1.8867,1.8768,1.8167,1.6821,1.6549,1.6208,1.5468,1.541,1.541,1.541,1.541,1.541,1.541,1.541,1.541,1.541,1.541,1.541,1.541,1.5294,1.4451,1.3009,1.2887,1.2035,0.0,0.0,0.0,0.0,0.0,0.0,0.0,0.0,0.0,0.0,0.0,0.0,0.0,0.0,0.0,0.0,0.0,0.0,0.0,0.0,0.0,0.0,0.0,0.0,0.0,0.0,0.0,0.0,2.231,2.231,2.231,2.2032,2.1899,2.1899,2.1675,2.126,2.0616,2.0616,2.0296,1.969,1.969,1.969,1.969,1.969,1.969,1.969,1.969,1.969,1.969,1.969,1.969,1.969,1.969,1.969,1.969,1.969,1.969,1.9639,1.9369,1.9281,1.9207,1.838,1.8106,1.7947,1.7188,1.6909,1.6859,1.6999,1.7187,1.7451,1.7765,1.8028,1.8141,1.7903,1.8028,1.8229,1.8292,1.8066,1.7915,1.8154,1.8204,1.8204,1.8204,1.8455,1.8744,1.8945,1.8906,1.879,1.8691,1.795,1.7202,1.6539,1.6151,1.5748,1.541,1.541,1.541,1.541,1.541,1.541,1.541,1.541,1.541,1.541,1.541,1.541,1.541,1.541,1.4569,1.3009,1.3009,1.2158,0.0,0.0,0.0,0.0,0.0,0.0,0.0,0.0,0.0,0.0,0.0,0.0,0.0,0.0,0.0,0.0,0.0,0.0,0.0,0.0,0.0,0.0,0.0,0.0,0.0,0.0,0.0,0.0,2.231,2.231,2.231,2.1853,2.1582,2.1582,2.1213,2.0748,2.0299,2.0177,2.0,1.969,1.969,1.969,1.969,1.969,1.969,1.969,1.969,1.969,1.969,1.969,1.969,1.969,1.969,1.969,1.969,1.969,1.969,1.9603,1.9095,1.9169,1.9332,1.8263,1.7907,1.7814,1.7455,1.7068,1.6861,1.7438,1.7689,1.789,1.8304,1.8505,1.8581,1.8442,1.8518,1.8694,1.892,1.8807,1.8606,1.8606,1.8606,1.8606,1.8606,1.8957,1.9221,1.9221,1.8906,1.8608,1.8447,1.7302,1.6436,1.6265,1.5748,1.541,1.541,1.541,1.541,1.541,1.541,1.541,1.541,1.541,1.541,1.541,1.541,1.541,1.541,1.541,1.4569,1.3009,1.3009,1.2158,0.0,0.0,0.0,0.0,0.0,0.0,0.0,0.0,0.0,0.0,0.0,0.0,0.0,0.0,0.0,0.0,0.0,0.0,0.0,0.0,0.0,0.0,0.0,0.0,0.0,0.0,0.0,0.0,2.231,2.231,2.231,2.1853,2.1582,2.1582,2.1213,2.0748,2.0299,1.9909,1.9711,1.969,1.969,1.969,1.969,1.969,1.969,1.969,1.969,1.969,1.969,1.969,1.969,1.969,1.969,1.969,1.969,1.969,1.969,1.9603,1.9095,1.893,1.8765,1.7706,1.7353,1.7334,1.7371,1.7383,1.7451,1.8003,1.8543,1.8895,1.8933,1.9346,1.9597,1.9095,1.9359,1.9597,1.9083,1.9397,1.9723,1.9723,1.9723,1.9723,1.9723,1.9748,1.9761,1.9761,1.9137,1.8447,1.7743,1.6978,1.6208,1.5526,1.541,1.541,1.541,1.541,1.541,1.541,1.541,1.541,1.541,1.541,1.541,1.541,1.541,1.541,1.541,1.541,1.4569,1.3009,1.3009,1.2158,0.0,0.0,0.0,0.0,0.0,0.0,0.0,0.0,0.0,0.0,0.0,0.0,0.0,0.0,0.0,0.0,0.0,0.0,0.0,0.0,0.0,0.0,0.0,0.0,0.0,0.0,0.0,0.0,0.0,2.218,2.1869,2.1446,2.1086,2.0765,2.0364,2.007,1.9909,1.9782,1.969,1.969,1.969,1.969,1.969,1.969,1.969,1.969,1.969,1.969,1.969,1.969,1.969,1.969,1.969,1.969,1.969,1.969,1.969,1.9566,1.8688,1.8612,1.865,1.7229,1.7294,1.7738,1.7035,1.7338,1.7953,1.8154,1.8606,1.9058,1.9434,1.966,1.9761,1.9572,1.966,1.9748,1.956,1.9673,1.9798,1.9798,1.9798,1.9798,1.9798,1.9798,1.9798,1.9798,1.8768,1.7895,1.7633,1.6528,1.569,1.541,1.541,1.541,1.541,1.541,1.541,1.541,1.541,1.541,1.541,1.541,1.541,1.541,1.541,1.541,1.541,1.541,1.4569,1.3009,1.3009,1.2158,0.0,0.0,0.0,0.0,0.0,0.0,0.0,0.0,0.0,0.0,0.0,0.0,0.0,0.0,0.0,0.0,0.0,0.0,0.0,0.0,0.0,0.0,0.0,0.0,0.0,0.0,0.0,0.0,0.0,0.0,2.143,2.1023,2.0565,2.0124,1.9839,1.969,1.969,1.969,1.969,1.969,1.969,1.969,1.969,1.969,1.969,1.969,1.969,1.969,1.969,1.969,1.969,1.969,1.969,1.969,1.969,1.969,1.9603,1.9281,1.8419,1.8224,1.8185,1.6909,1.7148,1.7808,1.7042,1.7589,1.848,1.848,1.8869,1.9359,1.971,1.9798,1.9798,1.9798,1.9798,1.9798,1.9798,1.9798,1.9798,1.9798,1.9798,1.9798,1.9798,1.9798,1.9798,1.9798,1.8543,1.7578,1.7578,1.6301,1.541,1.541,1.541,1.541,1.541,1.541,1.541,1.541,1.541,1.541,1.541,1.541,1.541,1.541,1.541,1.541,1.541,1.541,1.4569,1.3009,1.3009,1.2212,0.0,0.0,0.0,0.0,0.0,0.0,0.0,0.0,0.0,0.0,0.0,0.0,0.0,0.0,0.0,0.0,0.0,0.0,0.0,0.0,0.0,0.0,0.0,0.0,0.0,0.0,0.0,0.0,2.1582,2.1399,2.0991,2.055,2.0089,1.9711,1.969,1.969,1.969,1.969,1.969,1.969,1.969,1.969,1.969,1.969,1.969,1.969,1.969,1.969,1.969,1.969,1.969,1.969,1.969,1.969,1.969,1.969,1.9369,1.8817,1.8302,1.7747,1.7188,1.668,1.6911,1.7388,1.7388,1.8154,1.8983,1.8983,1.9397,1.9798,1.9798,1.9798,1.9798,1.9798,1.9798,1.9798,1.9798,1.9798,1.9798,1.9798,1.9798,1.9798,1.9798,1.9798,1.9798,1.9747,1.8555,1.7578,1.7578,1.6301,1.541,1.541,1.541,1.541,1.541,1.541,1.541,1.541,1.541,1.541,1.541,1.541,1.541,1.541,1.5352,1.5352,1.5352,1.541,1.4569,1.3009,1.2948,1.2203,2.419,0.0,0.0,0.0,0.0,0.0,0.0,0.0,0.0,0.0,0.0,0.0,0.0,0.0,0.0,0.0,0.0,0.0,0.0,0.0,0.0,0.0,0.0,0.0,0.0,0.0,0.0,0.0,2.115,2.0975,2.0516,2.0089,1.9803,1.9711,1.969,1.969,1.969,1.969,1.969,1.969,1.969,1.969,1.969,1.969,1.969,1.969,1.969,1.969,1.969,1.969,1.969,1.969,1.969,1.969,1.969,1.969,1.9369,1.8817,1.8302,1.7747,1.7188,1.668,1.6911,1.7388,1.7388,1.8154,1.8983,1.8983,1.9397,1.9798,1.9798,1.9798,1.9798,1.9798,1.9798,1.9798,1.9798,1.9798,1.9798,1.9798,1.9798,1.9798,1.9798,1.9798,1.9631,1.9097,1.8221,1.7413,1.6866,1.5979,1.541,1.541,1.541,1.541,1.541,1.541,1.541,1.541,1.541,1.541,1.541,1.541,1.541,1.541,1.4815,1.451,1.451,1.5108,1.4569,1.2948,1.1787,1.1094,0.0,0.0,0.0,0.0,0.0,0.0,0.0,0.0,0.0,0.0,0.0,0.0,0.0,0.0,0.0,0.0,0.0,0.0,0.0,0.0,0.0,0.0,0.0,0.0,0.0,2.143,2.1181,2.0748,2.0731,2.0532,2.0054,1.9854,1.969,1.969,1.969,1.969,1.969,1.969,1.969,1.969,1.969,1.969,1.969,1.969,1.969,1.969,1.969,1.969,1.969,1.969,1.969,1.969,1.969,1.969,1.969,1.969,1.9207,1.8535,1.8224,1.7585,1.6909,1.6595,1.6911,1.7388,1.7388,1.8154,1.8983,1.8983,1.9397,1.9798,1.9798,1.9798,1.9798,1.9798,1.9798,1.9798,1.9798,1.9798,1.9798,1.9798,1.9798,1.9798,1.9798,1.9798,1.9527,1.8821,1.807,1.7357,1.6595,1.5864,1.541,1.541,1.541,1.541,1.541,1.541,1.541,1.541,1.541,1.541,1.541,1.541,1.541,1.541,1.4628,1.4025,1.3726,1.4145,1.3717,1.2451,1.117,1.0624,0.0,0.0,0.0,0.0,0.0,0.0,2.3278,2.3274,0.0,0.0,0.0,0.0,0.0,0.0,0.0,0.0,0.0,0.0,0.0,0.0,0.0,0.0,0.0,0.0,2.146,2.1118,2.0731,2.028,2.0212,2.0089,1.9711,1.969,1.969,1.969,1.969,1.969,1.969,1.969,1.969,1.969,1.969,1.969,1.969,1.969,1.969,1.969,1.969,1.969,1.969,1.969,1.969,1.969,1.969,1.969,1.969,1.969,1.9006,1.8106,1.8106,1.7394,1.6522,1.6522,1.6911,1.7388,1.7451,1.8204,1.8983,1.9046,1.9447,1.9798,1.9798,1.9798,1.9798,1.9798,1.9798,1.9798,1.9798,1.9798,1.9798,1.9798,1.9798,1.9798,1.9798,1.9798,1.9527,1.8715,1.8004,1.7302,1.6482,1.5806,1.541,1.541,1.541,1.541,1.541,1.541,1.541,1.541,1.541,1.541,1.541,1.541,1.5352,1.5294,1.4392,1.3545,1.2704,1.2826,1.2512,1.1772,1.0982,1.0624,2.3876,2.3795,2.3649,0.0,0.0,0.0,0.0,2.2513,0.0,0.0,0.0,0.0,0.0,0.0,0.0,0.0,0.0,0.0,0.0,0.0,0.0,0.0,0.0,0.0,2.0601,2.0483,2.0246,1.9839,1.9818,1.9782,1.9711,1.969,1.969,1.969,1.969,1.969,1.969,1.969,1.969,1.969,1.969,1.969,1.969,1.969,1.969,1.969,1.969,1.969,1.969,1.969,1.969,1.969,1.969,1.969,1.969,1.969,1.9006,1.8106,1.8106,1.7394,1.6522,1.6522,1.6911,1.7463,1.7903,1.8505,1.912,1.9535,1.9723,1.9798,1.9798,1.9798,1.9798,1.9798,1.9798,1.9798,1.9798,1.9798,1.9798,1.9798,1.9798,1.9798,1.9798,1.9798,1.9371,1.8004,1.7677,1.7135,1.5806,1.5468,1.541,1.541,1.541,1.541,1.541,1.541,1.541,1.541,1.541,1.541,1.541,1.541,1.5108,1.4451,1.2984,1.1896,1.1052,1.1717,1.1958,1.1772,1.0982,1.0624,2.3795,2.3692,2.3544,2.2873,0.0,0.0,0.0,0.0,0.0,0.0,0.0,0.0,0.0,0.0,0.0,0.0,0.0,0.0,0.0,0.0,0.0,0.0,0.0,0.0,2.1286,2.0809,2.0288,1.9741,1.969,1.969,1.969,1.969,1.969,1.969,1.969,1.969,1.969,1.969,1.969,1.969,1.969,1.969,1.969,1.969,1.969,1.969,1.969,1.969,1.969,1.969,1.969,1.969,1.969,1.969,1.969,1.969,1.9207,1.8458,1.8185,1.7585,1.6837,1.6595,1.671,1.7112,1.7953,1.8769,1.9472,1.9723,1.9798,1.9798,1.9798,1.9798,1.9798,1.9798,1.9798,1.9798,1.9798,1.9798,1.9798,1.9798,1.9798,1.9798,1.9798,1.9798,1.9307,1.7852,1.7578,1.7079,1.5575,1.541,1.541,1.541,1.541,1.541,1.541,1.541,1.541,1.541,1.541,1.541,1.541,1.541,1.4805,1.3614,1.2443,1.1406,1.0624,1.0982,1.1226,1.1163,1.0807,1.0624,0.0,0.0,0.0,0.0,0.0,2.2563,0.0,0.0,0.0,0.0,0.0,0.0,0.0,0.0,0.0,0.0,0.0,0.0,0.0,0.0,0.0,0.0,0.0,0.0,2.2118,2.1258,2.0483,1.9929,1.9765,1.9794,2.0064,1.9824,1.975,1.9884,1.975,1.969,1.969,1.969,1.969,1.969,1.969,1.969,1.969,1.969,1.969,1.969,1.969,1.969,1.969,1.969,1.969,1.969,1.969,1.969,1.969,1.969,1.9369,1.8817,1.8302,1.7747,1.7188,1.668,1.666,1.7049,1.8179,1.9108,1.9798,1.9798,1.9798,1.9798,1.9798,1.9798,1.9798,1.9798,1.9798,1.9798,1.9798,1.9798,1.9798,1.9798,1.9798,1.9798,1.9798,1.9798,1.9307,1.7852,1.7578,1.7079,1.5575,1.541,1.541,1.541,1.541,1.541,1.541,1.541,1.541,1.541,1.541,1.541,1.541,1.5108,1.4264,1.2818,1.1958,1.1226,1.0624,1.0624,1.0624,1.0624,1.0624,1.0624,0.0,0.0,0.0,0.0,2.2527,0.0,0.0,0.0,0.0,0.0,0.0,0.0,0.0,0.0,0.0,0.0,0.0,0.0,0.0,0.0,0.0,0.0,0.0,0.0,0.0,2.1135,2.0677,2.0602,2.0034,2.0213,2.1395,2.0333,1.9974,2.0572,2.0004,1.969,1.969,1.969,1.969,1.969,1.969,1.969,1.969,1.969,1.969,1.969,1.969,1.969,1.969,1.969,1.969,1.969,1.969,1.969,1.969,1.969,1.9369,1.8817,1.8302,1.7747,1.7188,1.668,1.7187,1.8216,1.9296,1.971,1.9798,1.9798,1.9798,1.9798,1.9798,1.9798,1.9798,1.9798,1.9798,1.9798,1.9798,1.9798,1.9798,1.9798,1.9798,1.9798,1.9798,1.9798,1.9307,1.7852,1.7578,1.7079,1.5575,1.541,1.541,1.541,1.541,1.541,1.541,1.541,1.541,1.541,1.541,1.541,1.541,1.4025,1.2879,1.1958,1.117,1.0681,1.0624,1.0624,1.0624,1.0624,1.0624,1.0624,0.0,0.0,0.0,0.0,0.0,0.0,0.0,0.0,2.231,0.0,0.0,0.0,0.0,0.0,0.0,0.0,0.0,0.0,0.0,0.0,0.0,0.0,0.0,0.0,0.0,0.0,0.0,2.1276,2.0662,2.0707,2.165,2.0797,2.0423,2.0707,2.0049,1.969,1.969,1.969,1.969,1.969,1.969,1.969,1.969,1.969,1.969,1.969,1.969,1.969,1.969,1.969,1.969,1.969,1.969,1.969,1.969,1.969,1.9369,1.8817,1.8302,1.7747,1.7295,1.7073,1.7551,1.8342,1.912,1.956,1.9798,1.9798,1.9798,1.9798,1.9798,1.9798,1.9798,1.9798,1.9798,1.9798,1.9798,1.9798,1.9798,1.9798,1.9798,1.9798,1.9798,1.9423,1.8821,1.7743,1.7246,1.6585,1.5517,1.541,1.541,1.541,1.541,1.541,1.541,1.541,1.541,1.541,1.541,1.5167,1.4746,1.3614,1.2634,1.1834,1.0989,1.0624,1.0624,1.0624,1.0624,1.0624,1.0624,1.0624,2.3292,0.0,0.0,0.0,0.0,0.0,0.0,0.0,0.0,0.0,0.0,0.0,0.0,0.0,0.0,0.0,0.0,0.0,0.0,0.0,0.0,0.0,0.0,0.0,0.0,0.0,0.0,2.1695,2.1081,2.1156,2.2158,2.144,2.0976,2.0976,2.0318,1.9884,1.969,1.969,1.969,1.969,1.969,1.969,1.969,1.969,1.969,1.969,1.969,1.969,1.969,1.969,1.9603,1.9479,1.9479,1.9406,1.9281,1.9442,1.9244,1.8817,1.8145,1.7665,1.7372,1.7548,1.7978,1.853,1.9083,1.9497,1.9798,1.9798,1.9798,1.9798,1.9798,1.9798,1.9798,1.9798,1.9798,1.9798,1.9798,1.9798,1.9798,1.9798,1.9798,1.9798,1.9798,1.9371,1.8661,1.7743,1.7135,1.6482,1.5526,1.541,1.541,1.541,1.541,1.541,1.541,1.541,1.541,1.541,1.541,1.505,1.4204,1.3433,1.2634,1.1834,1.0989,1.0624,1.0624,1.0624,1.0665,1.0681,1.0681,1.0698,0.0,0.0,0.0,2.2504,0.0,0.0,0.0,0.0,2.218,0.0,0.0,0.0,0.0,0.0,0.0,0.0,0.0,0.0,0.0,0.0,0.0,0.0,0.0,0.0,0.0,0.0,2.1695,0.0,2.1081,2.1545,2.343,2.2353,2.1665,2.1665,2.1021,2.0363,1.969,1.969,1.969,1.969,1.969,1.969,1.969,1.969,1.969,1.969,1.969,1.969,1.969,1.969,1.9406,1.893,1.893,1.8612,1.8224,1.8727,1.8893,1.8727,1.7706,1.7368,1.7496,1.799,1.8555,1.9046,1.9623,1.9786,1.9798,1.9798,1.9798,1.9798,1.9798,1.9798,1.9798,1.9798,1.9798,1.9798,1.9798,1.9798,1.9798,1.9798,1.9798,1.9798,1.9798,1.9798,1.9254,1.7852,1.7578,1.7024,1.5575,1.541,1.541,1.541,1.541,1.541,1.541,1.541,1.541,1.541,1.541,1.505,1.4204,1.3433,1.2634,1.1834,1.0989,1.0624,1.0624,1.0624,1.0701,1.0982,1.0982,1.0828,0.0,0.0,2.1663,2.1923,0.0,0.0,0.0,0.0,0.0,0.0,0.0,0.0,0.0,0.0,0.0,0.0,0.0,0.0,0.0,0.0,0.0,0.0,0.0,0.0,0.0,0.0,0.0,2.2278,2.1739,2.2024,2.352,2.2802,2.2338,2.2338,2.1276,2.0602,2.0363,1.9914,1.969,1.969,1.969,1.969,1.969,1.969,1.969,1.969,1.969,1.969,1.969,1.969,1.9369,1.8893,1.8893,1.8574,1.8145,1.8302,1.8145,1.7801,1.7488,1.739,1.7539,1.8455,1.8833,1.912,1.9648,1.9798,1.9798,1.9798,1.9798,1.9798,1.9798,1.9798,1.9798,1.9798,1.9798,1.9798,1.9798,1.9798,1.9798,1.9798,1.9798,1.9798,1.9798,1.9423,1.8715,1.7743,1.7191,1.6528,1.5526,1.541,1.541,1.541,1.541,1.541,1.541,1.541,1.541,1.541,1.541,1.505,1.4204,1.3433,1.2634,1.1834,1.0989,1.0624,1.0624,1.0624,1.0672,1.0715,1.1102,1.1122,2.061,2.0657,0.0,2.0965,2.125,0.0,2.1837,0.0,0.0,0.0,0.0,0.0,0.0,0.0,0.0,0.0,0.0,0.0,0.0,0.0,0.0,0.0,0.0,0.0,0.0,0.0,2.1261,2.2619,2.2069,2.2263,0.0,2.3221,2.2802,2.2338,2.15,2.0842,2.0348,1.9914,1.969,1.969,1.969,1.969,1.969,1.969,1.969,1.969,1.969,1.969,1.969,1.969,1.9281,1.8612,1.8612,1.8185,1.7544,1.7747,1.7609,1.7325,1.7384,1.7639,1.8078,1.8794,1.9108,1.9359,1.9698,1.9798,1.9798,1.9798,1.9798,1.9798,1.9798,1.9798,1.9798,1.9798,1.9798,1.9798,1.9798,1.9798,1.9798,1.9798,1.9798,1.9798,1.9798,1.9202,1.8447,1.7688,1.6978,1.6208,1.5468,1.541,1.541,1.541,1.541,1.541,1.541,1.541,1.541,1.541,1.541,1.5177,1.4628,1.3606,1.2757,1.2266,1.117,1.0624,1.0624,1.0624,1.0678,1.0722,1.0995,1.1069]}]]